TCX178 / LY-VED 7700 Squawk Report (19th of October, 2018)

Aircraft A321 Reg No. LY-VED Age 10 years old
Model A321 Jet engines 2 First flight 29-11-07
Registered 01-11-18 Rollout 11-07 Delivered 07-12-07
Construction No. 3334 Line No. N/A Series 211
ADSHEX 503DBA Airline name Avion Express Owner RBS Aerospace Ltd
Airfield based Vilnius-International~ ~LY First tracked 2018-05-11 08:20:00

Flight history for LY-VED

Route Flight No Date Playback
???? X99001 2018-11-01 13:00:00
Dalaman (DLM) - Manchester (MAN) MT109 2018-11-01 12:09:00
Leeds Bradford (LBA) - Dalaman (DLM) MT160 2018-11-01 00:41:00
Dalaman (DLM) - Leeds Bradford (LBA) MT161 2018-10-31 20:39:00
Manchester (MAN) - Dalaman (DLM) MT108 2018-10-31 12:03:00
Fuerteventura (FUE) - Manchester (MAN) MT1483 2018-10-30 19:14:00
Manchester (MAN) - Fuerteventura (FUE) MT1482 2018-10-30 13:29:00
Gran Canaria (LPA) - Manchester (MAN) MT1479 2018-10-30 09:21:00
Manchester (MAN) - Gran Canaria (LPA) MT1478 2018-10-29 21:48:00
Dionysios Solomos (ZTH) - Manchester (MAN) MT1831 2018-10-29 14:46:00
Manchester (MAN) - Dionysios Solomos (ZTH) MT1830 2018-10-29 11:38:00
Tenerife Sur (TFS) - Manchester (MAN) MT1165 2018-10-29 06:19:00
Manchester (MAN) - Tenerife Sur (TFS) MT1164 2018-10-28 18:37:00
Son Sant Joan (PMI) - Manchester (MAN) MT1465 2018-10-28 15:09:00
???? N/A 2018-10-28 11:11:00
Tenerife Sur (TFS) - Manchester (MAN) MT1867 2018-10-28 06:10:00
Manchester (MAN) - Tenerife Sur (TFS) MT1866 2018-10-27 21:08:00
Antalya (AYT) - Manchester (MAN) MT355 2018-10-27 17:22:00
Manchester (MAN) - Antalya (AYT) MT354 2018-10-27 10:52:00
Antalya (AYT) - Manchester (MAN) MT129 2018-10-27 05:08:00
Time Lat Lon Altitude Heading Speed Vertical Rate
2018-10-20 00:57:19 GMT 36.896965 30.794424 0 182 9 -512
2018-10-20 00:57:14 GMT 36.897182 30.794443 0 185 12 -512
2018-10-20 00:57:02 GMT 36.897804 30.794527 0 185 12 -512
2018-10-20 00:54:20 GMT 36.911327 30.796066 0 104 8 -512
2018-10-20 00:54:16 GMT 36.911350 30.795891 0 67 8 -512
2018-10-20 00:52:42 GMT 36.886459 30.790762 200 6 137 -512
2018-10-20 00:52:32 GMT 36.879566 30.789782 325 5 137 -768
2018-10-20 00:52:21 GMT 36.873322 30.789009 450 6 137 -640
2018-10-20 00:52:10 GMT 36.866020 30.787931 575 6 137 -768
2018-10-20 00:52:02 GMT 36.861374 30.787315 675 6 137 -768
2018-10-20 00:51:52 GMT 36.854847 30.786438 800 6 139 -768
2018-10-20 00:51:40 GMT 36.845764 30.785179 975 5 144 -768
2018-10-20 00:51:31 GMT 36.840790 30.784510 1,050 6 147 -768
2018-10-20 00:51:20 GMT 36.833817 30.783577 1,200 6 152 -704
2018-10-20 00:51:10 GMT 36.826492 30.782547 1,350 6 154 -1024
2018-10-20 00:51:00 GMT 36.819187 30.781588 1,500 5 155 -320
2018-10-20 00:50:49 GMT 36.811386 30.780487 1,500 6 161 0
2018-10-20 00:50:39 GMT 36.803921 30.779484 1,500 6 161 64
2018-10-20 00:50:28 GMT 36.795959 30.778370 1,500 6 163 0
2018-10-20 00:50:18 GMT 36.788231 30.777145 1,500 8 165 0
2018-10-20 00:50:08 GMT 36.780132 30.775511 1,525 9 173 -64
2018-10-20 00:49:57 GMT 36.771797 30.773582 1,525 13 185 -64
2018-10-20 00:49:47 GMT 36.763138 30.770359 1,500 21 200 -256
2018-10-20 00:49:37 GMT 36.754303 30.765152 1,525 34 204 0
2018-10-20 00:49:26 GMT 36.747116 30.756111 1,525 61 208 0
2018-10-20 00:49:16 GMT 36.744427 30.744596 1,500 90 212 -64
2018-10-20 00:49:05 GMT 36.745079 30.731798 1,500 95 215 64
2018-10-20 00:48:55 GMT 36.746017 30.718918 1,500 95 226 0
2018-10-20 00:48:45 GMT 36.747082 30.704742 1,525 95 235 -64
2018-10-20 00:48:34 GMT 36.748337 30.690367 1,525 98 236 128
2018-10-20 00:48:23 GMT 36.751556 30.676289 1,500 115 242 0
2018-10-20 00:48:14 GMT 36.757694 30.665356 1,525 136 255 -448
2018-10-20 00:48:04 GMT 36.767578 30.656490 1,625 155 262 -1216
2018-10-20 00:47:52 GMT 36.781342 30.651855 1,925 174 264 -2048
2018-10-20 00:47:43 GMT 36.792049 30.652382 2,250 187 264 -1920
2018-10-20 00:47:32 GMT 36.805069 30.654087 2,575 187 266 -1920
2018-10-20 00:47:20 GMT 36.820267 30.656090 2,950 187 267 -1984
2018-10-20 00:47:11 GMT 36.831116 30.657520 3,250 187 268 -1984
2018-10-20 00:46:59 GMT 36.846375 30.659569 3,650 186 268 -2240
2018-10-20 00:46:50 GMT 36.856888 30.660913 4,000 186 266 -2560
2018-10-20 00:46:40 GMT 36.869202 30.662491 4,375 186 264 -2112
2018-10-20 00:46:25 GMT 36.887947 30.664871 4,775 186 265 -1984
2018-10-20 00:46:18 GMT 36.896324 30.665947 5,075 187 267 -1920
2018-10-20 00:46:09 GMT 36.907974 30.667458 5,375 187 269 -1920
2018-10-20 00:45:47 GMT 36.935104 30.671261 6,175 187 272 -2112
2018-10-20 00:45:17 GMT 36.973137 30.677410 7,225 189 268 -2304
2018-10-20 00:45:05 GMT 36.987289 30.679918 7,625 188 269 -1664
2018-10-20 00:44:43 GMT 37.016430 30.681650 8,200 163 275 -1536
2018-10-20 00:44:31 GMT 37.028961 30.674355 8,475 142 278 -1792
2018-10-20 00:44:22 GMT 37.037891 30.662186 8,775 120 281 -1856
2018-10-20 00:43:49 GMT 37.056931 30.616150 9,525 117 291 -2240
2018-10-20 00:43:38 GMT 37.063961 30.599194 9,900 117 296 -1408
2018-10-20 00:43:16 GMT 37.078114 30.565220 10,325 117 310 -768
2018-10-20 00:42:14 GMT 37.117950 30.458776 11,475 113 348 -1792
2018-10-20 00:41:40 GMT 37.139748 30.395109 12,450 113 355 -1792
2018-10-20 00:41:32 GMT 37.145004 30.379709 12,700 113 357 -1856
2018-10-20 00:41:21 GMT 37.151943 30.359224 13,025 113 361 -1856
2018-10-20 00:41:11 GMT 37.158276 30.340775 13,300 113 363 -1856
2018-10-20 00:40:58 GMT 37.166931 30.315487 13,675 113 366 -1792
2018-10-20 00:40:50 GMT 37.172836 30.298306 13,950 113 370 -1856
2018-10-20 00:40:39 GMT 37.180206 30.276800 14,275 113 373 -1920
2018-10-20 00:40:28 GMT 37.187805 30.254711 14,625 113 376 -1920
2018-10-20 00:40:19 GMT 37.193985 30.236771 14,900 113 377 -1920
2018-10-20 00:39:19 GMT 37.235138 30.115629 16,775 113 385 -1920
2018-10-20 00:39:16 GMT 37.237106 30.109961 16,850 113 386 -1920
2018-10-20 00:39:06 GMT 37.244156 30.089214 17,175 113 388 -1920
2018-10-20 00:38:54 GMT 37.252899 30.063620 17,550 113 390 -1920
2018-10-20 00:38:45 GMT 37.259525 30.044025 17,850 113 392 -1920
2018-10-20 00:38:34 GMT 37.267300 30.021276 18,200 113 393 -1920
2018-10-20 00:38:25 GMT 37.273865 30.001989 18,475 113 395 -1920
2018-10-20 00:38:14 GMT 37.281685 29.979004 18,825 112 397 -1984
2018-10-20 00:38:04 GMT 37.288761 29.958044 19,150 112 399 -1984
2018-10-20 00:37:54 GMT 37.296158 29.936167 19,475 112 401 -1984
2018-10-20 00:37:43 GMT 37.304077 29.912790 19,825 112 402 -1984
2018-10-20 00:37:28 GMT 37.314922 29.880604 20,325 112 405 -2048
2018-10-20 00:37:22 GMT 37.318974 29.868542 20,500 112 406 -2048
2018-10-20 00:37:12 GMT 37.326328 29.846748 20,825 112 409 -1856
2018-10-20 00:37:01 GMT 37.334335 29.822926 21,175 112 410 -2240
2018-10-20 00:36:51 GMT 37.342110 29.799936 21,525 113 411 -2048
2018-10-20 00:36:41 GMT 37.349579 29.777800 21,875 113 413 -2112
2018-10-20 00:36:30 GMT 37.357567 29.754320 22,225 112 414 -2112
2018-10-20 00:36:20 GMT 37.365234 29.731575 22,575 112 416 -2112
2018-10-20 00:36:10 GMT 37.373207 29.707748 22,950 112 417 -2112
2018-10-20 00:35:59 GMT 37.380890 29.684879 23,300 112 419 -2176
2018-10-20 00:35:49 GMT 37.388855 29.660982 23,675 112 420 -2112
2018-10-20 00:35:38 GMT 37.396683 29.637316 24,050 112 421 -2112
2018-10-20 00:35:27 GMT 37.404648 29.613064 24,425 112 424 -2112
2018-10-20 00:35:17 GMT 37.412064 29.590273 24,775 112 426 -2112
2018-10-20 00:35:06 GMT 37.420551 29.563791 25,150 111 428 -2048
2018-10-20 00:34:57 GMT 37.427078 29.542995 25,475 111 429 -2240
2018-10-20 00:34:46 GMT 37.434998 29.517752 25,825 111 429 -1600
2018-10-20 00:34:36 GMT 37.442505 29.494024 26,050 111 429 -960
2018-10-20 00:34:25 GMT 37.450531 29.469273 26,225 112 431 -960
2018-10-20 00:34:20 GMT 37.454727 29.457033 26,300 114 432 -1280
2018-10-20 00:34:11 GMT 37.462143 29.436640 26,475 115 433 -1664
2018-10-20 00:34:04 GMT 37.468140 29.421679 26,700 117 435 -2112
2018-10-20 00:34:00 GMT 37.471664 29.413147 26,825 117 436 -2112
2018-10-20 00:33:53 GMT 37.479858 29.393454 27,125 117 438 -2112
2018-10-20 00:33:50 GMT 37.481644 29.389071 27,200 117 438 -2112
2018-10-20 00:33:44 GMT 37.488464 29.372707 27,450 117 440 -2176
2018-10-20 00:33:39 GMT 37.492081 29.363884 27,600 117 441 -2176
2018-10-20 00:33:33 GMT 37.497688 29.350334 28,025 117 442 -2176
2018-10-20 00:33:29 GMT 37.501144 29.342028 27,925 117 443 -2176
2018-10-20 00:33:21 GMT 37.510208 29.320055 28,275 117 445 -2176
2018-10-20 00:33:18 GMT 37.511234 29.317614 28,325 117 445 -2176
2018-10-20 00:33:12 GMT 37.516708 29.304394 28,650 117 447 -2176
2018-10-20 00:33:08 GMT 37.520966 29.294050 28,675 117 448 -2176
2018-10-20 00:33:02 GMT 37.528290 29.276228 28,950 117 450 -2176
2018-10-20 00:32:57 GMT 37.531357 29.268805 29,075 117 451 -2176
2018-10-20 00:32:50 GMT 37.539368 29.249405 29,300 117 452 -2240
2018-10-20 00:32:47 GMT 37.541199 29.244904 29,475 117 453 -2240
2018-10-20 00:32:39 GMT 37.550060 29.223394 29,800 117 455 -2240
2018-10-20 00:32:36 GMT 37.551727 29.219366 29,875 117 455 -2240
2018-10-20 00:32:29 GMT 37.559372 29.200666 30,050 117 457 -2176
2018-10-20 00:32:25 GMT 37.562069 29.194138 30,250 117 458 -2176
2018-10-20 00:32:20 GMT 37.569286 29.176462 30,525 117 460 -2176
2018-10-20 00:32:15 GMT 37.572033 29.169777 30,625 117 461 -2176
2018-10-20 00:32:08 GMT 37.578918 29.152981 30,875 117 463 -2176
2018-10-20 00:32:05 GMT 37.582031 29.145327 31,000 117 464 -2176
2018-10-20 00:31:58 GMT 37.590408 29.124813 31,325 117 465 -2304
2018-10-20 00:31:54 GMT 37.592743 29.119146 31,425 117 465 -2240
2018-10-20 00:31:49 GMT 37.597172 29.108397 31,575 117 465 -1856
2018-10-20 00:31:44 GMT 37.603043 29.094019 31,750 117 464 -1536
2018-10-20 00:31:39 GMT 37.607876 29.082245 31,875 117 463 -1216
2018-10-20 00:31:33 GMT 37.613277 29.068989 31,975 117 463 -960
2018-10-20 00:31:28 GMT 37.618118 29.057165 32,050 117 464 -960
2018-10-20 00:31:25 GMT 37.622726 29.045940 32,125 117 464 -896
2018-10-20 00:31:22 GMT 37.623779 29.043352 32,150 117 464 -896
2018-10-20 00:31:16 GMT 37.630096 29.027983 32,250 117 464 -896
2018-10-20 00:31:12 GMT 37.633854 29.018715 32,300 117 464 -960
2018-10-20 00:31:07 GMT 37.639938 29.003790 32,400 117 465 -960
2018-10-20 00:31:02 GMT 37.644150 28.993504 32,475 117 465 -960
2018-10-20 00:30:58 GMT 37.648331 28.983307 32,525 117 465 -960
2018-10-20 00:30:54 GMT 37.652527 28.972994 32,600 117 465 -896
2018-10-20 00:30:51 GMT 37.654816 28.967382 32,650 117 466 -896
2018-10-20 00:30:47 GMT 37.658844 28.957506 32,700 117 466 -896
2018-10-20 00:30:44 GMT 37.663692 28.945749 32,775 117 467 -896
2018-10-20 00:30:40 GMT 37.665161 28.942080 32,800 117 467 -960
2018-10-20 00:30:35 GMT 37.671280 28.927120 32,900 117 466 -960
2018-10-20 00:30:30 GMT 37.675507 28.916834 32,975 117 466 -960
2018-10-20 00:30:23 GMT 37.682034 28.900850 33,125 117 466 -960
2018-10-20 00:30:19 GMT 37.686081 28.891005 33,150 117 466 -960
2018-10-20 00:30:14 GMT 37.691986 28.876629 33,250 117 466 -896
2018-10-20 00:30:09 GMT 37.696426 28.865816 33,300 117 466 -896
2018-10-20 00:30:03 GMT 37.702286 28.851500 33,400 117 465 -896
2018-10-20 00:29:58 GMT 37.706726 28.840689 33,475 117 464 -896
2018-10-20 00:29:52 GMT 37.713692 28.823826 33,575 117 463 -960
2018-10-20 00:29:48 GMT 37.717041 28.815586 33,650 117 463 -960
2018-10-20 00:29:42 GMT 37.723114 28.800718 33,750 117 462 -960
2018-10-20 00:29:37 GMT 37.727463 28.790024 33,800 117 461 -960
2018-10-20 00:29:34 GMT 37.730576 28.782368 33,875 116 461 -960
2018-10-20 00:29:31 GMT 37.733276 28.775705 33,900 117 460 -896
2018-10-20 00:29:28 GMT 37.737015 28.766506 33,950 116 459 -896
2018-10-20 00:29:24 GMT 37.740459 28.757908 34,025 116 459 -896
2018-10-20 00:29:19 GMT 37.746002 28.744150 34,075 116 458 -896
2018-10-20 00:29:16 GMT 37.748093 28.738981 34,150 116 458 -896
2018-10-20 00:29:13 GMT 37.750763 28.732405 34,175 117 459 -896
2018-10-20 00:29:09 GMT 37.756531 28.718203 34,275 117 459 -960
2018-10-20 00:29:03 GMT 37.760651 28.708035 34,325 117 460 -960
2018-10-20 00:29:00 GMT 37.763550 28.700827 34,375 117 461 -960
2018-10-20 00:28:55 GMT 37.768715 28.688108 34,475 117 462 -896
2018-10-20 00:28:50 GMT 37.773514 28.676304 34,525 116 464 -896
2018-10-20 00:28:47 GMT 37.776993 28.667597 34,600 116 465 -960
2018-10-20 00:28:42 GMT 37.781193 28.657181 34,650 116 467 -960
2018-10-20 00:28:39 GMT 37.783890 28.650494 34,700 116 470 -960
2018-10-20 00:28:36 GMT 37.788116 28.640013 34,750 116 472 -960
2018-10-20 00:28:31 GMT 37.791504 28.631598 34,825 116 473 -1024
2018-10-20 00:28:28 GMT 37.794926 28.623205 34,875 116 474 -1024
2018-10-20 00:28:21 GMT 37.801304 28.607384 34,975 116 478 -448
2018-10-20 00:28:17 GMT 37.805771 28.596277 35,000 116 478 -128
2018-10-20 00:28:11 GMT 37.812424 28.579823 35,025 116 478 0
2018-10-20 00:28:07 GMT 37.815628 28.571875 35,025 116 478 0
2018-10-20 00:28:00 GMT 37.822861 28.553877 35,025 116 478 0
2018-10-20 00:27:57 GMT 37.825653 28.546864 35,025 116 478 0
2018-10-20 00:27:50 GMT 37.832886 28.528864 35,025 116 478 0
2018-10-20 00:27:46 GMT 37.837189 28.518169 35,025 116 478 0
2018-10-20 00:27:43 GMT 37.841431 28.507610 35,000 116 478 0
2018-10-20 00:27:39 GMT 37.843338 28.502834 35,000 116 478 0
2018-10-20 00:27:36 GMT 37.847214 28.493277 35,000 116 478 0
2018-10-20 00:27:33 GMT 37.850182 28.485817 35,000 116 478 0
2018-10-20 00:27:29 GMT 37.853622 28.477381 35,000 116 478 0
2018-10-20 00:27:23 GMT 37.860657 28.459845 35,000 116 478 0
2018-10-20 00:27:19 GMT 37.864105 28.451260 35,000 116 478 0
2018-10-20 00:27:16 GMT 37.867722 28.442318 35,000 116 478 0
2018-10-20 00:27:08 GMT 37.874542 28.425255 35,000 116 478 0
2018-10-20 00:27:05 GMT 37.877975 28.416721 35,000 116 478 0
2018-10-20 00:26:58 GMT 37.884583 28.400255 35,000 116 478 0
2018-10-20 00:26:54 GMT 37.888412 28.390717 35,000 116 478 0
2018-10-20 00:26:48 GMT 37.895187 28.373770 35,000 116 478 0
2018-10-20 00:26:44 GMT 37.899014 28.364191 35,000 116 478 0
2018-10-20 00:26:37 GMT 37.905811 28.347176 35,000 116 477 0
2018-10-20 00:26:34 GMT 37.908558 28.340307 35,000 116 477 0
2018-10-20 00:26:30 GMT 37.913498 28.328072 35,000 116 477 64
2018-10-20 00:26:27 GMT 37.916241 28.321201 35,000 116 477 0
2018-10-20 00:26:23 GMT 37.919861 28.312178 35,000 116 477 0
2018-10-20 00:26:17 GMT 37.926064 28.296721 35,000 116 477 64
2018-10-20 00:26:12 GMT 37.930252 28.286173 35,000 116 477 0
2018-10-20 00:26:09 GMT 37.933868 28.277115 35,000 116 477 0
2018-10-20 00:26:06 GMT 37.936615 28.270218 35,000 116 477 0
2018-10-20 00:26:02 GMT 37.940910 28.259583 34,975 116 477 0
2018-10-20 00:25:55 GMT 37.947876 28.242050 34,975 116 477 0
2018-10-20 00:25:51 GMT 37.951244 28.233608 34,975 116 477 -64
2018-10-20 00:25:45 GMT 37.957626 28.217566 35,000 116 476 -64
2018-10-20 00:25:41 GMT 37.961655 28.207514 34,975 116 476 0
2018-10-20 00:25:37 GMT 37.965027 28.199038 35,000 116 476 0
2018-10-20 00:25:34 GMT 37.968384 28.190567 35,000 116 476 0
2018-10-20 00:25:28 GMT 37.974522 28.175156 35,000 116 476 0
2018-10-20 00:25:24 GMT 37.978775 28.164503 35,000 116 476 0
2018-10-20 00:25:14 GMT 37.988617 28.139608 34,975 116 476 0
2018-10-20 00:25:06 GMT 37.996033 28.120968 35,000 116 476 0
2018-10-20 00:25:03 GMT 37.999382 28.112520 35,000 116 475 0
2018-10-20 00:25:00 GMT 38.002762 28.103962 35,000 116 475 0
2018-10-20 00:24:52 GMT 38.010136 28.085472 35,000 116 475 0
2018-10-20 00:24:48 GMT 38.014137 28.075323 35,000 116 475 0
2018-10-20 00:24:42 GMT 38.019836 28.061010 35,000 116 475 64
2018-10-20 00:24:39 GMT 38.024094 28.050375 34,975 116 475 0
2018-10-20 00:24:34 GMT 38.029083 28.037706 35,000 116 475 0
2018-10-20 00:24:30 GMT 38.032295 28.029764 35,000 116 476 0
2018-10-20 00:24:27 GMT 38.034622 28.023853 35,000 116 476 0
2018-10-20 00:24:20 GMT 38.041122 28.007423 34,975 116 476 0
2018-10-20 00:24:17 GMT 38.044117 27.999971 34,975 116 476 0
2018-10-20 00:24:11 GMT 38.050232 27.984514 34,975 116 476 0
2018-10-20 00:24:07 GMT 38.054871 27.972862 34,975 116 476 0
2018-10-20 00:24:02 GMT 38.060120 27.959621 34,975 116 476 0
2018-10-20 00:23:59 GMT 38.062088 27.954712 34,975 116 476 0
2018-10-20 00:23:56 GMT 38.065247 27.946764 34,975 116 476 0
2018-10-20 00:23:51 GMT 38.070652 27.932978 34,975 116 477 0
2018-10-20 00:23:45 GMT 38.076782 27.917486 34,975 116 477 0
2018-10-20 00:23:41 GMT 38.080105 27.908976 34,975 116 477 -64
2018-10-20 00:23:38 GMT 38.082642 27.902584 34,975 116 476 -64
2018-10-20 00:23:35 GMT 38.085594 27.895063 34,975 116 477 -64
2018-10-20 00:23:29 GMT 38.091415 27.880196 34,975 116 476 -64
2018-10-20 00:23:25 GMT 38.095642 27.869452 35,000 116 476 -64
2018-10-20 00:23:19 GMT 38.101501 27.854549 35,000 116 477 -64
2018-10-20 00:23:15 GMT 38.105705 27.843893 35,000 116 477 0
2018-10-20 00:23:08 GMT 38.112442 27.826792 35,000 116 477 0
2018-10-20 00:23:04 GMT 38.116425 27.816683 35,000 116 477 64
2018-10-20 00:22:58 GMT 38.122330 27.801781 35,000 116 477 0
2018-10-20 00:22:55 GMT 38.126560 27.791111 35,000 116 477 0
2018-10-20 00:22:48 GMT 38.132427 27.776184 35,000 116 477 0
2018-10-20 00:22:44 GMT 38.136433 27.766092 35,000 116 478 0
2018-10-20 00:22:37 GMT 38.142715 27.750032 35,000 116 478 0
2018-10-20 00:22:34 GMT 38.145721 27.742523 35,000 116 478 0
2018-10-20 00:22:31 GMT 38.148880 27.734518 35,000 116 478 0
2018-10-20 00:22:27 GMT 38.153095 27.723761 35,000 116 478 0
2018-10-20 00:22:23 GMT 38.156868 27.714148 35,000 116 478 0
2018-10-20 00:22:17 GMT 38.163025 27.698580 35,000 116 478 0
2018-10-20 00:22:13 GMT 38.167202 27.687876 34,975 116 478 64
2018-10-20 00:22:06 GMT 38.173904 27.670679 34,975 116 479 0
2018-10-20 00:22:03 GMT 38.177910 27.660528 34,975 116 479 0
2018-10-20 00:21:59 GMT 38.180611 27.653543 34,975 116 479 0
2018-10-20 00:21:56 GMT 38.183578 27.645985 34,975 116 480 -64
2018-10-20 00:21:51 GMT 38.188614 27.633070 34,975 116 480 -64
2018-10-20 00:21:46 GMT 38.194061 27.619032 35,000 116 480 -64
2018-10-20 00:21:42 GMT 38.197880 27.609299 35,000 116 480 -64
2018-10-20 00:21:35 GMT 38.204361 27.592630 35,000 116 481 -64
2018-10-20 00:21:31 GMT 38.208122 27.582968 35,000 116 480 -128
2018-10-20 00:21:24 GMT 38.215073 27.565165 35,025 116 481 -64
2018-10-20 00:21:20 GMT 38.218689 27.555990 35,025 116 481 -64
2018-10-20 00:21:14 GMT 38.224594 27.540913 35,025 116 481 -64
2018-10-20 00:21:11 GMT 38.228989 27.529575 35,025 116 481 0
2018-10-20 00:21:04 GMT 38.235306 27.513390 35,025 116 482 0
2018-10-20 00:20:59 GMT 38.239311 27.503138 35,025 116 482 0
2018-10-20 00:20:53 GMT 38.245644 27.486958 35,025 116 482 64
2018-10-20 00:20:49 GMT 38.249451 27.477158 35,025 116 482 0
2018-10-20 00:20:42 GMT 38.256397 27.459312 35,025 116 483 0
2018-10-20 00:20:38 GMT 38.260399 27.448923 35,025 116 483 0
2018-10-20 00:20:33 GMT 38.265656 27.435373 35,025 116 483 64
2018-10-20 00:20:29 GMT 38.269638 27.425089 35,025 116 483 0
2018-10-20 00:20:22 GMT 38.276413 27.407616 35,025 116 484 0
2018-10-20 00:20:19 GMT 38.280418 27.397335 35,025 116 484 0
2018-10-20 00:20:12 GMT 38.290558 27.371151 35,025 116 485 -64
2018-10-20 00:20:08 GMT 38.290558 27.371151 35,025 116 485 -64
2018-10-20 00:19:57 GMT 38.301361 27.343334 35,025 116 485 -64
2018-10-20 00:19:47 GMT 38.311142 27.318163 35,025 116 485 0
2018-10-20 00:19:36 GMT 38.321915 27.290274 35,025 116 485 64
2018-10-20 00:19:25 GMT 38.332882 27.261856 35,000 116 487 64
2018-10-20 00:19:14 GMT 38.343704 27.233938 35,000 116 487 64
2018-10-20 00:19:03 GMT 38.354343 27.206507 35,000 116 487 0
2018-10-20 00:18:52 GMT 38.365795 27.176832 35,000 116 487 -64
2018-10-20 00:18:45 GMT 38.373009 27.158203 35,000 116 487 -64
2018-10-20 00:18:41 GMT 38.376595 27.148890 35,000 116 487 64
2018-10-20 00:18:33 GMT 38.384880 27.127453 35,000 116 487 0
2018-10-20 00:18:23 GMT 38.394794 27.101719 35,000 115 488 0
2018-10-20 00:18:19 GMT 38.398178 27.092871 35,000 115 488 64
2018-10-20 00:18:12 GMT 38.405777 27.073059 35,000 115 487 64
2018-10-20 00:18:08 GMT 38.409760 27.062599 34,975 115 488 64
2018-10-20 00:18:01 GMT 38.416256 27.045532 34,975 115 488 0
2018-10-20 00:17:57 GMT 38.419701 27.036682 34,975 115 489 0
2018-10-20 00:17:51 GMT 38.425987 27.020142 34,975 115 489 0
2018-10-20 00:17:45 GMT 38.432144 27.004095 34,975 115 489 0
2018-10-20 00:17:40 GMT 38.437408 26.990362 34,975 115 489 0
2018-10-20 00:17:35 GMT 38.441582 26.979370 34,975 115 488 64
2018-10-20 00:17:30 GMT 38.447075 26.964966 34,975 115 488 64
2018-10-20 00:17:24 GMT 38.452942 26.949585 34,975 115 488 0
2018-10-20 00:17:19 GMT 38.457779 26.936865 34,975 115 488 64
2018-10-20 00:17:11 GMT 38.466522 26.913637 34,950 115 488 64
2018-10-20 00:17:08 GMT 38.468208 26.909119 34,950 115 488 64
2018-10-20 00:17:01 GMT 38.475658 26.889160 34,950 115 488 0
2018-10-20 00:16:58 GMT 38.478470 26.881454 34,950 115 488 -64
2018-10-20 00:16:50 GMT 38.488266 26.854647 34,950 114 489 0
2018-10-20 00:16:40 GMT 38.495861 26.834106 34,950 117 489 64
2018-10-20 00:16:37 GMT 38.497864 26.829224 34,950 117 489 64
2018-10-20 00:16:29 GMT 38.509033 26.805420 34,975 125 490 0
2018-10-20 00:16:16 GMT 38.526817 26.777039 34,950 133 493 -64
2018-10-20 00:16:05 GMT 38.544022 26.755890 34,975 138 493 0
2018-10-20 00:15:55 GMT 38.561188 26.736841 34,975 138 493 -64
2018-10-20 00:15:44 GMT 38.579910 26.716003 34,975 138 493 -64
2018-10-20 00:15:35 GMT 38.594971 26.699224 35,000 138 493 -64
2018-10-20 00:15:32 GMT 38.600510 26.693134 35,000 138 493 -64
2018-10-20 00:15:24 GMT 38.614838 26.677134 35,000 138 494 -128
2018-10-20 00:15:15 GMT 38.635757 26.653788 35,025 138 495 -64
2018-10-20 00:15:04 GMT 38.649017 26.638977 35,025 138 496 -64
2018-10-20 00:14:54 GMT 38.668121 26.617603 35,025 138 496 -64
2018-10-20 00:14:49 GMT 38.674763 26.610168 35,050 138 497 -64
2018-10-20 00:14:43 GMT 38.685883 26.597662 35,050 138 498 -64
2018-10-20 00:14:39 GMT 38.691753 26.591064 35,050 138 498 0
2018-10-20 00:14:30 GMT 38.707302 26.573669 35,050 138 498 0
2018-10-20 00:14:19 GMT 38.725780 26.553040 35,050 138 500 0
2018-10-20 00:14:09 GMT 38.743607 26.533056 35,050 138 501 64
2018-10-20 00:13:59 GMT 38.760792 26.513916 35,025 138 502 64
2018-10-20 00:13:51 GMT 38.777985 26.494783 35,025 139 503 0
2018-10-20 00:13:48 GMT 38.780994 26.491455 35,025 139 503 0
2018-10-20 00:13:37 GMT 38.799335 26.471069 35,025 138 503 0
2018-10-20 00:13:29 GMT 38.813736 26.454481 35,025 136 503 64
2018-10-20 00:13:22 GMT 38.828476 26.436390 35,025 135 504 0
2018-10-20 00:13:19 GMT 38.831268 26.432861 35,025 134 504 0
2018-10-20 00:13:09 GMT 38.848480 26.409880 35,025 132 503 0
2018-10-20 00:13:01 GMT 38.860474 26.392862 35,025 131 504 0
2018-10-20 00:12:58 GMT 38.864731 26.386652 35,000 131 504 0
2018-10-20 00:12:50 GMT 38.876221 26.369816 35,000 131 504 0
2018-10-20 00:12:47 GMT 38.881119 26.362650 35,000 131 504 0
2018-10-20 00:12:37 GMT 38.896862 26.339661 35,000 131 503 0
2018-10-20 00:12:27 GMT 38.913254 26.315659 35,000 131 503 0
2018-10-20 00:12:16 GMT 38.929031 26.292664 35,000 131 503 0
2018-10-20 00:12:06 GMT 38.945023 26.269205 35,000 131 503 0
2018-10-20 00:11:54 GMT 38.961731 26.244785 35,000 131 503 0
2018-10-20 00:11:41 GMT 38.982285 26.214539 35,000 131 503 64
2018-10-20 00:11:38 GMT 38.987221 26.207336 35,000 131 503 64
2018-10-20 00:11:33 GMT 38.994736 26.196302 35,000 131 504 0
2018-10-20 00:11:27 GMT 39.003185 26.183838 35,000 131 503 0
2018-10-20 00:11:24 GMT 39.009750 26.174255 35,000 131 503 0
2018-10-20 00:11:17 GMT 39.018875 26.160828 35,000 131 503 0
2018-10-20 00:11:10 GMT 39.029350 26.145447 35,000 131 503 0
2018-10-20 00:11:07 GMT 39.034561 26.137789 35,000 131 503 0
2018-10-20 00:11:02 GMT 39.041824 26.127136 35,000 131 503 64
2018-10-20 00:10:59 GMT 39.047012 26.119516 35,000 131 503 0
2018-10-20 00:10:52 GMT 39.057468 26.104126 35,000 131 502 0
2018-10-20 00:10:49 GMT 39.062355 26.096924 35,000 131 502 0
2018-10-20 00:10:42 GMT 39.074692 26.078735 35,000 131 502 0
2018-10-20 00:10:38 GMT 39.079285 26.071989 35,000 131 502 0
2018-10-20 00:10:34 GMT 39.084469 26.064331 35,000 131 502 0
2018-10-20 00:10:27 GMT 39.096199 26.046997 35,000 130 503 -64
2018-10-20 00:10:23 GMT 39.103683 26.035927 35,000 130 502 -64
2018-10-20 00:10:18 GMT 39.109558 26.027283 35,000 130 501 -64
2018-10-20 00:10:10 GMT 39.121216 26.010012 35,000 130 501 0
2018-10-20 00:10:07 GMT 39.127029 26.001474 35,000 130 501 0
2018-10-20 00:10:04 GMT 39.130371 25.996517 35,000 130 501 0
2018-10-20 00:10:00 GMT 39.137146 25.986486 35,000 130 501 0
2018-10-20 00:09:54 GMT 39.146255 25.972994 35,000 130 501 0
2018-10-20 00:09:50 GMT 39.154064 25.961487 35,025 130 501 0
2018-10-20 00:09:42 GMT 39.163792 25.947021 35,025 130 501 0
2018-10-20 00:09:39 GMT 39.169239 25.938965 35,000 130 501 0
2018-10-20 00:09:35 GMT 39.176037 25.928955 35,025 130 501 0
2018-10-20 00:09:32 GMT 39.178711 25.924988 35,025 130 501 0
2018-10-20 00:09:28 GMT 39.184525 25.916330 35,025 130 501 0
2018-10-20 00:09:23 GMT 39.192329 25.904785 35,025 130 501 0
2018-10-20 00:09:18 GMT 39.200756 25.892273 35,025 130 501 0
2018-10-20 00:09:13 GMT 39.207870 25.881699 35,025 130 501 0
2018-10-20 00:09:07 GMT 39.217327 25.867737 35,025 130 501 0
2018-10-20 00:09:03 GMT 39.225288 25.855896 35,025 130 501 0
2018-10-20 00:08:57 GMT 39.232590 25.845098 35,025 130 501 0
2018-10-20 00:08:52 GMT 39.239319 25.835068 35,025 130 501 0
2018-10-20 00:08:46 GMT 39.248428 25.821512 35,025 130 501 0
2018-10-20 00:08:41 GMT 39.257446 25.808079 35,025 130 501 0
2018-10-20 00:08:36 GMT 39.264580 25.797485 35,025 130 501 0
2018-10-20 00:08:32 GMT 39.270771 25.788330 35,025 130 501 0
2018-10-20 00:08:25 GMT 39.281158 25.772852 35,025 130 501 0
2018-10-20 00:08:21 GMT 39.287247 25.763716 35,025 130 501 0
2018-10-20 00:08:17 GMT 39.293674 25.754150 35,025 130 501 0
2018-10-20 00:08:14 GMT 39.297256 25.748779 35,025 130 501 0
2018-10-20 00:08:09 GMT 39.305054 25.737206 35,025 130 501 0
2018-10-20 00:08:03 GMT 39.314072 25.723711 35,025 130 501 0
2018-10-20 00:07:59 GMT 39.321743 25.712219 35,000 130 501 64
2018-10-20 00:07:55 GMT 39.328583 25.701977 35,000 130 501 64
2018-10-20 00:07:48 GMT 39.337006 25.689440 35,000 130 501 64
2018-10-20 00:07:44 GMT 39.343140 25.680304 35,000 130 501 64
2018-10-20 00:07:40 GMT 39.349045 25.671526 35,000 130 501 64
2018-10-20 00:07:34 GMT 39.359032 25.656555 35,000 130 501 0
2018-10-20 00:07:29 GMT 39.365433 25.646986 35,000 130 501 0
2018-10-20 00:07:23 GMT 39.375137 25.632477 35,000 130 501 0
2018-10-20 00:07:19 GMT 39.381317 25.623281 35,000 130 501 0
2018-10-20 00:07:12 GMT 39.391338 25.608337 35,000 130 501 0
2018-10-20 00:07:09 GMT 39.396469 25.600594 35,000 130 501 0
2018-10-20 00:07:06 GMT 39.400326 25.594849 35,000 130 501 0
2018-10-20 00:07:02 GMT 39.407120 25.584656 35,000 130 501 0
2018-10-20 00:06:57 GMT 39.413910 25.574560 34,975 130 500 64
2018-10-20 00:06:52 GMT 39.422577 25.561523 34,975 130 500 64
2018-10-20 00:06:48 GMT 39.428070 25.553284 34,975 130 500 64
2018-10-20 00:06:45 GMT 39.432587 25.546497 34,975 130 500 64
2018-10-20 00:06:42 GMT 39.438404 25.537781 34,975 130 500 64
2018-10-20 00:06:38 GMT 39.442547 25.531555 34,975 130 500 64
2018-10-20 00:06:35 GMT 39.447693 25.523808 34,975 130 500 0
2018-10-20 00:06:28 GMT 39.458282 25.507874 34,975 130 500 0
2018-10-20 00:06:21 GMT 39.470200 25.489929 34,975 130 500 -64
2018-10-20 00:06:16 GMT 39.476948 25.479797 34,975 130 499 0
2018-10-20 00:06:10 GMT 39.485596 25.466785 34,975 130 499 0
2018-10-20 00:06:03 GMT 39.495850 25.451382 34,975 130 499 -64
2018-10-20 00:05:59 GMT 39.501938 25.442186 34,975 130 499 0
2018-10-20 00:05:54 GMT 39.508987 25.431559 34,975 130 499 0
2018-10-20 00:05:49 GMT 39.517357 25.419006 34,975 130 499 0
2018-10-20 00:05:44 GMT 39.524689 25.407974 34,975 130 499 0
2018-10-20 00:05:38 GMT 39.533707 25.394360 34,975 130 499 0
2018-10-20 00:05:33 GMT 39.541031 25.383373 34,975 130 499 0
2018-10-20 00:05:23 GMT 39.555763 25.361084 34,975 130 498 0
2018-10-20 00:05:17 GMT 39.564747 25.347595 34,975 130 498 0
2018-10-20 00:05:14 GMT 39.570194 25.339355 34,975 130 499 -64
2018-10-20 00:05:07 GMT 39.580387 25.323914 34,975 130 498 -64
2018-10-20 00:05:02 GMT 39.588070 25.312317 34,975 130 498 -64
2018-10-20 00:04:56 GMT 39.596695 25.299246 34,975 130 499 -64
2018-10-20 00:04:51 GMT 39.603424 25.289095 35,000 130 498 -64
2018-10-20 00:04:46 GMT 39.611755 25.276497 35,000 130 499 -64
2018-10-20 00:04:41 GMT 39.618191 25.266785 35,000 130 499 -64
2018-10-20 00:04:36 GMT 39.627777 25.252258 35,000 130 500 -64
2018-10-20 00:04:33 GMT 39.631271 25.246948 35,000 130 500 -64
2018-10-20 00:04:24 GMT 39.650208 25.218340 35,000 130 500 0
2018-10-20 00:04:20 GMT 39.650208 25.218340 35,000 130 500 0
2018-10-20 00:04:15 GMT 39.659134 25.204786 35,000 130 500 0
2018-10-20 00:04:10 GMT 39.665581 25.195007 35,000 130 500 0
2018-10-20 00:04:02 GMT 39.678101 25.176086 35,000 130 501 64
2018-10-20 00:03:54 GMT 39.691322 25.156128 35,000 130 501 64
2018-10-20 00:03:49 GMT 39.696117 25.148804 35,000 130 502 0
2018-10-20 00:03:43 GMT 39.711548 25.125374 35,000 130 502 0
2018-10-20 00:03:39 GMT 39.711548 25.125374 35,000 130 502 0
2018-10-20 00:03:33 GMT 39.722443 25.108774 35,000 130 502 0
2018-10-20 00:03:26 GMT 39.732101 25.094088 35,000 130 502 -64
2018-10-20 00:03:19 GMT 39.742996 25.077429 35,000 130 502 0
2018-10-20 00:03:11 GMT 39.753609 25.061279 35,000 130 503 0
2018-10-20 00:03:08 GMT 39.759380 25.052429 35,000 130 503 0
2018-10-20 00:03:02 GMT 39.767483 25.040161 35,000 130 503 0
2018-10-20 00:02:58 GMT 39.773861 25.030396 35,000 130 504 0
2018-10-20 00:02:55 GMT 39.777721 25.024475 35,000 130 504 0
2018-10-20 00:02:51 GMT 39.785202 25.013182 35,000 130 505 0
2018-10-20 00:02:47 GMT 39.796783 24.995449 35,025 130 505 -64
2018-10-20 00:02:39 GMT 39.803795 24.984741 35,025 130 505 0
2018-10-20 00:02:36 GMT 39.806770 24.980225 35,025 130 505 0
2018-10-20 00:02:33 GMT 39.811295 24.973297 35,025 130 505 0
2018-10-20 00:02:29 GMT 39.817108 24.964401 35,025 130 505 0
2018-10-20 00:02:26 GMT 39.821320 24.957952 35,025 130 505 0
2018-10-20 00:02:22 GMT 39.828049 24.947681 35,025 130 505 0
2018-10-20 00:02:19 GMT 39.832901 24.940277 35,025 130 505 0
2018-10-20 00:02:16 GMT 39.837112 24.933830 35,025 130 505 0
2018-10-20 00:02:08 GMT 39.849739 24.914551 35,025 130 506 0
2018-10-20 00:02:05 GMT 39.853230 24.909180 35,025 130 506 0
2018-10-20 00:01:58 GMT 39.864868 24.891418 35,025 130 506 0
2018-10-20 00:01:55 GMT 39.869152 24.884888 35,025 130 506 0
2018-10-20 00:01:45 GMT 39.884655 24.861145 35,025 130 507 64
2018-10-20 00:01:37 GMT 39.900192 24.837341 35,000 130 507 0
2018-10-20 00:01:27 GMT 39.913795 24.816467 35,000 130 508 64
2018-10-20 00:01:18 GMT 39.926376 24.797119 35,000 130 508 64
2018-10-20 00:01:15 GMT 39.929901 24.791687 35,000 130 508 64
2018-10-20 00:01:10 GMT 39.937363 24.780212 35,000 130 508 64
2018-10-20 00:01:04 GMT 39.946381 24.766357 35,000 130 508 64
2018-10-20 00:00:58 GMT 39.954803 24.753357 35,000 130 508 0
2018-10-20 00:00:55 GMT 39.961624 24.742920 35,000 130 508 0
2018-10-20 00:00:48 GMT 39.970688 24.729004 35,000 130 508 0
2018-10-20 00:00:44 GMT 39.976547 24.719971 35,000 130 508 -64
2018-10-20 00:00:34 GMT 39.993355 24.694082 35,000 130 508 0
2018-10-20 00:00:25 GMT 40.006302 24.674194 35,000 130 508 0
2018-10-20 00:00:17 GMT 40.018211 24.655754 35,000 130 508 0
2018-10-20 00:00:12 GMT 40.025009 24.645267 35,000 130 508 -64
2018-10-20 00:00:06 GMT 40.034088 24.631224 35,000 130 508 0
2018-10-20 00:00:02 GMT 40.040863 24.620789 35,000 130 508 0
2018-10-19 23:59:56 GMT 40.049587 24.607315 35,000 130 508 0
2018-10-19 23:59:52 GMT 40.057297 24.595337 35,000 130 508 0
2018-10-19 23:59:45 GMT 40.065674 24.582397 35,000 130 508 -64
2018-10-19 23:59:40 GMT 40.073421 24.570423 35,025 130 508 0
2018-10-19 23:59:35 GMT 40.081150 24.558376 35,025 130 508 0
2018-10-19 23:59:30 GMT 40.088924 24.546391 35,025 130 508 -64
2018-10-19 23:59:20 GMT 40.105728 24.520386 35,025 130 508 -64
2018-10-19 23:59:15 GMT 40.112183 24.510315 35,025 130 508 0
2018-10-19 23:59:11 GMT 40.118858 24.500011 35,025 130 508 0
2018-10-19 23:59:08 GMT 40.121792 24.495392 35,025 130 508 0
2018-10-19 23:59:01 GMT 40.132450 24.478912 35,025 129 508 0
2018-10-19 23:58:57 GMT 40.138596 24.469299 35,025 129 508 64
2018-10-19 23:58:54 GMT 40.143723 24.461365 35,025 129 508 64
2018-10-19 23:58:47 GMT 40.154068 24.445251 35,025 129 508 64
2018-10-19 23:58:43 GMT 40.159172 24.437277 35,000 129 508 64
2018-10-19 23:58:38 GMT 40.166901 24.425228 35,000 129 508 0
2018-10-19 23:58:33 GMT 40.175282 24.412184 35,000 129 509 -64
2018-10-19 23:58:25 GMT 40.187477 24.393145 35,025 129 508 0
2018-10-19 23:58:17 GMT 40.199394 24.374479 35,025 129 508 0
2018-10-19 23:58:12 GMT 40.206436 24.363464 35,025 129 507 0
2018-10-19 23:58:06 GMT 40.215408 24.349426 35,025 129 507 0
2018-10-19 23:58:02 GMT 40.222137 24.338867 35,000 129 507 64
2018-10-19 23:57:54 GMT 40.234039 24.320251 35,000 129 507 64
2018-10-19 23:57:51 GMT 40.239429 24.311871 35,000 129 507 64
2018-10-19 23:57:45 GMT 40.247154 24.299761 35,000 129 507 0
2018-10-19 23:57:41 GMT 40.252975 24.290709 35,000 130 507 64
2018-10-19 23:57:33 GMT 40.267181 24.268738 35,000 130 507 0
2018-10-19 23:57:30 GMT 40.269791 24.264709 35,000 130 507 0
2018-10-19 23:57:22 GMT 40.287704 24.236839 35,000 129 507 64
2018-10-19 23:57:11 GMT 40.298363 24.220234 35,000 129 506 0
2018-10-19 23:57:08 GMT 40.302887 24.213196 35,000 129 506 0
2018-10-19 23:57:01 GMT 40.314377 24.195129 35,000 129 506 0
2018-10-19 23:56:57 GMT 40.319870 24.186588 35,000 129 506 0
2018-10-19 23:56:54 GMT 40.324665 24.179098 35,000 129 506 -64
2018-10-19 23:56:50 GMT 40.330444 24.170105 35,000 129 506 -64
2018-10-19 23:56:47 GMT 40.336075 24.161255 35,000 129 505 -64
2018-10-19 23:56:43 GMT 40.340305 24.154566 35,000 129 505 -64
2018-10-19 23:56:39 GMT 40.346695 24.144531 35,000 129 505 -64
2018-10-19 23:56:33 GMT 40.355297 24.130970 35,025 129 505 -64
2018-10-19 23:56:28 GMT 40.362671 24.119446 35,000 129 505 0
2018-10-19 23:56:24 GMT 40.369949 24.107971 35,025 129 504 0
2018-10-19 23:56:18 GMT 40.378235 24.094910 35,025 129 504 -64
2018-10-19 23:56:14 GMT 40.383591 24.086426 35,025 129 504 0
2018-10-19 23:56:10 GMT 40.389977 24.076412 35,025 129 504 0
2018-10-19 23:56:07 GMT 40.393799 24.070374 35,025 129 504 0
2018-10-19 23:56:02 GMT 40.401443 24.058350 35,025 129 504 0
2018-10-19 23:55:59 GMT 40.407436 24.048946 35,025 129 504 0
2018-10-19 23:55:53 GMT 40.416096 24.035339 35,025 129 504 64
2018-10-19 23:55:47 GMT 40.425034 24.021294 35,025 129 504 64
2018-10-19 23:55:42 GMT 40.431976 24.010315 35,000 129 504 64
2018-10-19 23:55:39 GMT 40.436485 24.003254 35,000 129 504 64
2018-10-19 23:55:36 GMT 40.442184 23.994202 35,000 129 504 64
2018-10-19 23:55:32 GMT 40.446304 23.987732 35,000 129 504 64
2018-10-19 23:55:28 GMT 40.452347 23.978210 35,000 129 504 64
2018-10-19 23:55:22 GMT 40.461575 23.963678 35,000 129 504 0
2018-10-19 23:55:18 GMT 40.467583 23.954189 35,000 129 504 0
2018-10-19 23:55:14 GMT 40.472443 23.946533 35,000 129 504 0
2018-10-19 23:55:11 GMT 40.479263 23.935730 35,000 129 504 0
2018-10-19 23:55:08 GMT 40.482246 23.931032 35,000 129 504 -64
2018-10-19 23:55:04 GMT 40.488297 23.921543 35,000 129 504 0
2018-10-19 23:55:01 GMT 40.492767 23.914490 35,000 129 504 -64
2018-10-19 23:54:58 GMT 40.497841 23.906500 35,000 129 503 0
2018-10-19 23:54:54 GMT 40.504807 23.895569 35,000 129 503 0
2018-10-19 23:54:50 GMT 40.508972 23.888977 35,000 129 504 0
2018-10-19 23:54:47 GMT 40.513344 23.882030 35,000 129 503 -64
2018-10-19 23:54:40 GMT 40.524490 23.864441 35,025 129 503 0
2018-10-19 23:54:37 GMT 40.528938 23.857372 35,000 129 502 0
2018-10-19 23:54:32 GMT 40.535873 23.846388 35,000 129 502 0
2018-10-19 23:54:29 GMT 40.539970 23.839956 35,000 129 502 0
2018-10-19 23:54:26 GMT 40.544113 23.833342 35,000 129 502 0
2018-10-19 23:54:19 GMT 40.555161 23.815918 35,000 129 502 0
2018-10-19 23:54:16 GMT 40.559280 23.809326 35,000 129 502 0
2018-10-19 23:54:09 GMT 40.570320 23.791830 35,000 129 502 0
2018-10-19 23:54:06 GMT 40.574753 23.784790 35,000 129 502 0
2018-10-19 23:53:58 GMT 40.585510 23.767822 35,000 129 502 0
2018-10-19 23:53:55 GMT 40.590225 23.760315 35,025 129 502 0
2018-10-19 23:53:51 GMT 40.598347 23.747448 35,000 129 502 0
2018-10-19 23:53:48 GMT 40.601303 23.742737 35,000 129 502 0
2018-10-19 23:53:45 GMT 40.605423 23.736275 35,000 129 502 0
2018-10-19 23:53:41 GMT 40.612015 23.725769 35,000 129 501 0
2018-10-19 23:53:35 GMT 40.621994 23.709869 35,025 129 502 0
2018-10-19 23:53:31 GMT 40.626556 23.702627 35,025 129 501 0
2018-10-19 23:53:27 GMT 40.631863 23.694139 35,025 129 501 0
2018-10-19 23:53:24 GMT 40.636276 23.687134 35,025 129 502 0
2018-10-19 23:53:21 GMT 40.641266 23.679094 35,025 129 501 64
2018-10-19 23:53:17 GMT 40.647274 23.669481 35,000 129 500 64
2018-10-19 23:53:10 GMT 40.657333 23.653442 35,000 129 500 64
2018-10-19 23:53:05 GMT 40.663879 23.643005 35,000 129 501 64
2018-10-19 23:53:01 GMT 40.669571 23.633965 35,000 129 501 64
2018-10-19 23:52:55 GMT 40.678665 23.619385 35,000 129 500 0
2018-10-19 23:52:50 GMT 40.687168 23.605810 35,000 129 500 0
2018-10-19 23:52:45 GMT 40.693081 23.596323 34,975 129 500 64
2018-10-19 23:52:41 GMT 40.701553 23.582764 34,975 129 501 64
2018-10-19 23:52:35 GMT 40.708786 23.571167 34,975 129 501 64
2018-10-19 23:52:29 GMT 40.717892 23.556561 34,975 129 500 64
2018-10-19 23:52:24 GMT 40.725082 23.545105 34,975 129 500 64
2018-10-19 23:52:20 GMT 40.730438 23.536499 34,975 129 501 64
2018-10-19 23:52:14 GMT 40.738888 23.522915 34,975 129 500 0
2018-10-19 23:52:10 GMT 40.745453 23.512365 34,975 129 500 64
2018-10-19 23:52:07 GMT 40.751083 23.503357 34,975 129 500 64
2018-10-19 23:52:03 GMT 40.755157 23.496887 34,975 129 500 64
2018-10-19 23:52:00 GMT 40.760815 23.487833 34,975 129 500 64
2018-10-19 23:51:56 GMT 40.765182 23.480774 34,950 129 500 64
2018-10-19 23:51:47 GMT 40.779945 23.457184 34,950 129 500 64
2018-10-19 23:51:40 GMT 40.795307 23.432652 34,950 129 500 64
2018-10-19 23:51:36 GMT 40.795307 23.432652 34,950 129 499 0
2018-10-19 23:51:29 GMT 40.805923 23.415611 34,950 129 500 0
2018-10-19 23:51:26 GMT 40.810623 23.408056 34,950 129 500 0
2018-10-19 23:51:19 GMT 40.819981 23.393015 34,950 129 500 0
2018-10-19 23:51:16 GMT 40.825989 23.383402 34,950 129 500 0
2018-10-19 23:51:05 GMT 40.840652 23.359867 34,950 129 500 -64
2018-10-19 23:50:58 GMT 40.850941 23.343264 34,975 129 499 -64
2018-10-19 23:50:54 GMT 40.856247 23.334711 34,975 129 499 -64
2018-10-19 23:50:48 GMT 40.865341 23.320068 34,975 129 499 -64
2018-10-19 23:50:45 GMT 40.871513 23.310118 34,975 129 498 -64
2018-10-19 23:50:34 GMT 40.886444 23.285889 34,975 129 499 -64
2018-10-19 23:50:28 GMT 40.896095 23.270229 35,000 129 499 0
2018-10-19 23:50:23 GMT 40.901962 23.260681 35,000 129 499 0
2018-10-19 23:50:18 GMT 40.909698 23.248108 35,000 129 499 0
2018-10-19 23:50:13 GMT 40.916611 23.236938 35,000 129 499 -64
2018-10-19 23:50:08 GMT 40.923706 23.225403 35,000 129 500 0
2018-10-19 23:50:03 GMT 40.931213 23.213257 35,000 129 500 -64
2018-10-19 23:49:58 GMT 40.938766 23.201050 35,000 129 501 0
2018-10-19 23:49:52 GMT 40.947487 23.186895 35,000 129 501 0
2018-10-19 23:49:48 GMT 40.953415 23.177368 35,000 129 501 0
2018-10-19 23:49:43 GMT 40.959961 23.166748 35,000 129 501 0
2018-10-19 23:49:37 GMT 40.969646 23.151066 35,000 129 502 -64
2018-10-19 23:49:31 GMT 40.977795 23.137831 35,000 129 503 0
2018-10-19 23:49:27 GMT 40.983753 23.128218 35,000 129 503 0
2018-10-19 23:49:22 GMT 40.990402 23.117493 35,025 129 503 0
2018-10-19 23:49:17 GMT 40.998230 23.104797 35,025 129 503 64
2018-10-19 23:49:12 GMT 41.006050 23.092138 35,025 129 503 -64
2018-10-19 23:49:07 GMT 41.013313 23.080402 35,025 129 503 -64
2018-10-19 23:49:01 GMT 41.021759 23.066650 35,025 129 504 -64
2018-10-19 23:48:54 GMT 41.033386 23.047791 35,025 129 505 0
2018-10-19 23:48:51 GMT 41.036499 23.042725 35,025 129 505 -64
2018-10-19 23:48:43 GMT 41.049717 23.021290 35,050 129 505 -64
2018-10-19 23:48:40 GMT 41.053207 23.015671 35,050 129 505 -64
2018-10-19 23:48:37 GMT 41.058243 23.007507 35,050 129 506 64
2018-10-19 23:48:30 GMT 41.068012 22.991575 35,050 129 506 0
2018-10-19 23:48:27 GMT 41.073029 22.983398 35,050 128 506 0
2018-10-19 23:48:19 GMT 41.084072 22.965422 35,050 128 506 0
2018-10-19 23:48:08 GMT 41.100410 22.938704 35,025 128 507 64
2018-10-19 23:47:58 GMT 41.115555 22.913940 35,025 129 508 0
2018-10-19 23:47:53 GMT 41.121872 22.903561 35,025 128 509 0
2018-10-19 23:47:47 GMT 41.131927 22.887142 35,025 128 509 0
2018-10-19 23:47:39 GMT 41.143295 22.868530 35,050 128 509 64
2018-10-19 23:47:36 GMT 41.148010 22.860779 35,025 128 509 0
2018-10-19 23:47:28 GMT 41.159069 22.842636 35,025 128 509 0
2018-10-19 23:47:25 GMT 41.164764 22.833313 35,025 128 509 0
2018-10-19 23:47:19 GMT 41.180202 22.807993 35,025 128 509 0
2018-10-19 23:47:14 GMT 41.180202 22.807993 35,025 128 509 0
2018-10-19 23:47:08 GMT 41.189392 22.792969 35,025 128 509 64
2018-10-19 23:47:04 GMT 41.195705 22.782585 35,025 129 509 64
2018-10-19 23:46:58 GMT 41.204548 22.768105 35,025 129 509 64
2018-10-19 23:46:53 GMT 41.211857 22.756182 35,000 129 509 64
2018-10-19 23:46:48 GMT 41.219742 22.743286 35,000 129 509 64
2018-10-19 23:46:45 GMT 41.223541 22.737080 35,000 129 510 64
2018-10-19 23:46:42 GMT 41.227638 22.730400 35,000 129 510 64
2018-10-19 23:46:35 GMT 41.238144 22.713318 35,000 129 509 64
2018-10-19 23:46:31 GMT 41.243282 22.704994 35,000 129 509 0
2018-10-19 23:46:26 GMT 41.252472 22.690125 35,000 129 510 0
2018-10-19 23:46:21 GMT 41.259842 22.678284 35,000 129 509 0
2018-10-19 23:46:15 GMT 41.268513 22.664419 35,000 129 509 0
2018-10-19 23:46:10 GMT 41.275909 22.652588 35,000 129 509 0
2018-10-19 23:46:05 GMT 41.284618 22.638826 35,000 129 509 0
2018-10-19 23:45:59 GMT 41.291973 22.627092 35,000 129 509 0
2018-10-19 23:45:54 GMT 41.299702 22.614857 35,000 129 508 0
2018-10-19 23:45:48 GMT 41.308044 22.601440 35,000 129 509 0
2018-10-19 23:45:44 GMT 41.314453 22.591187 35,000 129 508 0
2018-10-19 23:45:38 GMT 41.323288 22.576721 35,000 128 508 0
2018-10-19 23:45:34 GMT 41.329193 22.566833 35,000 128 509 64
2018-10-19 23:45:28 GMT 41.338154 22.551561 34,975 127 509 64
2018-10-19 23:45:24 GMT 41.343567 22.541992 34,975 125 509 0
2018-10-19 23:45:17 GMT 41.353329 22.524220 34,975 125 509 64
2018-10-19 23:45:13 GMT 41.359241 22.513357 34,975 125 509 0
2018-10-19 23:45:07 GMT 41.367462 22.498291 34,975 125 508 0
2018-10-19 23:45:04 GMT 41.371857 22.490173 34,975 125 508 0
2018-10-19 23:44:56 GMT 41.382660 22.470154 34,975 125 508 -64
2018-10-19 23:44:53 GMT 41.386505 22.463074 34,975 125 508 -64
2018-10-19 23:44:46 GMT 41.396393 22.444695 35,000 125 508 -64
2018-10-19 23:44:43 GMT 41.399883 22.438234 35,000 125 508 -64
2018-10-19 23:44:33 GMT 41.414173 22.411791 35,000 125 507 -64
2018-10-19 23:44:23 GMT 41.428162 22.385830 35,000 125 506 0
2018-10-19 23:44:13 GMT 41.442150 22.359924 35,000 125 506 0
2018-10-19 23:44:04 GMT 41.454674 22.336674 35,000 125 506 0
2018-10-19 23:43:51 GMT 41.470642 22.306990 35,000 125 506 -64
2018-10-19 23:43:41 GMT 41.485725 22.278933 35,000 125 506 -64
2018-10-19 23:43:31 GMT 41.498760 22.254660 35,025 125 505 -64
2018-10-19 23:43:27 GMT 41.503738 22.245441 35,025 125 505 -64
2018-10-19 23:43:19 GMT 41.514446 22.225533 35,025 125 506 -64
2018-10-19 23:43:16 GMT 41.518524 22.217915 35,025 125 506 -64
2018-10-19 23:43:11 GMT 41.526627 22.202806 35,050 125 505 -64
2018-10-19 23:43:08 GMT 41.529282 22.197876 35,050 125 505 -64
2018-10-19 23:43:05 GMT 41.533581 22.189829 35,050 125 505 -64
2018-10-19 23:42:58 GMT 41.542831 22.172533 35,050 125 505 0
2018-10-19 23:42:55 GMT 41.547775 22.163294 35,050 125 505 0
2018-10-19 23:42:50 GMT 41.554367 22.150934 35,050 125 505 64
2018-10-19 23:42:46 GMT 41.559883 22.140581 35,025 125 505 0
2018-10-19 23:42:39 GMT 41.568214 22.124931 35,025 125 505 0
2018-10-19 23:42:36 GMT 41.572872 22.116180 35,025 125 505 0
2018-10-19 23:42:29 GMT 41.582088 22.098934 35,025 125 505 0
2018-10-19 23:42:25 GMT 41.587627 22.088589 35,025 125 505 64
2018-10-19 23:42:17 GMT 41.598568 22.068085 35,025 125 505 64
2018-10-19 23:42:13 GMT 41.604126 22.057674 35,025 125 505 64
2018-10-19 23:42:09 GMT 41.609833 22.046942 35,025 125 505 64
2018-10-19 23:42:04 GMT 41.616257 22.034933 35,025 125 505 64
2018-10-19 23:41:59 GMT 41.624313 22.019848 35,000 125 505 128
2018-10-19 23:41:53 GMT 41.630676 22.007925 35,000 125 505 64
2018-10-19 23:41:48 GMT 41.637680 21.994879 35,000 125 505 64
2018-10-19 23:41:42 GMT 41.646282 21.978724 35,000 125 505 64
2018-10-19 23:41:38 GMT 41.651779 21.968349 34,975 125 505 64
2018-10-19 23:41:32 GMT 41.659599 21.953751 34,975 125 504 0
2018-10-19 23:41:27 GMT 41.665649 21.942316 34,975 125 504 0
2018-10-19 23:41:23 GMT 41.672215 21.929926 34,975 125 504 0
2018-10-19 23:41:17 GMT 41.679977 21.915354 34,975 125 504 0
2018-10-19 23:41:13 GMT 41.685482 21.904949 34,975 125 504 0
2018-10-19 23:41:10 GMT 41.688927 21.898499 34,975 125 504 64
2018-10-19 23:41:06 GMT 41.694397 21.888262 34,975 125 504 64
2018-10-19 23:41:01 GMT 41.701035 21.875776 34,975 125 503 64
2018-10-19 23:40:57 GMT 41.707306 21.863916 34,975 125 503 64
2018-10-19 23:40:49 GMT 41.718246 21.843317 34,950 125 503 64
2018-10-19 23:40:46 GMT 41.721653 21.836861 34,950 125 503 0
2018-10-19 23:40:39 GMT 41.730515 21.820095 34,950 125 503 0
2018-10-19 23:40:36 GMT 41.735413 21.810858 34,975 125 503 0
2018-10-19 23:40:30 GMT 41.742828 21.796875 34,975 125 503 -64
2018-10-19 23:40:26 GMT 41.749420 21.784391 34,975 125 503 -64
2018-10-19 23:40:18 GMT 41.759125 21.766024 34,975 125 502 -64
2018-10-19 23:40:15 GMT 41.763409 21.757912 34,975 125 502 -64
2018-10-19 23:40:08 GMT 41.772579 21.740602 34,975 125 501 0
2018-10-19 23:40:05 GMT 41.776817 21.732491 34,975 125 501 -64
2018-10-19 23:39:58 GMT 41.786224 21.714664 34,975 125 501 0
2018-10-19 23:39:55 GMT 41.790783 21.706045 34,975 125 501 -64
2018-10-19 23:39:50 GMT 41.797066 21.694101 34,975 125 501 0
2018-10-19 23:39:47 GMT 41.801022 21.686565 34,975 125 501 0
2018-10-19 23:39:44 GMT 41.804443 21.680082 34,975 125 501 0
2018-10-19 23:39:34 GMT 41.818108 21.654118 34,975 125 501 -64
2018-10-19 23:39:26 GMT 41.828384 21.634640 34,975 125 501 -64
2018-10-19 23:39:23 GMT 41.831795 21.628183 34,975 125 501 -64
2018-10-19 23:39:17 GMT 41.840919 21.610874 35,000 125 501 -64
2018-10-19 23:39:13 GMT 41.845806 21.601612 35,000 125 501 -64
2018-10-19 23:39:06 GMT 41.855713 21.582766 35,000 125 501 -64
2018-10-19 23:39:03 GMT 41.859467 21.575649 35,000 125 501 0
2018-10-19 23:38:58 GMT 41.865692 21.563789 35,000 125 501 0
2018-10-19 23:38:53 GMT 41.873383 21.549183 35,025 125 501 0
2018-10-19 23:38:46 GMT 41.882164 21.532436 35,000 125 501 0
2018-10-19 23:38:42 GMT 41.887890 21.521578 35,025 125 501 0
2018-10-19 23:38:36 GMT 41.895584 21.506987 35,025 125 501 -64
2018-10-19 23:38:31 GMT 41.901581 21.495625 35,025 125 501 -64
2018-10-19 23:38:25 GMT 41.909500 21.480455 35,025 125 501 -64
2018-10-19 23:38:21 GMT 41.914948 21.470095 35,025 124 501 -64
2018-10-19 23:38:15 GMT 41.923130 21.454384 35,025 124 502 0
2018-10-19 23:38:12 GMT 41.928532 21.443972 35,025 124 501 64
2018-10-19 23:38:05 GMT 41.936443 21.428833 35,025 124 501 0
2018-10-19 23:38:01 GMT 41.941864 21.418407 35,025 125 501 64
2018-10-19 23:37:54 GMT 41.950378 21.402117 35,025 125 501 64
2018-10-19 23:37:49 GMT 41.958572 21.386448 35,025 124 502 64
2018-10-19 23:37:45 GMT 41.962830 21.378271 35,000 124 502 64
2018-10-19 23:37:42 GMT 41.967400 21.369558 35,000 124 502 64
2018-10-19 23:37:38 GMT 41.972523 21.359785 35,000 125 503 64
2018-10-19 23:37:34 GMT 41.977615 21.349995 35,000 125 503 64
2018-10-19 23:37:30 GMT 41.983322 21.339025 35,000 124 504 64
2018-10-19 23:37:27 GMT 41.987045 21.332001 35,000 124 504 64
2018-10-19 23:37:24 GMT 41.991028 21.324276 35,000 124 504 64
2018-10-19 23:37:20 GMT 41.997025 21.312853 34,975 124 504 0
2018-10-19 23:37:14 GMT 42.004738 21.298082 34,975 124 504 0
2018-10-19 23:37:09 GMT 42.010712 21.286573 34,975 124 504 0
2018-10-19 23:37:04 GMT 42.018143 21.272343 35,000 124 504 -64
2018-10-19 23:36:59 GMT 42.024380 21.260332 35,000 124 504 -64
2018-10-19 23:36:56 GMT 42.028931 21.251616 35,000 124 504 0
2018-10-19 23:36:53 GMT 42.032684 21.244436 35,000 124 504 0
2018-10-19 23:36:49 GMT 42.038635 21.232952 35,000 124 504 -64
2018-10-19 23:36:43 GMT 42.045750 21.219326 35,000 124 504 0
2018-10-19 23:36:38 GMT 42.052597 21.206173 35,000 124 504 0
2018-10-19 23:36:33 GMT 42.059669 21.192499 35,000 124 504 64
2018-10-19 23:36:28 GMT 42.065952 21.180363 35,000 124 504 0
2018-10-19 23:36:23 GMT 42.073334 21.166222 35,000 124 504 0
2018-10-19 23:36:18 GMT 42.079918 21.153536 35,000 124 504 0
2018-10-19 23:36:13 GMT 42.086746 21.140379 35,000 124 504 64
2018-10-19 23:36:07 GMT 42.093277 21.127731 35,000 124 504 64
2018-10-19 23:36:02 GMT 42.100636 21.113550 34,975 124 504 64
2018-10-19 23:35:58 GMT 42.106934 21.101427 34,975 124 505 0
2018-10-19 23:35:52 GMT 42.114040 21.087683 34,975 124 505 0
2018-10-19 23:35:47 GMT 42.120850 21.074524 34,975 124 505 0
2018-10-19 23:35:42 GMT 42.127670 21.061354 34,975 124 505 64
2018-10-19 23:35:37 GMT 42.134243 21.048655 34,975 124 505 64
2018-10-19 23:35:31 GMT 42.141586 21.034449 34,975 124 505 64
2018-10-19 23:35:27 GMT 42.148407 21.021215 34,975 124 505 0
2018-10-19 23:35:21 GMT 42.155518 21.007393 34,975 124 505 -64
2018-10-19 23:35:16 GMT 42.162037 20.994745 34,975 124 505 -64
2018-10-19 23:35:10 GMT 42.169144 20.980890 34,975 124 506 -64
2018-10-19 23:35:05 GMT 42.176514 20.966471 35,000 124 505 0
2018-10-19 23:35:00 GMT 42.183517 20.952677 34,975 124 505 0
2018-10-19 23:34:56 GMT 42.190292 20.939442 34,975 124 505 64
2018-10-19 23:34:50 GMT 42.197044 20.926146 34,975 124 506 0
2018-10-19 23:34:45 GMT 42.202816 20.915285 34,975 126 506 -64
2018-10-19 23:34:37 GMT 42.215103 20.894016 34,975 128 506 -64
2018-10-19 23:34:32 GMT 42.221191 20.884260 34,975 130 506 -64
2018-10-19 23:34:29 GMT 42.227024 20.875109 35,000 130 506 -64
2018-10-19 23:34:23 GMT 42.236099 20.860802 35,000 130 506 0
2018-10-19 23:34:18 GMT 42.243595 20.849049 35,000 130 506 0
2018-10-19 23:34:14 GMT 42.249741 20.839403 35,000 130 506 0
2018-10-19 23:34:08 GMT 42.258499 20.825584 35,000 130 506 -64
2018-10-19 23:34:01 GMT 42.269897 20.807732 35,000 130 506 0
2018-10-19 23:33:54 GMT 42.281303 20.789774 35,000 130 506 -64
2018-10-19 23:33:48 GMT 42.289680 20.776552 35,025 130 506 -64
2018-10-19 23:33:42 GMT 42.298435 20.762754 35,025 130 506 0
2018-10-19 23:33:37 GMT 42.305283 20.751987 35,025 130 507 0
2018-10-19 23:33:32 GMT 42.313469 20.739122 35,025 130 507 0
2018-10-19 23:33:27 GMT 42.321259 20.726831 35,025 130 507 0
2018-10-19 23:33:23 GMT 42.329086 20.714535 35,025 130 507 0
2018-10-19 23:33:20 GMT 42.332291 20.709415 35,025 130 507 0
2018-10-19 23:33:17 GMT 42.336235 20.703287 35,025 130 507 0
2018-10-19 23:33:12 GMT 42.344009 20.690962 35,025 130 507 0
2018-10-19 23:33:07 GMT 42.352154 20.678186 35,025 130 508 0
2018-10-19 23:33:02 GMT 42.359978 20.665857 35,025 130 508 0
2018-10-19 23:32:57 GMT 42.367191 20.654488 35,025 130 508 0
2018-10-19 23:32:52 GMT 42.375595 20.641127 35,025 130 508 0
2018-10-19 23:32:46 GMT 42.383114 20.629257 35,025 130 509 0
2018-10-19 23:32:41 GMT 42.391212 20.616421 35,025 130 509 0
2018-10-19 23:32:35 GMT 42.399994 20.602486 35,025 130 509 0
2018-10-19 23:32:31 GMT 42.406853 20.591637 35,025 130 510 0
2018-10-19 23:32:25 GMT 42.415977 20.577072 35,025 130 510 0
2018-10-19 23:32:20 GMT 42.422470 20.566780 35,025 130 510 -64
2018-10-19 23:32:15 GMT 42.430939 20.553299 35,025 130 510 0
2018-10-19 23:32:10 GMT 42.438744 20.540857 35,025 130 510 -64
2018-10-19 23:32:04 GMT 42.446869 20.527891 35,025 130 510 0
2018-10-19 23:32:00 GMT 42.454330 20.515968 35,025 130 510 0
2018-10-19 23:31:54 GMT 42.463135 20.501957 35,050 130 510 0
2018-10-19 23:31:49 GMT 42.470257 20.490587 35,025 130 510 0
2018-10-19 23:31:43 GMT 42.479095 20.476456 35,050 130 510 0
2018-10-19 23:31:39 GMT 42.485870 20.465656 35,050 130 510 0
2018-10-19 23:31:33 GMT 42.494652 20.451689 35,025 130 510 64
2018-10-19 23:31:29 GMT 42.501205 20.441250 35,025 130 510 64
2018-10-19 23:31:23 GMT 42.510269 20.426767 35,025 130 510 64
2018-10-19 23:31:18 GMT 42.517509 20.415344 35,025 130 510 64
2018-10-19 23:31:13 GMT 42.525604 20.402424 35,025 130 510 64
2018-10-19 23:31:09 GMT 42.532452 20.391520 35,025 130 510 64
2018-10-19 23:31:02 GMT 42.541580 20.377016 35,000 130 510 64
2018-10-19 23:30:58 GMT 42.549072 20.365074 35,000 130 510 64
2018-10-19 23:30:52 GMT 42.557190 20.352173 35,000 130 510 64
2018-10-19 23:30:48 GMT 42.564011 20.341249 35,000 130 510 64
2018-10-19 23:30:42 GMT 42.573166 20.326641 35,000 130 510 64
2018-10-19 23:30:31 GMT 42.588734 20.301712 34,975 130 509 0
2018-10-19 23:30:23 GMT 42.601089 20.281948 34,975 130 509 0
2018-10-19 23:30:20 GMT 42.605301 20.275206 34,975 130 509 0
2018-10-19 23:30:11 GMT 42.620544 20.250799 34,975 130 508 0
2018-10-19 23:30:03 GMT 42.632812 20.231136 34,975 130 508 0
2018-10-19 23:30:00 GMT 42.635742 20.226454 34,975 130 508 0
2018-10-19 23:29:56 GMT 42.643204 20.214533 34,975 130 508 0
2018-10-19 23:29:51 GMT 42.650253 20.203171 34,975 130 507 0
2018-10-19 23:29:44 GMT 42.660236 20.187122 34,975 130 507 -64
2018-10-19 23:29:40 GMT 42.666733 20.176704 34,975 130 507 -64
2018-10-19 23:29:36 GMT 42.674156 20.164766 34,975 130 507 -64
2018-10-19 23:29:29 GMT 42.683533 20.149675 35,000 130 507 -64
2018-10-19 23:29:25 GMT 42.689938 20.139408 35,000 130 507 -64
2018-10-19 23:29:19 GMT 42.698044 20.126390 35,000 130 506 -64
2018-10-19 23:29:15 GMT 42.705414 20.114531 35,000 130 506 0
2018-10-19 23:29:11 GMT 42.715714 20.097927 35,000 130 506 -64
2018-10-19 23:29:08 GMT 42.715714 20.097927 35,000 129 506 -64
2018-10-19 23:29:05 GMT 42.721161 20.089188 35,000 130 506 -64
2018-10-19 23:29:02 GMT 42.729492 20.075642 35,000 130 506 -64
2018-10-19 23:28:58 GMT 42.729492 20.075642 35,000 130 506 0
2018-10-19 23:28:51 GMT 42.741379 20.056499 35,025 129 506 -64
2018-10-19 23:28:48 GMT 42.744598 20.051296 35,025 129 506 -64
2018-10-19 23:28:44 GMT 42.752598 20.038296 35,025 129 506 0
2018-10-19 23:28:40 GMT 42.756454 20.032070 35,025 129 506 -64
2018-10-19 23:28:37 GMT 42.761536 20.023796 35,025 129 505 0
2018-10-19 23:28:33 GMT 42.768238 20.012938 35,025 129 505 0
2018-10-19 23:28:28 GMT 42.775635 20.000921 35,025 129 505 0
2018-10-19 23:28:23 GMT 42.783276 19.988474 35,025 129 505 0
2018-10-19 23:28:17 GMT 42.791561 19.974869 35,025 129 505 64
2018-10-19 23:28:13 GMT 42.798203 19.963905 35,025 129 505 0
2018-10-19 23:28:07 GMT 42.806763 19.949862 35,025 129 505 0
2018-10-19 23:28:02 GMT 42.813442 19.938877 35,025 129 505 0
2018-10-19 23:27:56 GMT 42.824478 19.920576 35,025 129 505 0
2018-10-19 23:27:52 GMT 42.828896 19.913242 35,025 129 505 0
2018-10-19 23:27:46 GMT 42.836838 19.900072 35,025 129 506 0
2018-10-19 23:27:40 GMT 42.847191 19.882833 35,000 129 506 0
2018-10-19 23:27:36 GMT 42.852859 19.873373 35,025 129 506 0
2018-10-19 23:27:32 GMT 42.860138 19.861301 35,000 129 505 64
2018-10-19 23:27:28 GMT 42.864899 19.853380 35,000 129 505 64
2018-10-19 23:27:25 GMT 42.868378 19.847631 35,000 129 505 64
2018-10-19 23:27:21 GMT 42.875076 19.836666 35,000 129 505 64
2018-10-19 23:27:17 GMT 42.879826 19.828817 35,000 129 505 64
2018-10-19 23:27:14 GMT 42.885223 19.820055 35,000 130 505 64
2018-10-19 23:27:10 GMT 42.892021 19.809200 35,000 130 505 64
2018-10-19 23:27:07 GMT 42.895935 19.803047 35,000 130 505 0
2018-10-19 23:27:03 GMT 42.902161 19.793276 35,000 131 505 0
2018-10-19 23:26:59 GMT 42.908779 19.783173 35,000 132 505 0
2018-10-19 23:26:55 GMT 42.915161 19.773602 35,000 132 505 0
2018-10-19 23:26:44 GMT 42.931965 19.748711 35,000 132 505 0
2018-10-19 23:26:37 GMT 42.943787 19.731184 35,000 132 504 0
2018-10-19 23:26:34 GMT 42.947792 19.725233 35,000 132 504 0
2018-10-19 23:26:29 GMT 42.955582 19.713688 34,975 132 504 64
2018-10-19 23:26:24 GMT 42.976410 19.682837 34,975 132 504 0
2018-10-19 23:26:16 GMT 42.976410 19.682837 34,975 132 504 64
2018-10-19 23:26:13 GMT 42.981125 19.675795 34,975 132 504 0
2018-10-19 23:26:09 GMT 42.988495 19.664888 34,975 132 504 -64
2018-10-19 23:26:05 GMT 42.993225 19.657875 34,975 132 504 -64
2018-10-19 23:25:59 GMT 43.005051 19.640350 34,975 132 503 0
2018-10-19 23:25:55 GMT 43.009705 19.633417 34,975 132 504 0
2018-10-19 23:25:52 GMT 43.014404 19.626436 34,975 132 503 0
2018-10-19 23:25:44 GMT 43.025482 19.609957 34,975 132 503 -64
2018-10-19 23:25:41 GMT 43.030518 19.602421 34,975 132 503 -64
2018-10-19 23:25:32 GMT 43.045578 19.580000 35,000 132 503 -64
2018-10-19 23:25:24 GMT 43.058350 19.560966 35,000 132 502 -64
2018-10-19 23:25:21 GMT 43.062355 19.554945 35,000 132 502 -64
2018-10-19 23:25:14 GMT 43.074413 19.536961 35,000 132 502 0
2018-10-19 23:25:07 GMT 43.085075 19.521070 35,000 132 502 0
2018-10-19 23:25:04 GMT 43.090054 19.513550 35,000 132 503 0
2018-10-19 23:25:00 GMT 43.095795 19.505075 35,000 132 503 0
2018-10-19 23:24:53 GMT 43.106815 19.488569 35,000 132 503 0
2018-10-19 23:24:49 GMT 43.112137 19.480549 35,000 132 503 0
2018-10-19 23:24:43 GMT 43.122162 19.465538 35,000 132 503 0
2018-10-19 23:24:40 GMT 43.127529 19.457441 35,000 132 503 -64
2018-10-19 23:24:36 GMT 43.134155 19.447525 35,000 132 502 0
2018-10-19 23:24:33 GMT 43.138191 19.441484 35,000 132 502 0
2018-10-19 23:24:27 GMT 43.147202 19.427980 35,000 132 502 0
2018-10-19 23:24:22 GMT 43.154575 19.416897 35,000 132 502 0
2018-10-19 23:24:19 GMT 43.159557 19.409309 35,000 132 502 0
2018-10-19 23:24:11 GMT 43.171600 19.391315 35,000 132 502 0
2018-10-19 23:24:08 GMT 43.177231 19.382820 35,000 132 503 0
2018-10-19 23:24:04 GMT 43.182907 19.374262 35,000 132 503 0
2018-10-19 23:24:01 GMT 43.187897 19.366726 35,000 132 503 0
2018-10-19 23:23:58 GMT 43.192608 19.359676 35,000 132 503 0
2018-10-19 23:23:51 GMT 43.203270 19.343719 35,000 132 503 0
2018-10-19 23:23:48 GMT 43.208252 19.336134 35,000 132 503 0
2018-10-19 23:23:41 GMT 43.218960 19.320047 35,000 132 504 0
2018-10-19 23:23:30 GMT 43.235668 19.294935 35,000 132 503 -64
2018-10-19 23:23:21 GMT 43.249969 19.273277 35,000 132 503 -64
2018-10-19 23:23:11 GMT 43.265991 19.249132 35,025 132 503 0
2018-10-19 23:23:06 GMT 43.274323 19.236549 35,025 132 503 0
2018-10-19 23:23:00 GMT 43.282333 19.224478 35,025 132 503 64
2018-10-19 23:22:53 GMT 43.296021 19.203781 35,000 132 504 0
2018-10-19 23:22:50 GMT 43.298721 19.199759 35,000 132 504 0
2018-10-19 23:22:40 GMT 43.315369 19.174543 35,000 132 504 0
2018-10-19 23:22:34 GMT 43.323761 19.161880 35,025 132 504 0
2018-10-19 23:22:29 GMT 43.331085 19.150831 35,025 132 504 0
2018-10-19 23:22:26 GMT 43.336075 19.143230 35,000 132 504 0
2018-10-19 23:22:22 GMT 43.343079 19.132627 35,000 132 504 0
2018-10-19 23:22:19 GMT 43.357777 19.110392 35,000 132 504 64
2018-10-19 23:22:12 GMT 43.357777 19.110392 35,000 132 504 0
2018-10-19 23:22:09 GMT 43.363083 19.102350 35,000 132 504 0
2018-10-19 23:22:02 GMT 43.374119 19.085672 35,000 132 504 0
2018-10-19 23:21:57 GMT 43.383820 19.070988 35,000 132 504 0
2018-10-19 23:21:48 GMT 43.395111 19.053823 35,000 132 504 0
2018-10-19 23:21:38 GMT 43.410801 19.029955 35,000 132 504 0
2018-10-19 23:21:28 GMT 43.426804 19.005646 35,000 132 504 0
2018-10-19 23:21:22 GMT 43.436783 18.990442 35,000 132 504 64
2018-10-19 23:21:18 GMT 43.443386 18.980387 35,000 132 504 0
2018-10-19 23:21:08 GMT 43.458755 18.956972 35,000 132 504 0
2018-10-19 23:20:57 GMT 43.475040 18.932190 35,000 132 504 0
2018-10-19 23:20:47 GMT 43.491287 18.907339 35,000 131 504 0
2018-10-19 23:20:41 GMT 43.500645 18.893084 35,000 131 504 0
2018-10-19 23:20:37 GMT 43.506638 18.883902 35,000 131 504 0
2018-10-19 23:20:28 GMT 43.522888 18.859055 35,000 131 504 0
2018-10-19 23:20:24 GMT 43.527554 18.851885 35,000 131 504 0
2018-10-19 23:20:19 GMT 43.534515 18.841232 35,000 131 504 0
2018-10-19 23:20:16 GMT 43.538498 18.835100 35,000 131 504 0
2018-10-19 23:20:06 GMT 43.555069 18.809744 35,000 131 504 0
2018-10-19 23:19:56 GMT 43.570679 18.785791 35,000 131 504 0
2018-10-19 23:19:45 GMT 43.586628 18.761379 35,000 131 504 0
2018-10-19 23:19:39 GMT 43.596268 18.746572 35,000 131 504 0
2018-10-19 23:19:35 GMT 43.603573 18.735416 35,000 131 503 -64
2018-10-19 23:19:25 GMT 43.619156 18.711441 35,000 131 503 0
2018-10-19 23:19:14 GMT 43.635693 18.685978 35,025 131 504 0
2018-10-19 23:19:04 GMT 43.651566 18.661491 35,025 131 504 -64
2018-10-19 23:18:53 GMT 43.668514 18.635363 35,025 131 503 0
2018-10-19 23:18:42 GMT 43.685669 18.608860 35,025 131 503 0
2018-10-19 23:18:31 GMT 43.701565 18.584354 35,025 131 504 0
2018-10-19 23:18:21 GMT 43.717438 18.559805 35,000 131 504 0
2018-10-19 23:18:11 GMT 43.733322 18.535276 35,025 131 503 0
2018-10-19 23:18:00 GMT 43.749481 18.510239 35,025 131 503 -64
2018-10-19 23:17:50 GMT 43.766598 18.483646 35,025 131 502 0
2018-10-19 23:17:39 GMT 43.784088 18.456520 35,025 131 502 0
2018-10-19 23:17:29 GMT 43.798920 18.433525 35,025 131 502 0
2018-10-19 23:17:21 GMT 43.810776 18.415066 35,000 131 502 128
2018-10-19 23:17:18 GMT 43.815033 18.408422 35,025 131 502 64
2018-10-19 23:17:07 GMT 43.831539 18.382809 35,000 131 502 128
2018-10-19 23:17:01 GMT 43.841454 18.367439 34,975 131 502 0
2018-10-19 23:16:57 GMT 43.847672 18.357706 34,975 131 503 64
2018-10-19 23:16:49 GMT 43.861862 18.335608 34,975 131 503 64
2018-10-19 23:16:46 GMT 43.864174 18.331997 34,975 131 503 0
2018-10-19 23:16:38 GMT 43.877335 18.311525 34,975 131 502 0
2018-10-19 23:16:35 GMT 43.881271 18.305393 34,975 131 502 0
2018-10-19 23:16:27 GMT 43.893780 18.285828 34,975 131 502 0
2018-10-19 23:16:24 GMT 43.897751 18.279716 34,975 131 502 0
2018-10-19 23:16:18 GMT 43.908279 18.263239 34,975 131 502 0
2018-10-19 23:16:15 GMT 43.913223 18.255573 34,975 131 502 64
2018-10-19 23:16:07 GMT 43.926365 18.235081 34,975 131 502 0
2018-10-19 23:16:03 GMT 43.930618 18.228426 34,975 131 502 0
2018-10-19 23:15:57 GMT 43.939491 18.214546 34,975 131 502 0
2018-10-19 23:15:54 GMT 43.945080 18.205784 34,950 131 502 0
2018-10-19 23:15:44 GMT 43.960510 18.181606 34,975 131 501 -64
2018-10-19 23:15:34 GMT 43.975845 18.157526 34,975 131 501 0
2018-10-19 23:15:23 GMT 43.991913 18.132360 34,975 131 501 0
2018-10-19 23:15:17 GMT 44.003319 18.114428 34,975 131 501 -64
2018-10-19 23:15:13 GMT 44.008251 18.106710 34,975 131 501 -64
2018-10-19 23:15:05 GMT 44.020401 18.087616 34,975 131 501 -64
2018-10-19 23:15:02 GMT 44.024639 18.081011 34,975 131 501 0
2018-10-19 23:14:55 GMT 44.035717 18.063551 34,975 131 501 0
2018-10-19 23:14:52 GMT 44.040985 18.055264 34,975 131 501 0
2018-10-19 23:14:44 GMT 44.052750 18.036676 34,975 131 501 0
2018-10-19 23:14:41 GMT 44.056961 18.030033 34,975 131 501 0
2018-10-19 23:14:33 GMT 44.069046 18.011000 34,975 131 501 -64
2018-10-19 23:14:30 GMT 44.074913 18.001686 34,975 131 501 -64
2018-10-19 23:14:25 GMT 44.082455 17.989784 35,000 131 501 -64
2018-10-19 23:14:22 GMT 44.086086 17.984097 35,000 131 502 -64
2018-10-19 23:14:11 GMT 44.102371 17.958366 35,025 131 502 -64
2018-10-19 23:14:07 GMT 44.108620 17.948456 35,025 131 502 -64
2018-10-19 23:14:02 GMT 44.119045 17.932041 35,025 131 503 -64
2018-10-19 23:13:49 GMT 44.137070 17.903500 35,025 131 503 0
2018-10-19 23:13:41 GMT 44.150467 17.882341 35,025 131 503 0
2018-10-19 23:13:38 GMT 44.153091 17.878204 35,025 131 503 0
2018-10-19 23:13:31 GMT 44.164574 17.860043 35,025 131 504 0
2018-10-19 23:13:27 GMT 44.169800 17.851761 35,025 131 504 0
2018-10-19 23:13:22 GMT 44.177982 17.838789 35,025 131 505 0
2018-10-19 23:13:18 GMT 44.185520 17.826820 35,025 131 504 0
2018-10-19 23:13:10 GMT 44.196369 17.809643 35,025 131 505 0
2018-10-19 23:13:06 GMT 44.202003 17.800732 35,025 131 505 0
2018-10-19 23:13:00 GMT 44.211456 17.785688 34,975 131 507 -64
2018-10-19 23:12:56 GMT 44.219364 17.773199 35,025 131 505 0
2018-10-19 23:12:50 GMT 44.227615 17.760118 35,025 131 505 64
2018-10-19 23:12:47 GMT 44.233887 17.750244 35,000 131 506 0
2018-10-19 23:12:39 GMT 44.250000 17.724674 35,000 131 506 0
2018-10-19 23:12:35 GMT 44.250000 17.724674 35,000 131 506 0
2018-10-19 23:12:31 GMT 44.256283 17.714649 35,000 131 506 0
2018-10-19 23:12:28 GMT 44.261543 17.706276 35,000 131 506 0
2018-10-19 23:12:25 GMT 44.265793 17.699562 35,000 131 506 64
2018-10-19 23:12:22 GMT 44.270432 17.692209 35,000 131 506 64
2018-10-19 23:12:18 GMT 44.278625 17.679146 35,000 131 506 64
2018-10-19 23:12:15 GMT 44.286495 17.666552 35,000 131 506 64
2018-10-19 23:12:12 GMT 44.286495 17.666552 35,000 131 506 64
2018-10-19 23:12:09 GMT 44.290825 17.659719 35,000 131 506 0
2018-10-19 23:12:05 GMT 44.296036 17.651278 34,975 131 506 64
2018-10-19 23:12:02 GMT 44.302277 17.641361 34,975 131 507 0
2018-10-19 23:11:58 GMT 44.306885 17.633993 34,975 131 507 0
2018-10-19 23:11:55 GMT 44.313774 17.622940 34,975 131 507 0
2018-10-19 23:11:51 GMT 44.319080 17.614500 34,975 131 508 -64
2018-10-19 23:11:48 GMT 44.322945 17.608271 34,975 131 507 0
2018-10-19 23:11:42 GMT 44.332207 17.593466 34,975 131 507 0
2018-10-19 23:11:37 GMT 44.339081 17.582441 34,975 131 507 0
2018-10-19 23:11:34 GMT 44.345306 17.572500 34,975 131 507 0
2018-10-19 23:11:31 GMT 44.348602 17.567268 34,975 131 508 0
2018-10-19 23:11:27 GMT 44.355484 17.556219 34,975 131 507 0
2018-10-19 23:11:23 GMT 44.362061 17.545624 34,975 131 507 0
2018-10-19 23:11:18 GMT 44.369293 17.534115 34,975 131 508 0
2018-10-19 23:11:15 GMT 44.374245 17.526209 34,975 131 508 -64
2018-10-19 23:11:06 GMT 44.386734 17.506191 34,975 131 508 -64
2018-10-19 23:11:03 GMT 44.392960 17.496185 34,975 131 507 -64
2018-10-19 23:10:56 GMT 44.403481 17.479315 35,000 130 506 -64
2018-10-19 23:10:53 GMT 44.408112 17.471924 35,000 131 507 -64
2018-10-19 23:10:47 GMT 44.418236 17.455601 35,000 130 506 -64
2018-10-19 23:10:43 GMT 44.424133 17.446157 35,000 130 506 -64
2018-10-19 23:10:35 GMT 44.435646 17.427666 35,000 130 506 0
2018-10-19 23:10:32 GMT 44.439884 17.420834 35,000 130 506 0
2018-10-19 23:10:29 GMT 44.446075 17.410851 35,000 130 506 -64
2018-10-19 23:10:26 GMT 44.451660 17.401875 35,000 130 506 -64
2018-10-19 23:10:23 GMT 44.454315 17.397654 35,025 130 506 -64
2018-10-19 23:10:14 GMT 44.469303 17.373337 35,025 130 506 -64
2018-10-19 23:10:04 GMT 44.482059 17.352772 35,025 130 506 0
2018-10-19 23:10:01 GMT 44.487305 17.344339 35,025 130 506 0
2018-10-19 23:09:55 GMT 44.497787 17.327400 35,025 130 507 64
2018-10-19 23:09:51 GMT 44.503986 17.317402 35,025 130 506 64
2018-10-19 23:09:48 GMT 44.509247 17.308893 35,025 130 507 64
2018-10-19 23:09:44 GMT 44.513481 17.302059 35,025 130 507 64
2018-10-19 23:09:41 GMT 44.518696 17.293619 35,000 130 509 128
2018-10-19 23:09:34 GMT 44.529495 17.276134 35,000 130 509 0
2018-10-19 23:09:31 GMT 44.534821 17.267565 35,000 130 509 0
2018-10-19 23:09:23 GMT 44.546265 17.249058 35,000 130 509 -64
2018-10-19 23:09:20 GMT 44.550865 17.241568 35,025 130 509 0
2018-10-19 23:09:16 GMT 44.557800 17.230381 35,000 130 509 -64
2018-10-19 23:09:12 GMT 44.562737 17.222408 35,025 130 509 0
2018-10-19 23:09:09 GMT 44.567623 17.214437 35,025 130 509 0
2018-10-19 23:09:05 GMT 44.572556 17.206467 35,025 130 509 64
2018-10-19 23:09:02 GMT 44.579449 17.195278 35,025 130 509 64
2018-10-19 23:08:58 GMT 44.584076 17.187782 35,000 130 509 0
2018-10-19 23:08:52 GMT 44.595226 17.169687 35,000 130 509 0
2018-10-19 23:08:49 GMT 44.598488 17.164396 35,000 130 509 0
2018-10-19 23:08:46 GMT 44.602119 17.158501 35,000 130 509 0
2018-10-19 23:08:39 GMT 44.617573 17.133448 35,000 130 509 0
2018-10-19 23:08:33 GMT 44.622803 17.125004 35,000 130 509 0
2018-10-19 23:08:30 GMT 44.627396 17.117502 35,000 130 509 0
2018-10-19 23:08:27 GMT 44.631958 17.110094 35,000 130 509 0
2018-10-19 23:08:24 GMT 44.638229 17.099894 35,000 130 509 0
2018-10-19 23:08:20 GMT 44.643829 17.090775 35,000 130 510 0
2018-10-19 23:08:15 GMT 44.650673 17.079655 35,000 130 510 0
2018-10-19 23:08:12 GMT 44.655560 17.071682 35,000 130 509 0
2018-10-19 23:08:09 GMT 44.659191 17.065786 35,000 130 509 0
2018-10-19 23:08:06 GMT 44.664413 17.057255 35,000 130 510 0
2018-10-19 23:08:02 GMT 44.671017 17.046560 35,000 130 509 0
2018-10-19 23:07:58 GMT 44.677208 17.036446 35,000 130 509 0
2018-10-19 23:07:54 GMT 44.685074 17.023582 35,000 130 509 0
2018-10-19 23:07:51 GMT 44.697552 17.003284 35,000 130 509 0
2018-10-19 23:07:46 GMT 44.697552 17.003284 35,000 130 509 0
2018-10-19 23:07:43 GMT 44.707375 16.987274 35,000 130 509 0
2018-10-19 23:07:35 GMT 44.712570 16.978716 35,000 130 509 0
2018-10-19 23:07:31 GMT 44.718430 16.969103 35,000 130 509 0
2018-10-19 23:07:28 GMT 44.723713 16.960480 35,000 130 509 0
2018-10-19 23:07:25 GMT 44.727631 16.954062 35,000 130 509 0
2018-10-19 23:07:17 GMT 44.739990 16.933790 35,025 130 510 -64
2018-10-19 23:07:13 GMT 44.747501 16.921425 35,025 130 509 -64
2018-10-19 23:07:10 GMT 44.759537 16.901550 35,025 130 509 0
2018-10-19 23:07:04 GMT 44.759537 16.901550 35,025 130 509 -64
2018-10-19 23:06:57 GMT 44.770660 16.883305 35,025 130 508 0
2018-10-19 23:06:54 GMT 44.775154 16.875872 35,025 130 509 0
2018-10-19 23:06:48 GMT 44.785309 16.859175 35,025 130 509 0
2018-10-19 23:06:42 GMT 44.792145 16.847937 35,025 130 508 0
2018-10-19 23:06:37 GMT 44.800663 16.834002 35,025 130 508 0
2018-10-19 23:06:33 GMT 44.807144 16.823338 35,025 130 509 0
2018-10-19 23:06:29 GMT 44.812729 16.814247 35,025 130 508 64
2018-10-19 23:06:24 GMT 44.822777 16.797626 35,000 130 508 64
2018-10-19 23:06:21 GMT 44.832554 16.781616 35,000 130 508 64
2018-10-19 23:06:16 GMT 44.832554 16.781616 35,000 130 508 64
2018-10-19 23:06:12 GMT 44.839394 16.770363 35,000 130 508 64
2018-10-19 23:06:06 GMT 44.848473 16.755356 35,000 130 507 64
2018-10-19 23:06:02 GMT 44.854988 16.744572 35,000 130 507 0
2018-10-19 23:05:58 GMT 44.861134 16.734388 35,000 130 508 0
2018-10-19 23:05:53 GMT 44.867615 16.723677 35,000 130 508 0
2018-10-19 23:05:50 GMT 44.871517 16.717239 35,000 130 508 0
2018-10-19 23:05:47 GMT 44.876404 16.709200 35,000 130 507 0
2018-10-19 23:05:41 GMT 44.886833 16.691984 35,000 130 507 0
2018-10-19 23:05:37 GMT 44.891968 16.683458 35,000 130 507 0
2018-10-19 23:05:32 GMT 44.902706 16.665791 35,000 130 507 0
2018-10-19 23:05:28 GMT 44.905640 16.660969 35,000 130 507 0
2018-10-19 23:05:24 GMT 44.912434 16.649714 35,000 130 507 -64
2018-10-19 23:05:20 GMT 44.918564 16.639513 35,000 130 507 -64
2018-10-19 23:05:17 GMT 44.923840 16.630890 35,000 130 507 0
2018-10-19 23:05:12 GMT 44.933853 16.614336 35,000 130 506 -64
2018-10-19 23:05:06 GMT 44.939064 16.605835 35,000 130 506 -64
2018-10-19 23:05:03 GMT 44.943604 16.598314 35,000 130 506 -64
2018-10-19 23:04:58 GMT 44.952072 16.584385 35,025 130 506 0
2018-10-19 23:04:55 GMT 44.955589 16.578569 35,025 130 506 0
2018-10-19 23:04:50 GMT 44.963737 16.565105 35,000 130 506 0
2018-10-19 23:04:47 GMT 44.969193 16.556070 35,000 130 505 64
2018-10-19 23:04:43 GMT 44.974442 16.547487 35,000 130 505 64
2018-10-19 23:04:40 GMT 44.977936 16.541658 35,000 130 505 64
2018-10-19 23:04:37 GMT 44.983154 16.532986 35,000 130 505 0
2018-10-19 23:04:33 GMT 44.990891 16.520168 35,000 130 506 0
2018-10-19 23:04:30 GMT 44.993111 16.516403 35,000 130 506 0
2018-10-19 23:04:27 GMT 44.999588 16.505585 35,000 130 506 0
2018-10-19 23:04:22 GMT 45.005634 16.495436 35,000 130 506 -64
2018-10-19 23:04:18 GMT 45.012383 16.484114 35,000 130 506 -64
2018-10-19 23:04:15 GMT 45.018814 16.473280 35,000 130 506 0
2018-10-19 23:04:11 GMT 45.028118 16.457787 35,000 130 506 0
2018-10-19 23:04:08 GMT 45.028118 16.457787 35,000 130 505 0
2018-10-19 23:04:04 GMT 45.033611 16.448610 35,000 130 505 0
2018-10-19 23:04:01 GMT 45.038727 16.440060 35,000 130 505 0
2018-10-19 23:03:57 GMT 45.044876 16.429787 35,000 130 505 64
2018-10-19 23:03:53 GMT 45.048752 16.423384 35,000 130 505 0
2018-10-19 23:03:50 GMT 45.055164 16.412769 35,000 130 505 0
2018-10-19 23:03:47 GMT 45.063545 16.398836 35,000 130 504 0
2018-10-19 23:03:44 GMT 45.063545 16.398836 35,000 130 504 0
2018-10-19 23:03:41 GMT 45.068710 16.390293 35,000 130 504 0
2018-10-19 23:03:38 GMT 45.071960 16.384932 35,000 130 504 0
2018-10-19 23:03:35 GMT 45.076813 16.376888 35,000 130 504 0
2018-10-19 23:03:32 GMT 45.080673 16.370501 35,000 130 504 0
2018-10-19 23:03:29 GMT 45.086472 16.360867 35,000 130 504 0
2018-10-19 23:03:25 GMT 45.091942 16.351744 35,000 130 503 0
2018-10-19 23:03:22 GMT 45.096725 16.343798 35,000 130 503 0
2018-10-19 23:03:19 GMT 45.102493 16.334185 35,000 130 504 -64
2018-10-19 23:03:15 GMT 45.107300 16.326141 35,000 130 503 -64
2018-10-19 23:03:12 GMT 45.111816 16.318583 35,000 130 503 -64
2018-10-19 23:03:08 GMT 45.117870 16.308468 35,000 130 503 -64
2018-10-19 23:03:05 GMT 45.123047 16.299788 35,000 130 503 0
2018-10-19 23:03:02 GMT 45.127460 16.292322 35,000 130 503 0
2018-10-19 23:02:58 GMT 45.133209 16.282719 35,000 130 503 0
2018-10-19 23:02:54 GMT 45.138702 16.273563 35,000 130 503 0
2018-10-19 23:02:50 GMT 45.143799 16.264992 35,000 130 503 0
2018-10-19 23:02:47 GMT 45.148956 16.256365 35,000 130 503 0
2018-10-19 23:02:44 GMT 45.154415 16.247238 35,000 130 503 0
2018-10-19 23:02:40 GMT 45.158836 16.239803 35,000 130 502 0
2018-10-19 23:02:37 GMT 45.164608 16.230223 35,000 129 502 0
2018-10-19 23:02:34 GMT 45.173492 16.215233 35,000 129 502 0
2018-10-19 23:02:31 GMT 45.173492 16.215233 35,000 129 502 0
2018-10-19 23:02:27 GMT 45.179855 16.204441 35,000 129 501 0
2018-10-19 23:02:24 GMT 45.182716 16.199610 35,000 129 501 0
2018-10-19 23:02:21 GMT 45.189095 16.188890 35,000 129 501 0
2018-10-19 23:02:16 GMT 45.195801 16.177635 35,000 129 501 0
2018-10-19 23:02:13 GMT 45.204643 16.162630 35,000 129 501 0
2018-10-19 23:02:10 GMT 45.204643 16.162630 35,000 129 501 0
2018-10-19 23:02:07 GMT 45.210388 16.152910 35,000 129 501 0
2018-10-19 23:02:03 GMT 45.216095 16.143270 35,000 129 500 0
2018-10-19 23:02:00 GMT 45.220192 16.136303 35,000 129 501 0
2018-10-19 23:01:56 GMT 45.225906 16.126686 35,000 129 501 64
2018-10-19 23:01:52 GMT 45.230713 16.118484 35,000 129 501 64
2018-10-19 23:01:49 GMT 45.235748 16.109945 35,000 129 501 64
2018-10-19 23:01:45 GMT 45.249332 16.086931 35,000 129 501 64
2018-10-19 23:01:40 GMT 45.249332 16.086931 34,975 129 500 64
2018-10-19 23:01:37 GMT 45.254379 16.078360 34,975 129 501 64
2018-10-19 23:01:34 GMT 45.258179 16.071926 34,975 129 500 64
2018-10-19 23:01:31 GMT 45.262974 16.063887 34,975 130 500 64
2018-10-19 23:01:28 GMT 45.266785 16.057434 34,975 130 500 0
2018-10-19 23:01:23 GMT 45.274384 16.044617 34,975 130 500 0
2018-10-19 23:01:20 GMT 45.282665 16.030727 34,975 130 499 0
2018-10-19 23:01:14 GMT 45.287704 16.022186 34,975 130 499 0
2018-10-19 23:01:11 GMT 45.292164 16.014717 34,975 130 499 0
2018-10-19 23:01:08 GMT 45.297226 16.006165 34,975 130 499 0
2018-10-19 23:01:03 GMT 45.303288 15.995960 34,975 130 498 0
2018-10-19 23:01:00 GMT 45.308640 15.986983 34,975 130 498 -64
2018-10-19 23:00:57 GMT 45.312180 15.981088 34,975 130 498 0
2018-10-19 23:00:53 GMT 45.318790 15.969901 34,975 130 498 0
2018-10-19 23:00:50 GMT 45.327988 15.954437 34,975 130 498 0
2018-10-19 23:00:47 GMT 45.327988 15.954437 34,975 130 498 0
2018-10-19 23:00:44 GMT 45.332382 15.946990 34,975 129 498 0
2018-10-19 23:00:40 GMT 45.338058 15.937369 34,975 129 498 0
2018-10-19 23:00:37 GMT 45.343460 15.928279 34,975 129 498 0
2018-10-19 23:00:32 GMT 45.354218 15.910079 34,975 129 498 0
2018-10-19 23:00:29 GMT 45.354218 15.910079 34,975 129 498 0
2018-10-19 23:00:26 GMT 45.358963 15.902040 34,975 129 498 0
2018-10-19 23:00:23 GMT 45.364269 15.892996 34,975 129 498 0
2018-10-19 23:00:19 GMT 45.368683 15.885511 34,975 129 498 0
2018-10-19 23:00:16 GMT 45.374634 15.875375 34,975 129 498 0
2018-10-19 23:00:11 GMT 45.380585 15.865239 34,975 129 498 0
2018-10-19 23:00:08 GMT 45.386894 15.854477 34,975 129 497 0
2018-10-19 23:00:05 GMT 45.389736 15.849654 34,975 129 497 0
2018-10-19 23:00:00 GMT 45.396671 15.837864 34,975 129 497 -64
2018-10-19 22:59:57 GMT 45.401375 15.829825 34,975 129 497 0
2018-10-19 22:59:52 GMT 45.408279 15.818089 34,975 129 497 0
2018-10-19 22:59:49 GMT 45.414501 15.807450 34,975 129 497 -64
2018-10-19 22:59:42 GMT 45.423347 15.792445 34,975 129 497 0
2018-10-19 22:59:39 GMT 45.427689 15.785065 34,975 129 497 -64
2018-10-19 22:59:36 GMT 45.431446 15.778645 34,975 129 497 0
2018-10-19 22:59:32 GMT 45.438663 15.766319 35,000 129 497 0
2018-10-19 22:59:29 GMT 45.441788 15.760999 34,975 129 497 0
2018-10-19 22:59:26 GMT 45.448334 15.749751 34,975 129 497 0
2018-10-19 22:59:20 GMT 45.456211 15.736307 34,975 129 496 0
2018-10-19 22:59:17 GMT 45.460556 15.728891 34,975 129 497 0
2018-10-19 22:59:13 GMT 45.471527 15.710114 35,000 129 497 0
2018-10-19 22:59:09 GMT 45.471527 15.710114 35,000 129 497 0
2018-10-19 22:59:06 GMT 45.476231 15.702075 35,000 129 497 0
2018-10-19 22:59:02 GMT 45.482513 15.691357 35,000 129 496 -64
2018-10-19 22:58:58 GMT 45.487473 15.682787 35,000 129 496 -64
2018-10-19 22:58:55 GMT 45.491547 15.675855 35,000 129 497 -64
2018-10-19 22:58:52 GMT 45.496574 15.667241 35,000 129 497 0
2018-10-19 22:58:49 GMT 45.500885 15.659768 34,975 129 497 0
2018-10-19 22:58:46 GMT 45.505604 15.651699 35,000 129 496 0
2018-10-19 22:58:42 GMT 45.512787 15.639365 35,000 129 496 0
2018-10-19 22:58:38 GMT 45.518692 15.629229 35,000 129 497 0
2018-10-19 22:58:35 GMT 45.521530 15.624390 35,000 129 497 0
2018-10-19 22:58:31 GMT 45.527809 15.613649 35,000 129 497 0
2018-10-19 22:58:28 GMT 45.531254 15.607687 35,000 129 497 0
2018-10-19 22:58:25 GMT 45.536224 15.599147 35,000 129 497 0
2018-10-19 22:58:21 GMT 45.542175 15.588946 35,000 129 497 0
2018-10-19 22:58:18 GMT 45.546570 15.581429 35,000 129 497 -64
2018-10-19 22:58:15 GMT 45.551559 15.572852 35,000 129 497 0
2018-10-19 22:58:10 GMT 45.558472 15.560995 35,000 129 497 -64
2018-10-19 22:58:07 GMT 45.562817 15.553482 35,000 129 497 -64
2018-10-19 22:58:04 GMT 45.566574 15.547061 35,000 129 497 -64
2018-10-19 22:57:57 GMT 45.576553 15.529845 35,000 129 497 -64
2018-10-19 22:57:54 GMT 45.582184 15.520111 35,000 129 497 -64
2018-10-19 22:57:49 GMT 45.588745 15.508850 35,000 129 497 -64
2018-10-19 22:57:45 GMT 45.595917 15.496417 35,000 129 497 -64
2018-10-19 22:57:42 GMT 45.598755 15.491527 35,000 129 497 -64
2018-10-19 22:57:36 GMT 45.607784 15.475891 35,000 129 497 0
2018-10-19 22:57:31 GMT 45.614910 15.463531 35,025 129 497 0
2018-10-19 22:57:28 GMT 45.619308 15.455955 35,025 129 497 0
2018-10-19 22:57:25 GMT 45.624268 15.447395 35,025 129 497 0
2018-10-19 22:57:21 GMT 45.630524 15.436595 35,000 129 497 0
2018-10-19 22:57:14 GMT 45.640457 15.419379 35,000 129 497 -64
2018-10-19 22:57:10 GMT 45.646088 15.409665 35,025 129 497 0
2018-10-19 22:57:06 GMT 45.652634 15.398344 35,025 129 497 -64
2018-10-19 22:57:02 GMT 45.657688 15.389648 35,025 129 496 -64
2018-10-19 22:56:59 GMT 45.661423 15.383204 35,025 129 497 0
2018-10-19 22:56:56 GMT 45.667885 15.372070 35,025 129 497 0
2018-10-19 22:56:52 GMT 45.672958 15.363281 35,025 129 496 0
2018-10-19 22:56:48 GMT 45.678032 15.354561 35,025 129 497 0
2018-10-19 22:56:45 GMT 45.682690 15.346458 35,025 129 497 -64
2018-10-19 22:56:42 GMT 45.688293 15.336847 35,025 129 497 -64
2018-10-19 22:56:38 GMT 45.698914 15.318358 35,025 129 497 -64
2018-10-19 22:56:35 GMT 45.698914 15.318358 35,025 129 497 0
2018-10-19 22:56:31 GMT 45.702347 15.312463 35,025 129 496 -64
2018-10-19 22:56:28 GMT 45.707657 15.303285 35,025 129 497 -64
2018-10-19 22:56:25 GMT 45.718208 15.284935 35,025 129 497 0
2018-10-19 22:56:21 GMT 45.718208 15.284935 35,025 129 497 0
2018-10-19 22:56:17 GMT 45.729858 15.264833 35,025 129 497 64
2018-10-19 22:56:13 GMT 45.729858 15.264833 35,025 129 497 0
2018-10-19 22:56:10 GMT 45.734222 15.257263 35,025 129 498 0
2018-10-19 22:56:07 GMT 45.737640 15.251368 35,025 129 498 0
2018-10-19 22:56:03 GMT 45.745396 15.237831 35,025 129 498 0
2018-10-19 22:56:00 GMT 45.749493 15.230759 35,025 129 498 0
2018-10-19 22:55:57 GMT 45.758801 15.214485 35,025 129 498 0
2018-10-19 22:55:53 GMT 45.758801 15.214485 35,025 129 498 0
2018-10-19 22:55:50 GMT 45.763783 15.205833 35,025 129 498 0
2018-10-19 22:55:47 GMT 45.775887 15.184685 35,025 129 498 0
2018-10-19 22:55:42 GMT 45.775887 15.184685 35,025 129 497 0
2018-10-19 22:55:38 GMT 45.780258 15.177009 35,025 129 497 0
2018-10-19 22:55:35 GMT 45.785244 15.168343 35,025 129 498 0
2018-10-19 22:55:32 GMT 45.789898 15.160240 35,025 129 498 0
2018-10-19 22:55:29 GMT 45.794556 15.152069 35,025 129 498 0
2018-10-19 22:55:26 GMT 45.799484 15.143381 35,025 129 498 0
2018-10-19 22:55:22 GMT 45.804192 15.135178 35,025 129 498 0
2018-10-19 22:55:19 GMT 45.809738 15.125494 35,025 129 498 0
2018-10-19 22:55:15 GMT 45.813492 15.118929 35,025 129 498 0
2018-10-19 22:55:12 GMT 45.818481 15.110221 35,025 129 498 0
2018-10-19 22:55:09 GMT 45.824066 15.100433 35,025 129 498 0
2018-10-19 22:55:06 GMT 45.827515 15.094391 35,025 129 498 0
2018-10-19 22:55:03 GMT 45.832123 15.086305 35,025 129 498 0
2018-10-19 22:55:00 GMT 45.836197 15.079204 35,025 129 498 0
2018-10-19 22:54:57 GMT 45.841106 15.070496 35,025 129 498 0
2018-10-19 22:54:54 GMT 45.846039 15.061854 35,025 129 497 0
2018-10-19 22:54:51 GMT 45.849472 15.055825 35,025 129 497 0
2018-10-19 22:54:48 GMT 45.854141 15.047630 35,025 129 497 0
2018-10-19 22:54:45 GMT 45.857864 15.041107 35,025 129 497 0
2018-10-19 22:54:42 GMT 45.861870 15.034103 35,025 129 497 0
2018-10-19 22:54:38 GMT 45.869362 15.020920 35,025 129 496 0
2018-10-19 22:54:34 GMT 45.873646 15.013367 35,025 129 496 0
2018-10-19 22:54:31 GMT 45.879185 15.003616 35,025 129 496 0
2018-10-19 22:54:27 GMT 45.885052 14.993317 35,025 129 496 0
2018-10-19 22:54:24 GMT 45.888496 14.987274 35,025 129 496 64
2018-10-19 22:54:20 GMT 45.895294 14.975370 35,000 129 496 64
2018-10-19 22:54:16 GMT 45.900272 14.966606 35,025 129 496 64
2018-10-19 22:54:12 GMT 45.905228 14.957953 35,000 129 496 0
2018-10-19 22:54:09 GMT 45.910492 14.948708 35,000 129 496 64
2018-10-19 22:54:06 GMT 45.914520 14.941681 35,000 129 496 0
2018-10-19 22:54:03 GMT 45.919144 14.933568 35,000 129 496 0
2018-10-19 22:54:00 GMT 45.924591 14.923989 35,000 129 496 0
2018-10-19 22:53:57 GMT 45.927505 14.918884 35,000 129 495 0
2018-10-19 22:53:54 GMT 45.932114 14.910782 35,000 129 495 0
2018-10-19 22:53:49 GMT 45.938957 14.898766 35,000 129 495 0
2018-10-19 22:53:45 GMT 45.947754 14.883326 35,000 129 493 0
2018-10-19 22:53:41 GMT 45.950363 14.878771 35,000 129 494 0
2018-10-19 22:53:38 GMT 45.954647 14.871231 35,000 129 494 0
2018-10-19 22:53:33 GMT 45.961769 14.858803 35,000 129 494 0
2018-10-19 22:53:28 GMT 45.970871 14.842797 35,000 129 493 64
2018-10-19 22:53:24 GMT 45.976227 14.833352 34,975 129 493 64
2018-10-19 22:53:21 GMT 45.980530 14.825849 34,975 129 493 64
2018-10-19 22:53:17 GMT 45.985107 14.817743 34,975 129 493 64
2018-10-19 22:53:13 GMT 45.991287 14.806891 34,975 129 492 64
2018-10-19 22:53:09 GMT 45.997429 14.796043 34,975 129 492 64
2018-10-19 22:53:06 GMT 46.000175 14.791168 34,975 129 492 64
2018-10-19 22:53:03 GMT 46.005341 14.782036 34,975 129 491 0
2018-10-19 22:52:59 GMT 46.011208 14.771736 34,975 128 491 0
2018-10-19 22:52:56 GMT 46.015770 14.763565 34,975 129 491 0
2018-10-19 22:52:51 GMT 46.022186 14.752227 34,975 128 491 0
2018-10-19 22:52:48 GMT 46.027035 14.743652 34,975 128 491 0
2018-10-19 22:52:45 GMT 46.031342 14.736016 34,975 128 491 0
2018-10-19 22:52:42 GMT 46.040451 14.719804 34,975 128 491 0
2018-10-19 22:52:38 GMT 46.040451 14.719804 34,975 128 490 0
2018-10-19 22:52:34 GMT 46.046219 14.709555 34,975 128 490 0
2018-10-19 22:52:31 GMT 46.051056 14.700943 34,975 128 490 -64
2018-10-19 22:52:26 GMT 46.059265 14.686376 34,975 128 489 -64
2018-10-19 22:52:23 GMT 46.062973 14.679794 34,975 128 489 0
2018-10-19 22:52:20 GMT 46.066559 14.673409 34,975 128 489 -64
2018-10-19 22:52:17 GMT 46.071075 14.665375 34,975 128 489 -64
2018-10-19 22:52:14 GMT 46.076614 14.655556 34,975 128 489 0
2018-10-19 22:52:10 GMT 46.080505 14.648594 34,975 129 489 0
2018-10-19 22:52:07 GMT 46.085999 14.638880 34,975 129 489 0
2018-10-19 22:52:03 GMT 46.091721 14.628698 34,975 129 489 -64
2018-10-19 22:52:00 GMT 46.094444 14.623833 34,975 129 489 0
2018-10-19 22:51:57 GMT 46.099331 14.615181 35,000 129 488 0
2018-10-19 22:51:54 GMT 46.103565 14.607697 35,000 129 488 0
2018-10-19 22:51:50 GMT 46.109940 14.596409 35,000 128 488 0
2018-10-19 22:51:47 GMT 46.114738 14.587852 35,000 128 488 -64
2018-10-19 22:51:44 GMT 46.117535 14.582909 35,000 128 488 -64
2018-10-19 22:51:41 GMT 46.126610 14.566772 35,000 128 487 0
2018-10-19 22:51:38 GMT 46.126610 14.566772 35,000 129 487 0
2018-10-19 22:51:33 GMT 46.132336 14.556610 35,000 129 487 0
2018-10-19 22:51:30 GMT 46.138321 14.545898 35,000 128 487 0
2018-10-19 22:51:27 GMT 46.141022 14.541075 35,000 128 487 0
2018-10-19 22:51:24 GMT 46.146194 14.531898 35,000 128 487 0
2018-10-19 22:51:21 GMT 46.150726 14.523859 35,000 128 487 0
2018-10-19 22:51:18 GMT 46.161293 14.504974 35,000 128 487 0
2018-10-19 22:51:14 GMT 46.161293 14.504974 35,000 128 487 0
2018-10-19 22:51:08 GMT 46.167904 14.493164 34,975 128 486 0
2018-10-19 22:51:04 GMT 46.178703 14.473801 35,000 128 486 0
2018-10-19 22:51:01 GMT 46.178703 14.473801 35,000 128 486 0
2018-10-19 22:50:58 GMT 46.182312 14.467386 35,000 128 486 0
2018-10-19 22:50:51 GMT 46.192856 14.448463 35,000 128 486 0
2018-10-19 22:50:48 GMT 46.198425 14.438514 35,000 128 486 0
2018-10-19 22:50:43 GMT 46.204586 14.427521 35,000 128 486 0
2018-10-19 22:50:40 GMT 46.207890 14.421547 35,000 128 486 0
2018-10-19 22:50:37 GMT 46.211475 14.415230 35,000 128 486 0
2018-10-19 22:50:34 GMT 46.215942 14.407127 35,000 128 485 0
2018-10-19 22:50:30 GMT 46.222603 14.395248 35,000 128 485 -64
2018-10-19 22:50:27 GMT 46.227356 14.386664 35,000 128 485 -64
2018-10-19 22:50:22 GMT 46.233673 14.375342 35,000 128 485 -64
2018-10-19 22:50:19 GMT 46.236969 14.369380 35,000 128 485 -64
2018-10-19 22:50:16 GMT 46.241131 14.361946 35,000 128 485 -64
2018-10-19 22:50:13 GMT 46.245987 14.353303 35,000 128 485 -64
2018-10-19 22:50:10 GMT 46.251369 14.343613 35,000 128 485 -64
2018-10-19 22:50:07 GMT 46.255886 14.335510 35,000 128 485 -64
2018-10-19 22:50:02 GMT 46.266033 14.317314 35,025 128 485 -64
2018-10-19 22:49:59 GMT 46.266033 14.317314 35,025 128 484 0
2018-10-19 22:49:56 GMT 46.270798 14.308755 35,025 128 485 -64
2018-10-19 22:49:51 GMT 46.277069 14.297401 35,025 128 484 0
2018-10-19 22:49:48 GMT 46.282188 14.288269 35,025 128 484 0
2018-10-19 22:49:40 GMT 46.292038 14.270503 35,025 128 485 0
2018-10-19 22:49:37 GMT 46.300388 14.255447 35,025 128 485 0
2018-10-19 22:49:31 GMT 46.306641 14.244176 35,025 128 485 0
2018-10-19 22:49:28 GMT 46.310760 14.236740 35,025 128 485 0
2018-10-19 22:49:25 GMT 46.314423 14.230108 35,025 128 485 0
2018-10-19 22:49:21 GMT 46.320419 14.219323 35,025 128 484 0
2018-10-19 22:49:18 GMT 46.324318 14.212326 35,025 128 485 0
2018-10-19 22:49:14 GMT 46.329674 14.202644 35,025 128 485 0
2018-10-19 22:49:09 GMT 46.335350 14.192482 35,025 128 484 0
2018-10-19 22:49:05 GMT 46.341637 14.181152 35,025 128 484 0
2018-10-19 22:49:01 GMT 46.352371 14.161779 35,025 128 484 0
2018-10-19 22:48:57 GMT 46.352371 14.161779 35,025 128 484 0
2018-10-19 22:48:53 GMT 46.359882 14.148331 35,025 128 484 0
2018-10-19 22:48:50 GMT 46.363129 14.142419 35,025 128 484 0
2018-10-19 22:48:46 GMT 46.369102 14.131645 35,025 128 484 0
2018-10-19 22:48:42 GMT 46.373898 14.122993 35,025 128 483 0
2018-10-19 22:48:39 GMT 46.378693 14.114350 35,025 128 484 0
2018-10-19 22:48:36 GMT 46.382812 14.106847 35,025 128 484 0
2018-10-19 22:48:33 GMT 46.386703 14.099746 35,025 128 484 0
2018-10-19 22:48:30 GMT 46.395916 14.083031 35,025 128 483 0
2018-10-19 22:48:26 GMT 46.395916 14.083031 35,025 128 483 0
2018-10-19 22:48:23 GMT 46.399734 14.076096 35,025 128 484 0
2018-10-19 22:48:20 GMT 46.404510 14.067323 35,025 128 484 0
2018-10-19 22:48:17 GMT 46.407761 14.061495 35,025 128 484 0
2018-10-19 22:48:14 GMT 46.414024 14.050003 35,025 128 483 0
2018-10-19 22:48:11 GMT 46.417515 14.043617 35,025 128 483 0
2018-10-19 22:48:08 GMT 46.422173 14.035103 35,025 128 483 0
2018-10-19 22:48:05 GMT 46.424637 14.030640 35,025 128 483 0
2018-10-19 22:48:01 GMT 46.430828 14.019310 35,025 128 483 0
2018-10-19 22:47:58 GMT 46.435905 14.010109 35,025 128 483 64
2018-10-19 22:47:55 GMT 46.439163 14.004135 35,025 128 483 64
2018-10-19 22:47:52 GMT 46.444519 13.994438 35,000 128 483 0
2018-10-19 22:47:46 GMT 46.450752 13.983124 35,025 128 483 0
2018-10-19 22:47:43 GMT 46.456650 13.972399 35,025 128 483 0
2018-10-19 22:47:39 GMT 46.461090 13.964293 35,025 128 483 -64
2018-10-19 22:47:35 GMT 46.467934 13.951881 35,025 128 482 -64
2018-10-19 22:47:31 GMT 46.473007 13.942749 35,025 128 482 -64
2018-10-19 22:47:28 GMT 46.476265 13.936775 35,025 128 482 0
2018-10-19 22:47:24 GMT 46.482456 13.925583 35,025 128 481 0
2018-10-19 22:47:20 GMT 46.488602 13.914386 35,025 128 481 0
2018-10-19 22:47:17 GMT 46.491302 13.909447 35,025 128 481 64
2018-10-19 22:47:14 GMT 46.496613 13.899715 35,025 128 481 64
2018-10-19 22:47:10 GMT 46.501648 13.890537 35,000 128 481 0
2018-10-19 22:47:07 GMT 46.510761 13.873878 35,000 128 481 0
2018-10-19 22:47:04 GMT 46.510761 13.873878 35,000 128 481 0
2018-10-19 22:46:59 GMT 46.516113 13.864059 35,000 128 481 0
2018-10-19 22:46:56 GMT 46.521702 13.853828 35,025 128 481 0
2018-10-19 22:46:53 GMT 46.525223 13.847396 35,025 128 481 -64
2018-10-19 22:46:50 GMT 46.529297 13.839893 35,025 128 481 -64
2018-10-19 22:46:47 GMT 46.532593 13.833931 35,025 128 481 -64
2018-10-19 22:46:43 GMT 46.538738 13.822655 35,025 128 481 0
2018-10-19 22:46:40 GMT 46.543159 13.814621 35,025 128 479 0
2018-10-19 22:46:37 GMT 46.547302 13.806999 35,025 128 478 0
2018-10-19 22:46:33 GMT 46.551727 13.798962 35,025 128 479 0
2018-10-19 22:46:30 GMT 46.562572 13.779121 35,025 128 480 0
2018-10-19 22:46:23 GMT 46.567291 13.770558 35,025 128 479 0
2018-10-19 22:46:19 GMT 46.572021 13.761887 35,025 128 479 0
2018-10-19 22:46:15 GMT 46.576958 13.752823 35,000 128 479 0
2018-10-19 22:46:12 GMT 46.581070 13.745236 35,000 128 479 64
2018-10-19 22:46:09 GMT 46.585754 13.736687 35,000 128 479 64
2018-10-19 22:46:05 GMT 46.591003 13.727015 35,000 128 479 64
2018-10-19 22:46:02 GMT 46.596268 13.717302 35,000 128 479 64
2018-10-19 22:45:59 GMT 46.599792 13.710871 35,000 128 479 64
2018-10-19 22:45:54 GMT 46.605354 13.700569 35,000 128 478 64
2018-10-19 22:45:51 GMT 46.610893 13.690407 35,000 128 478 0
2018-10-19 22:45:48 GMT 46.613503 13.685532 35,000 128 478 0
2018-10-19 22:45:44 GMT 46.621277 13.671181 35,000 127 478 0
2018-10-19 22:45:40 GMT 46.626068 13.662323 34,975 128 478 0
2018-10-19 22:45:37 GMT 46.629517 13.656006 34,975 127 478 0
2018-10-19 22:45:34 GMT 46.633564 13.648453 34,975 127 477 64
2018-10-19 22:45:30 GMT 46.639389 13.637584 34,975 127 478 0
2018-10-19 22:45:27 GMT 46.643417 13.630081 34,975 127 477 0
2018-10-19 22:45:24 GMT 46.648090 13.621468 35,000 127 476 0
2018-10-19 22:45:21 GMT 46.656372 13.605830 34,975 127 477 0
2018-10-19 22:45:18 GMT 46.656372 13.605830 34,975 127 477 0
2018-10-19 22:45:13 GMT 46.662426 13.594482 34,975 127 477 0
2018-10-19 22:45:09 GMT 46.667316 13.585213 34,975 127 477 0
2018-10-19 22:45:06 GMT 46.670483 13.579239 34,975 127 476 0
2018-10-19 22:45:03 GMT 46.679306 13.562488 34,975 127 475 0
2018-10-19 22:45:00 GMT 46.679306 13.562488 34,975 127 476 64
2018-10-19 22:44:57 GMT 46.683281 13.554863 34,975 127 476 0
2018-10-19 22:44:54 GMT 46.686722 13.548353 34,975 127 476 0
2018-10-19 22:44:50 GMT 46.692966 13.536461 34,975 127 476 0
2018-10-19 22:44:47 GMT 46.697201 13.528358 34,975 127 476 0
2018-10-19 22:44:44 GMT 46.700878 13.521286 34,975 127 475 0
2018-10-19 22:44:39 GMT 46.706882 13.509956 34,975 127 475 0
2018-10-19 22:44:36 GMT 46.710609 13.502884 34,975 127 475 0
2018-10-19 22:44:33 GMT 46.714600 13.495364 34,975 127 475 0
2018-10-19 22:44:29 GMT 46.721222 13.482971 34,975 128 474 0
2018-10-19 22:44:24 GMT 46.727924 13.470680 34,975 128 475 0
2018-10-19 22:44:21 GMT 46.732590 13.462204 34,975 129 475 0
2018-10-19 22:44:18 GMT 46.735886 13.456376 34,975 129 475 0
2018-10-19 22:44:15 GMT 46.740028 13.449120 34,975 130 474 0
2018-10-19 22:44:11 GMT 46.745453 13.439763 34,975 130 474 0
2018-10-19 22:44:08 GMT 46.751358 13.429915 34,975 131 474 0
2018-10-19 22:44:03 GMT 46.757206 13.420280 34,975 131 473 0
2018-10-19 22:44:00 GMT 46.761864 13.412659 34,975 131 473 0
2018-10-19 22:43:56 GMT 46.766785 13.404526 34,975 131 476 0
2018-10-19 22:43:53 GMT 46.771778 13.396317 34,975 131 473 0
2018-10-19 22:43:50 GMT 46.775528 13.390190 34,975 131 474 -64
2018-10-19 22:43:47 GMT 46.779785 13.383089 34,975 131 473 -64
2018-10-19 22:43:44 GMT 46.789143 13.367752 34,975 131 473 -64
2018-10-19 22:43:41 GMT 46.789143 13.367752 34,975 131 473 -64
2018-10-19 22:43:37 GMT 46.794113 13.359576 34,975 131 473 -64
2018-10-19 22:43:34 GMT 46.803955 13.343364 34,975 131 474 -64
2018-10-19 22:43:31 GMT 46.803955 13.343364 35,000 131 474 0
2018-10-19 22:43:27 GMT 46.809532 13.334175 34,975 131 474 0
2018-10-19 22:43:24 GMT 46.815079 13.324942 34,975 131 473 0
2018-10-19 22:43:20 GMT 46.821167 13.314961 34,975 131 473 0
2018-10-19 22:43:17 GMT 46.825916 13.307121 34,975 131 473 0
2018-10-19 22:43:12 GMT 46.831787 13.297409 35,000 131 476 0
2018-10-19 22:43:09 GMT 46.835861 13.290710 35,000 131 473 -64
2018-10-19 22:43:05 GMT 46.843781 13.277647 35,000 131 474 -64
2018-10-19 22:43:02 GMT 46.846077 13.273888 35,000 131 474 0
2018-10-19 22:42:58 GMT 46.850731 13.266266 35,000 131 474 0
2018-10-19 22:42:55 GMT 46.856277 13.257082 35,000 131 474 0
2018-10-19 22:42:50 GMT 46.864651 13.243263 35,000 131 474 0
2018-10-19 22:42:46 GMT 46.870239 13.234062 35,000 131 474 0
2018-10-19 22:42:40 GMT 46.879780 13.218173 35,000 131 475 0
2018-10-19 22:42:37 GMT 46.881958 13.214630 35,000 131 475 0
2018-10-19 22:42:31 GMT 46.890301 13.200777 35,000 131 475 -64
2018-10-19 22:42:27 GMT 46.900497 13.183868 35,000 131 475 -64
2018-10-19 22:42:21 GMT 46.904572 13.177071 35,000 131 476 0
2018-10-19 22:42:17 GMT 46.910458 13.167326 35,000 131 476 0
2018-10-19 22:42:14 GMT 46.916016 13.158119 35,000 131 476 0
2018-10-19 22:42:11 GMT 46.919720 13.151902 35,000 131 476 0
2018-10-19 22:42:07 GMT 46.925949 13.141571 35,000 131 476 0
2018-10-19 22:42:04 GMT 46.929977 13.134911 35,000 131 476 0
2018-10-19 22:42:01 GMT 46.934898 13.126761 35,000 131 476 0
2018-10-19 22:41:57 GMT 46.940159 13.117957 35,000 131 476 0
2018-10-19 22:41:54 GMT 46.945465 13.109154 35,000 131 476 0
2018-10-19 22:41:51 GMT 46.949467 13.102464 35,000 131 477 0
2018-10-19 22:41:47 GMT 46.954124 13.094717 35,000 131 477 0
2018-10-19 22:41:43 GMT 46.964645 13.077111 35,000 131 477 0
2018-10-19 22:41:36 GMT 46.970322 13.067744 35,000 131 478 0
2018-10-19 22:41:33 GMT 46.979633 13.052180 35,000 131 478 0
2018-10-19 22:41:30 GMT 46.979633 13.052180 35,000 131 479 0
2018-10-19 22:41:26 GMT 46.985546 13.042391 35,000 131 479 0
2018-10-19 22:41:23 GMT 46.989876 13.035208 35,000 131 479 0
2018-10-19 22:41:20 GMT 46.994858 13.026898 35,000 131 479 0
2018-10-19 22:41:17 GMT 46.998302 13.021123 35,000 131 479 0
2018-10-19 22:41:14 GMT 47.003265 13.012894 35,000 131 479 0
2018-10-19 22:41:11 GMT 47.008217 13.004643 35,000 131 478 0
2018-10-19 22:41:07 GMT 47.014130 12.994784 35,000 131 478 0
2018-10-19 22:41:04 GMT 47.016968 12.990065 35,000 131 478 0
2018-10-19 22:41:01 GMT 47.021942 12.981789 35,000 131 478 0
2018-10-19 22:40:58 GMT 47.025951 12.975065 35,000 131 478 0
2018-10-19 22:40:54 GMT 47.032192 12.964712 35,000 131 478 0
2018-10-19 22:40:51 GMT 47.036194 12.957951 35,000 131 478 0
2018-10-19 22:40:46 GMT 47.044575 12.944007 35,000 131 477 64
2018-10-19 22:40:41 GMT 47.053467 12.929077 35,000 131 478 0
2018-10-19 22:40:37 GMT 47.056961 12.923218 35,000 131 477 64
2018-10-19 22:40:33 GMT 47.066940 12.906601 35,000 131 479 0
2018-10-19 22:40:26 GMT 47.072800 12.896782 35,000 131 479 64
2018-10-19 22:40:22 GMT 47.078384 12.887444 35,000 131 478 64
2018-10-19 22:40:19 GMT 47.084335 12.877556 35,000 131 477 64
2018-10-19 22:40:16 GMT 47.086517 12.873934 35,000 131 477 64
2018-10-19 22:40:13 GMT 47.091797 12.865059 35,000 131 477 64
2018-10-19 22:40:10 GMT 47.097015 12.856339 34,975 131 476 64
2018-10-19 22:40:07 GMT 47.100723 12.850159 34,975 131 476 128
2018-10-19 22:40:04 GMT 47.105373 12.842384 34,975 131 475 256
2018-10-19 22:40:01 GMT 47.109421 12.835602 34,950 131 474 320
2018-10-19 22:39:58 GMT 47.114357 12.827383 34,925 130 479 448
2018-10-19 22:39:55 GMT 47.117386 12.822281 34,925 131 474 640
2018-10-19 22:39:51 GMT 47.123573 12.811960 34,775 130 477 0
2018-10-19 22:39:48 GMT 47.127903 12.804636 34,825 131 474 896
2018-10-19 22:39:45 GMT 47.131256 12.799072 34,750 131 474 960
2018-10-19 22:39:42 GMT 47.141739 12.781425 34,700 131 474 1024
2018-10-19 22:39:39 GMT 47.141739 12.781425 34,675 130 475 1024
2018-10-19 22:39:36 GMT 47.146618 12.773156 34,500 130 476 960
2018-10-19 22:39:33 GMT 47.149364 12.768508 34,550 130 476 1088
2018-10-19 22:39:30 GMT 47.153687 12.761169 34,550 130 476 1088
2018-10-19 22:39:27 GMT 47.158905 12.752380 34,475 130 476 896
2018-10-19 22:39:23 GMT 47.164124 12.743523 34,150 131 478 960
2018-10-19 22:39:20 GMT 47.168449 12.736183 34,325 130 477 896
2018-10-19 22:39:16 GMT 47.173988 12.726816 34,275 130 477 896
2018-10-19 22:39:13 GMT 47.178635 12.718941 34,275 130 477 896
2018-10-19 22:39:10 GMT 47.186554 12.705414 34,150 130 477 896
2018-10-19 22:39:07 GMT 47.186554 12.705414 34,175 130 477 960
2018-10-19 22:39:03 GMT 47.192749 12.694913 34,125 130 478 896
2018-10-19 22:39:00 GMT 47.197998 12.685982 34,025 130 478 960
2018-10-19 22:38:57 GMT 47.201706 12.679665 34,025 130 478 832
2018-10-19 22:38:53 GMT 47.208160 12.668715 33,950 130 478 832
2018-10-19 22:38:50 GMT 47.211868 12.662430 33,875 130 479 832
2018-10-19 22:38:47 GMT 47.217087 12.653572 33,775 130 474 448
2018-10-19 22:38:44 GMT 47.220200 12.648285 33,800 130 479 704
2018-10-19 22:38:40 GMT 47.226082 12.638362 33,800 130 479 576
2018-10-19 22:38:37 GMT 47.230408 12.631050 33,750 130 477 448
2018-10-19 22:38:34 GMT 47.234741 12.623714 33,700 130 477 448
2018-10-19 22:38:31 GMT 47.239334 12.615944 33,700 130 477 448
2018-10-19 22:38:28 GMT 47.243088 12.609627 33,625 130 475 512
2018-10-19 22:38:25 GMT 47.246704 12.603447 33,650 130 476 640
2018-10-19 22:38:22 GMT 47.253220 12.592374 33,600 131 476 832
2018-10-19 22:38:18 GMT 47.257782 12.584702 33,575 131 476 960
2018-10-19 22:38:15 GMT 47.267395 12.568497 33,475 130 476 640
2018-10-19 22:38:11 GMT 47.267395 12.568497 33,475 130 476 640
2018-10-19 22:38:08 GMT 47.272568 12.559708 33,450 130 475 512
2018-10-19 22:38:04 GMT 47.277832 12.550850 33,400 130 474 512
2018-10-19 22:38:01 GMT 47.282410 12.543022 33,300 130 474 1216
2018-10-19 22:37:58 GMT 47.286739 12.535753 33,325 130 473 768
2018-10-19 22:37:55 GMT 47.290970 12.528534 33,325 130 473 768
2018-10-19 22:37:52 GMT 47.294998 12.521736 33,275 130 474 1216
2018-10-19 22:37:49 GMT 47.298935 12.514977 33,225 130 474 1216
2018-10-19 22:37:45 GMT 47.307404 12.500587 33,150 130 474 1216
2018-10-19 22:37:42 GMT 47.309643 12.496737 33,100 130 475 1216
2018-10-19 22:37:39 GMT 47.312992 12.491103 33,050 130 475 1216
2018-10-19 22:37:36 GMT 47.317276 12.483779 32,950 130 476 1088
2018-10-19 22:37:33 GMT 47.322212 12.475328 32,900 130 476 1088
2018-10-19 22:37:29 GMT 47.327377 12.466525 32,800 130 476 1088
2018-10-19 22:37:26 GMT 47.332642 12.457581 32,750 130 476 1088
2018-10-19 22:37:23 GMT 47.338135 12.448214 32,725 130 476 1088
2018-10-19 22:37:20 GMT 47.340927 12.443425 32,675 130 477 1088
2018-10-19 22:37:17 GMT 47.347023 12.433073 32,600 130 477 1088
2018-10-19 22:37:14 GMT 47.349197 12.429314 32,525 130 477 1088
2018-10-19 22:37:11 GMT 47.354099 12.420959 32,500 130 477 1088
2018-10-19 22:37:08 GMT 47.359638 12.411522 32,450 130 477 1088
2018-10-19 22:37:05 GMT 47.362381 12.406792 32,400 130 477 1152
2018-10-19 22:37:02 GMT 47.366714 12.399409 32,350 130 477 1152
2018-10-19 22:36:59 GMT 47.371628 12.390999 32,275 130 478 1088
2018-10-19 22:36:56 GMT 47.376480 12.382690 32,200 130 478 1088
2018-10-19 22:36:53 GMT 47.380234 12.376305 32,150 130 478 1088
2018-10-19 22:36:50 GMT 47.383896 12.369972 32,125 130 478 1024
2018-10-19 22:36:47 GMT 47.389435 12.360443 32,050 130 479 960
2018-10-19 22:36:44 GMT 47.394413 12.351943 32,000 130 479 960
2018-10-19 22:36:41 GMT 47.397766 12.346238 31,950 130 479 960
2018-10-19 22:36:38 GMT 47.401165 12.340393 31,925 130 479 1024
2018-10-19 22:36:34 GMT 47.408569 12.327690 31,875 130 479 1024
2018-10-19 22:36:31 GMT 47.412895 12.320322 31,775 130 480 1216
2018-10-19 22:36:28 GMT 47.415939 12.315056 31,725 130 480 1344
2018-10-19 22:36:24 GMT 47.420856 12.306659 31,650 130 480 1472
2018-10-19 22:36:20 GMT 47.427700 12.294969 31,550 130 480 1600
2018-10-19 22:36:17 GMT 47.432602 12.286491 31,450 130 481 1600
2018-10-19 22:36:14 GMT 47.436676 12.279556 31,375 130 484 1152
2018-10-19 22:36:11 GMT 47.439789 12.274269 31,350 130 482 1344
2018-10-19 22:36:08 GMT 47.446178 12.263277 31,225 130 484 1216
2018-10-19 22:36:05 GMT 47.450043 12.256728 31,175 130 484 1216
2018-10-19 22:36:02 GMT 47.454346 12.249275 31,075 130 484 1152
2018-10-19 22:35:59 GMT 47.459354 12.240741 31,050 130 484 1216
2018-10-19 22:35:56 GMT 47.463135 12.234306 31,000 130 484 1152
2018-10-19 22:35:53 GMT 47.467457 12.226938 30,925 130 484 1088
2018-10-19 22:35:50 GMT 47.471550 12.219896 30,900 130 484 1088
2018-10-19 22:35:47 GMT 47.476810 12.210881 30,825 130 485 1024
2018-10-19 22:35:44 GMT 47.481171 12.203407 30,800 130 485 1024
2018-10-19 22:35:40 GMT 47.486820 12.193768 30,750 130 485 960
2018-10-19 22:35:36 GMT 47.493256 12.182739 30,675 130 485 768
2018-10-19 22:35:33 GMT 47.496178 12.177711 30,525 130 483 832
2018-10-19 22:35:30 GMT 47.499893 12.171341 30,600 130 485 832
2018-10-19 22:35:27 GMT 47.509491 12.154752 30,525 130 484 832
2018-10-19 22:35:24 GMT 47.509491 12.154752 30,450 130 483 896
2018-10-19 22:35:21 GMT 47.513855 12.147240 30,425 130 482 1024
2018-10-19 22:35:18 GMT 47.522854 12.131723 30,375 130 482 1024
2018-10-19 22:35:12 GMT 47.525940 12.126434 30,250 130 483 1024
2018-10-19 22:35:09 GMT 47.531250 12.117302 30,250 130 483 1024
2018-10-19 22:35:05 GMT 47.537376 12.106652 30,200 130 483 1088
2018-10-19 22:35:02 GMT 47.541092 12.100204 30,150 130 483 1088
2018-10-19 22:34:59 GMT 47.545429 12.092708 30,075 130 483 1024
2018-10-19 22:34:56 GMT 47.550735 12.083552 30,000 130 483 1088
2018-10-19 22:34:53 GMT 47.554741 12.076651 29,950 130 483 1088
2018-10-19 22:34:49 GMT 47.560001 12.067495 29,900 130 483 1152
2018-10-19 22:34:46 GMT 47.564003 12.060523 29,825 130 482 1152
2018-10-19 22:34:43 GMT 47.569611 12.050903 29,750 130 483 1216
2018-10-19 22:34:40 GMT 47.573315 12.044466 29,750 130 484 1216
2018-10-19 22:34:37 GMT 47.581367 12.030452 29,600 130 485 1216
2018-10-19 22:34:31 GMT 47.585403 12.023506 29,525 130 485 1088
2018-10-19 22:34:28 GMT 47.590351 12.014958 29,450 130 485 1088
2018-10-19 22:34:25 GMT 47.594681 12.007352 29,425 129 485 1088
2018-10-19 22:34:22 GMT 47.599663 11.998831 29,000 130 485 1152
2018-10-19 22:34:19 GMT 47.604034 11.991302 29,300 130 485 1216
2018-10-19 22:34:16 GMT 47.608368 11.983690 29,225 130 485 1216
2018-10-19 22:34:13 GMT 47.613327 11.975166 29,150 130 485 1152
2018-10-19 22:34:10 GMT 47.618282 11.966576 29,125 130 485 1152
2018-10-19 22:34:07 GMT 47.626339 11.952562 29,050 130 485 1152
2018-10-19 22:34:04 GMT 47.626339 11.952562 29,000 130 485 1152
2018-10-19 22:33:59 GMT 47.633785 11.939603 28,925 130 485 1216
2018-10-19 22:33:56 GMT 47.638184 11.932045 28,875 130 485 1216
2018-10-19 22:33:53 GMT 47.641560 11.926223 28,825 129 485 1216
2018-10-19 22:33:50 GMT 47.646168 11.918124 28,700 130 485 1472
2018-10-19 22:33:47 GMT 47.650826 11.910025 28,650 130 485 1472
2018-10-19 22:33:43 GMT 47.662033 11.890572 28,525 130 486 1536
2018-10-19 22:33:39 GMT 47.662033 11.890572 28,475 130 486 1536
2018-10-19 22:33:36 GMT 47.665768 11.884038 28,400 130 486 1472
2018-10-19 22:33:33 GMT 47.670776 11.875328 28,325 130 488 1344
2018-10-19 22:33:28 GMT 47.683228 11.853630 28,175 130 488 1280
2018-10-19 22:33:25 GMT 47.686020 11.848755 28,075 130 488 1280
2018-10-19 22:33:19 GMT 47.692860 11.836853 27,975 130 489 1472
2018-10-19 22:33:16 GMT 47.695656 11.831923 27,950 130 489 1536
2018-10-19 22:33:12 GMT 47.701614 11.821500 27,875 130 489 1600
2018-10-19 22:33:09 GMT 47.710648 11.805771 27,725 130 490 1664
2018-10-19 22:33:06 GMT 47.710648 11.805771 27,675 130 490 1600
2018-10-19 22:33:02 GMT 47.716324 11.795936 27,575 130 491 1536
2018-10-19 22:32:59 GMT 47.719769 11.789879 27,475 130 492 1472
2018-10-19 22:32:56 GMT 47.725727 11.779527 27,425 130 493 1344
2018-10-19 22:32:52 GMT 47.731358 11.769597 27,300 130 493 1216
2018-10-19 22:32:49 GMT 47.735130 11.763047 27,275 130 493 1216
2018-10-19 22:32:46 GMT 47.741463 11.751991 27,200 130 493 1216
2018-10-19 22:32:43 GMT 47.744293 11.747063 27,150 130 493 1216
2018-10-19 22:32:40 GMT 47.749008 11.738823 27,100 130 493 1152
2018-10-19 22:32:37 GMT 47.756561 11.725571 27,000 130 493 1152
2018-10-19 22:32:31 GMT 47.762177 11.715651 26,875 130 493 1024
2018-10-19 22:32:28 GMT 47.765018 11.710722 26,875 130 493 1024
2018-10-19 22:32:25 GMT 47.770370 11.701355 26,825 130 493 1024
2018-10-19 22:32:22 GMT 47.775070 11.693045 26,775 130 492 1024
2018-10-19 22:32:19 GMT 47.778854 11.686501 26,725 130 492 1024
2018-10-19 22:32:16 GMT 47.787003 11.672150 26,625 130 492 1088
2018-10-19 22:32:10 GMT 47.792622 11.662339 26,575 130 492 1152
2018-10-19 22:32:07 GMT 47.797028 11.654572 26,525 130 492 1216
2018-10-19 22:32:04 GMT 47.801697 11.646332 26,450 130 492 1280
2018-10-19 22:32:00 GMT 47.807648 11.635963 26,300 130 492 1408
2018-10-19 22:31:57 GMT 47.812317 11.627655 26,275 130 492 1536
2018-10-19 22:31:54 GMT 47.816734 11.619943 26,225 130 492 1472
2018-10-19 22:31:51 GMT 47.820511 11.613304 26,150 130 493 1280
2018-10-19 22:31:48 GMT 47.825180 11.605064 25,650 130 495 1216
2018-10-19 22:31:43 GMT 47.831493 11.593957 26,000 130 493 1280
2018-10-19 22:31:40 GMT 47.836800 11.584660 25,900 130 493 1344
2018-10-19 22:31:37 GMT 47.840294 11.578533 25,850 130 494 1408
2018-10-19 22:31:34 GMT 47.845276 11.569771 25,750 130 494 1152
2018-10-19 22:31:31 GMT 47.849693 11.561984 23,125 129 491 1024
2018-10-19 22:31:28 GMT 47.855049 11.552547 25,650 130 494 1280
2018-10-19 22:31:22 GMT 47.863800 11.537053 25,525 130 494 1280
2018-10-19 22:31:19 GMT 47.867897 11.529870 25,475 130 494 1280
2018-10-19 22:31:16 GMT 47.871063 11.524306 25,425 130 494 1344
2018-10-19 22:31:13 GMT 47.876743 11.514306 25,300 130 495 1344
2018-10-19 22:31:10 GMT 47.881069 11.506629 25,200 130 495 1216
2018-10-19 22:31:07 GMT 47.885818 11.498249 25,225 130 496 1344
2018-10-19 22:31:03 GMT 47.890896 11.489305 25,000 130 496 1152
2018-10-19 22:31:00 GMT 47.896202 11.479938 25,075 130 496 1088
2018-10-19 22:30:57 GMT 47.900948 11.471628 25,000 130 496 1152
2018-10-19 22:30:51 GMT 47.909134 11.457161 24,900 130 495 1216
2018-10-19 22:30:48 GMT 47.913567 11.449303 24,825 130 495 1216
2018-10-19 22:30:45 GMT 47.918312 11.440993 24,800 130 495 1216
2018-10-19 22:30:42 GMT 47.922363 11.433810 24,100 130 493 832
2018-10-19 22:30:39 GMT 47.931519 11.417610 24,600 130 496 1280
2018-10-19 22:30:36 GMT 47.931519 11.417610 24,575 130 496 1280
2018-10-19 22:30:32 GMT 47.938431 11.405388 24,075 130 496 1216
2018-10-19 22:30:28 GMT 47.943787 11.395912 24,425 130 496 1216
2018-10-19 22:30:25 GMT 47.947224 11.389794 24,325 130 496 1216
2018-10-19 22:30:22 GMT 47.952904 11.379794 24,175 130 496 1024
2018-10-19 22:30:19 GMT 47.956997 11.372469 24,250 129 496 1088
2018-10-19 22:30:16 GMT 47.961468 11.364582 24,200 130 496 1088
2018-10-19 22:30:13 GMT 47.964867 11.358525 24,175 130 496 1024
2018-10-19 22:30:09 GMT 47.970520 11.348465 24,075 130 496 1024
2018-10-19 22:30:06 GMT 47.974594 11.341255 24,050 130 496 1088
2018-10-19 22:30:03 GMT 47.979996 11.331711 24,000 130 496 960
2018-10-19 22:30:00 GMT 47.990051 11.313876 23,900 130 496 896
2018-10-19 22:29:56 GMT 47.990051 11.313876 23,750 129 494 832
2018-10-19 22:29:53 GMT 47.993820 11.307185 23,825 129 494 832
2018-10-19 22:29:50 GMT 47.999126 11.297748 23,775 129 494 832
2018-10-19 22:29:47 GMT 48.009464 11.279438 23,600 129 492 1024
2018-10-19 22:29:44 GMT 48.009464 11.279438 23,700 129 493 896
2018-10-19 22:29:41 GMT 48.012627 11.273804 23,625 129 493 896
2018-10-19 22:29:38 GMT 48.017563 11.265001 23,625 129 493 896
2018-10-19 22:29:35 GMT 48.021057 11.258789 23,525 129 492 1024
2018-10-19 22:29:32 GMT 48.025383 11.251127 23,525 129 492 960
2018-10-19 22:29:29 GMT 48.030041 11.242746 23,475 129 492 1024
2018-10-19 22:29:26 GMT 48.035065 11.233864 23,400 129 491 1088
2018-10-19 22:29:23 GMT 48.038792 11.227182 23,350 129 491 1152
2018-10-19 22:29:19 GMT 48.044952 11.216148 23,300 129 491 1088
2018-10-19 22:29:15 GMT 48.050262 11.206673 23,200 129 491 1024
2018-10-19 22:29:12 GMT 48.055222 11.197885 23,175 129 490 1024
2018-10-19 22:29:08 GMT 48.061707 11.186211 23,100 129 489 896
2018-10-19 22:29:04 GMT 48.066071 11.178448 23,075 129 489 896
2018-10-19 22:29:01 GMT 48.076263 11.160255 22,975 129 488 832
2018-10-19 22:28:57 GMT 48.076263 11.160255 22,950 129 488 768
2018-10-19 22:28:54 GMT 48.080246 11.153114 22,925 129 487 832
2018-10-19 22:28:51 GMT 48.084274 11.145836 22,850 129 487 832
2018-10-19 22:28:47 GMT 48.090775 11.134300 22,750 129 485 960
2018-10-19 22:28:44 GMT 48.099030 11.119502 22,725 129 484 832
2018-10-19 22:28:38 GMT 48.104847 11.109079 22,650 129 484 960
2018-10-19 22:28:34 GMT 48.109455 11.100910 22,400 129 475 1600
2018-10-19 22:28:31 GMT 48.119522 11.082870 22,550 129 482 1216
2018-10-19 22:28:27 GMT 48.119522 11.082870 22,450 129 482 1216
2018-10-19 22:28:24 GMT 48.124725 11.073514 22,450 129 482 1280
2018-10-19 22:28:21 GMT 48.127750 11.068092 22,375 129 482 1216
2018-10-19 22:28:18 GMT 48.136925 11.051683 22,250 129 482 1280
2018-10-19 22:28:15 GMT 48.136925 11.051683 22,250 129 482 1216
2018-10-19 22:28:12 GMT 48.144184 11.038584 22,175 129 482 1280
2018-10-19 22:28:09 GMT 48.144184 11.038584 22,150 129 482 1280
2018-10-19 22:28:06 GMT 48.150879 11.026566 22,100 129 482 1344
2018-10-19 22:28:03 GMT 48.159035 11.011822 21,950 129 482 1344
2018-10-19 22:27:57 GMT 48.162140 11.006329 21,875 129 481 1152
2018-10-19 22:27:53 GMT 48.168762 10.994279 21,825 129 481 1216
2018-10-19 22:27:50 GMT 48.173325 10.986111 21,700 129 480 1280
2018-10-19 22:27:47 GMT 48.176632 10.980112 21,675 129 480 1280
2018-10-19 22:27:43 GMT 48.182358 10.969776 21,550 129 480 1280
2018-10-19 22:27:40 GMT 48.186874 10.961537 21,525 129 480 1216
2018-10-19 22:27:37 GMT 48.190224 10.955537 21,475 129 479 1280
2018-10-19 22:27:34 GMT 48.196243 10.944707 21,450 129 479 1280
2018-10-19 22:27:31 GMT 48.203476 10.931608 21,325 129 479 1152
2018-10-19 22:27:28 GMT 48.203476 10.931608 21,275 129 479 1088
2018-10-19 22:27:25 GMT 48.208893 10.921856 21,250 129 478 1088
2018-10-19 22:27:22 GMT 48.212196 10.915857 21,175 129 477 1088
2018-10-19 22:27:19 GMT 48.215836 10.909353 21,125 129 477 1088
2018-10-19 22:27:16 GMT 48.220963 10.900057 21,050 129 476 1088
2018-10-19 22:27:13 GMT 48.224258 10.894071 21,025 129 476 1280
2018-10-19 22:27:10 GMT 48.229340 10.884986 20,925 129 475 1664
2018-10-19 22:27:07 GMT 48.234730 10.875236 20,700 129 475 1728
2018-10-19 22:27:04 GMT 48.237148 10.870899 20,825 129 476 1728
2018-10-19 22:27:01 GMT 48.241333 10.863436 17,600 129 476 1664
2018-10-19 22:26:57 GMT 48.246780 10.853577 20,550 129 477 1408
2018-10-19 22:26:54 GMT 48.252140 10.843940 20,525 129 476 1408
2018-10-19 22:26:50 GMT 48.256348 10.836322 20,450 129 455 1664
2018-10-19 22:26:47 GMT 48.262024 10.826040 20,350 129 475 1088
2018-10-19 22:26:43 GMT 48.266510 10.817942 20,325 129 475 1088
2018-10-19 22:26:40 GMT 48.276951 10.799055 20,225 129 473 1024
2018-10-19 22:26:36 GMT 48.276951 10.799055 20,150 129 473 960
2018-10-19 22:26:32 GMT 48.282585 10.788791 20,125 129 472 832
2018-10-19 22:26:28 GMT 48.292965 10.769999 20,025 129 470 1024
2018-10-19 22:26:24 GMT 48.292965 10.769999 20,025 129 470 1024
2018-10-19 22:26:21 GMT 48.297993 10.760892 19,975 129 469 1024
2018-10-19 22:26:18 GMT 48.301811 10.753953 19,900 129 468 1024
2018-10-19 22:26:15 GMT 48.305069 10.748098 19,850 129 468 1088
2018-10-19 22:26:12 GMT 48.313869 10.732052 19,800 129 467 1408
2018-10-19 22:26:09 GMT 48.313869 10.732052 19,700 129 467 1472
2018-10-19 22:26:06 GMT 48.317406 10.725692 19,575 129 466 1408
2018-10-19 22:26:02 GMT 48.324108 10.713477 19,550 129 467 1408
2018-10-19 22:25:59 GMT 48.331192 10.700684 19,475 129 466 1408
2018-10-19 22:25:56 GMT 48.331192 10.700684 19,400 129 465 1344
2018-10-19 22:25:51 GMT 48.338120 10.688035 19,350 129 465 1344
2018-10-19 22:25:48 GMT 48.343964 10.677373 19,225 129 464 1344
2018-10-19 22:25:45 GMT 48.345711 10.674157 19,200 129 464 1344
2018-10-19 22:25:42 GMT 48.350372 10.665682 19,125 129 464 1408
2018-10-19 22:25:39 GMT 48.355911 10.655541 19,025 129 463 1536
2018-10-19 22:25:36 GMT 48.358521 10.650823 18,950 129 463 1536
2018-10-19 22:25:30 GMT 48.366890 10.635488 18,825 129 462 1536
2018-10-19 22:25:27 GMT 48.370972 10.628075 18,775 129 461 1472
2018-10-19 22:25:24 GMT 48.374405 10.621737 18,725 129 461 1536
2018-10-19 22:25:21 GMT 48.379318 10.612721 18,575 129 461 1536
2018-10-19 22:25:18 GMT 48.383377 10.605257 18,525 129 461 1536
2018-10-19 22:25:14 GMT 48.388538 10.595880 18,450 129 460 1536
2018-10-19 22:25:10 GMT 48.394272 10.585257 18,325 129 459 1664
2018-10-19 22:25:07 GMT 48.397148 10.580051 18,275 129 459 1728
2018-10-19 22:25:04 GMT 48.406082 10.563636 18,125 129 459 1536
2018-10-19 22:25:01 GMT 48.406082 10.563636 18,050 129 459 1536
2018-10-19 22:24:58 GMT 48.410046 10.556343 18,025 129 459 1472
2018-10-19 22:24:55 GMT 48.413815 10.549405 17,900 129 458 1344
2018-10-19 22:24:50 GMT 48.420731 10.536875 17,850 129 458 1344
2018-10-19 22:24:47 GMT 48.424709 10.529600 17,775 129 456 1344
2018-10-19 22:24:44 GMT 48.427876 10.523818 17,750 129 456 1344
2018-10-19 22:24:41 GMT 48.432404 10.515465 17,625 129 455 1984
2018-10-19 22:24:38 GMT 48.436440 10.508134 17,525 129 455 2112
2018-10-19 22:24:35 GMT 48.445053 10.492522 17,325 129 456 1792
2018-10-19 22:24:32 GMT 48.449100 10.485221 17,250 129 455 1664
2018-10-19 22:24:26 GMT 48.453964 10.476520 17,150 130 455 1664
2018-10-19 22:24:23 GMT 48.462616 10.460956 17,075 130 455 1664
2018-10-19 22:24:20 GMT 48.462616 10.460956 17,000 130 454 1728
2018-10-19 22:24:17 GMT 48.465820 10.455252 16,925 130 454 1664
2018-10-19 22:24:14 GMT 48.469254 10.449054 16,900 130 454 1664
2018-10-19 22:24:11 GMT 48.474194 10.440264 16,775 130 454 1536
2018-10-19 22:24:08 GMT 48.481361 10.427471 16,475 130 450 1408
2018-10-19 22:24:05 GMT 48.481361 10.427471 16,650 130 452 1280
2018-10-19 22:24:02 GMT 48.486557 10.418208 16,575 129 451 1280
2018-10-19 22:23:58 GMT 48.494259 10.404414 16,450 129 450 1472
2018-10-19 22:23:55 GMT 48.498825 10.396236 16,400 129 450 1472
2018-10-19 22:23:52 GMT 48.498825 10.396236 16,350 129 448 1664
2018-10-19 22:23:48 GMT 48.503986 10.386923 16,200 129 447 1472
2018-10-19 22:23:45 GMT 48.509354 10.377291 16,150 129 448 1600
2018-10-19 22:23:42 GMT 48.512413 10.371672 16,100 127 446 1472
2018-10-19 22:23:39 GMT 48.516090 10.364950 16,025 129 447 1472
2018-10-19 22:23:35 GMT 48.520798 10.356164 15,925 127 446 1472
2018-10-19 22:23:32 GMT 48.525284 10.347220 15,825 125 445 1664
2018-10-19 22:23:28 GMT 48.531078 10.334810 15,650 121 443 1728
2018-10-19 22:23:25 GMT 48.536156 10.323245 15,625 122 443 1728
2018-10-19 22:23:22 GMT 48.536156 10.323245 15,600 120 444 1664
2018-10-19 22:23:19 GMT 48.539970 10.313705 15,450 119 442 1536
2018-10-19 22:23:16 GMT 48.543045 10.305669 15,450 119 442 1536
2018-10-19 22:23:12 GMT 48.546444 10.296575 14,825 119 438 1920
2018-10-19 22:23:08 GMT 48.550911 10.284576 15,175 119 440 1664
2018-10-19 22:23:05 GMT 48.554764 10.274330 15,100 119 439 1792
2018-10-19 22:23:02 GMT 48.556686 10.269189 15,050 119 439 1856
2018-10-19 22:22:59 GMT 48.559845 10.260667 14,875 119 438 1920
2018-10-19 22:22:56 GMT 48.562038 10.254942 14,875 119 438 1920
2018-10-19 22:22:52 GMT 48.567123 10.241300 14,750 119 438 1984
2018-10-19 22:22:47 GMT 48.571747 10.228905 14,550 119 438 1856
2018-10-19 22:22:44 GMT 48.574539 10.221440 14,500 119 437 1600
2018-10-19 22:22:41 GMT 48.577679 10.213021 14,400 119 436 1536
2018-10-19 22:22:37 GMT 48.581726 10.202214 14,300 119 435 1472
2018-10-19 22:22:34 GMT 48.585033 10.193216 14,200 119 434 1408
2018-10-19 22:22:31 GMT 48.587585 10.186439 14,200 119 434 1408
2018-10-19 22:22:26 GMT 48.593040 10.171822 14,050 119 432 1472
2018-10-19 22:22:23 GMT 48.598396 10.157294 13,900 119 430 1856
2018-10-19 22:22:16 GMT 48.605473 10.138285 13,775 119 429 1792
2018-10-19 22:22:13 GMT 48.605473 10.138285 13,675 119 429 1920
2018-10-19 22:22:10 GMT 48.607704 10.132213 13,600 119 428 1856
2018-10-19 22:22:07 GMT 48.613106 10.117685 13,450 119 428 1856
2018-10-19 22:22:00 GMT 48.617855 10.104892 13,300 119 427 1920
2018-10-19 22:21:57 GMT 48.620926 10.096580 13,200 119 427 1920
2018-10-19 22:21:54 GMT 48.623581 10.089352 13,125 119 426 1856
2018-10-19 22:21:51 GMT 48.625813 10.083281 13,075 121 319 1088
2018-10-19 22:21:48 GMT 48.630516 10.070632 12,875 119 424 1856
2018-10-19 22:21:45 GMT 48.632950 10.063970 12,825 119 423 1984
2018-10-19 22:21:42 GMT 48.634781 10.059040 12,800 119 423 1984
2018-10-19 22:21:39 GMT 48.637482 10.051786 12,700 119 423 1920
2018-10-19 22:21:35 GMT 48.641739 10.040236 12,575 119 422 1856
2018-10-19 22:21:32 GMT 48.644806 10.031997 12,450 119 421 1536
2018-10-19 22:21:29 GMT 48.647003 10.026081 12,375 119 420 1344
2018-10-19 22:21:25 GMT 48.651260 10.014601 12,300 119 419 1088
2018-10-19 22:21:22 GMT 48.654072 10.006955 12,250 119 417 960
2018-10-19 22:21:19 GMT 48.656677 9.999944 12,175 119 415 704
2018-10-19 22:21:15 GMT 48.660915 9.988596 12,150 119 410 704
2018-10-19 22:21:12 GMT 48.663101 9.982742 12,100 119 407 768
2018-10-19 22:21:09 GMT 48.667282 9.971572 12,075 119 407 768
2018-10-19 22:21:06 GMT 48.672226 9.958473 12,000 119 403 832
2018-10-19 22:21:03 GMT 48.674789 9.951641 11,950 119 399 832
2018-10-19 22:20:59 GMT 48.678680 9.941289 11,925 119 399 832
2018-10-19 22:20:56 GMT 48.678680 9.941289 11,900 119 396 832
2018-10-19 22:20:52 GMT 48.682514 9.931062 11,850 119 393 832
2018-10-19 22:20:49 GMT 48.684982 9.924485 11,800 119 391 896
2018-10-19 22:20:44 GMT 48.689312 9.912848 11,700 119 386 832
2018-10-19 22:20:41 GMT 48.691452 9.907211 11,675 119 383 832
2018-10-19 22:20:38 GMT 48.694016 9.900372 11,675 119 382 832
2018-10-19 22:20:34 GMT 48.697174 9.891921 11,600 119 379 832
2018-10-19 22:20:31 GMT 48.699787 9.885021 11,575 119 377 832
2018-10-19 22:20:28 GMT 48.702301 9.878258 11,525 119 372 832
2018-10-19 22:20:25 GMT 48.707607 9.864205 11,450 119 368 832
2018-10-19 22:20:18 GMT 48.711006 9.855242 11,400 119 361 768
2018-10-19 22:20:15 GMT 48.713516 9.848609 11,350 119 361 768
2018-10-19 22:20:12 GMT 48.718826 9.834665 11,300 119 356 832
2018-10-19 22:20:09 GMT 48.718826 9.834665 11,275 120 354 832
2018-10-19 22:20:06 GMT 48.720749 9.829595 11,250 120 353 832
2018-10-19 22:20:02 GMT 48.724045 9.820932 11,200 120 350 896
2018-10-19 22:19:59 GMT 48.727341 9.812411 11,125 120 347 960
2018-10-19 22:19:55 GMT 48.730465 9.804431 11,050 120 340 1024
2018-10-19 22:19:48 GMT 48.736423 9.789107 10,950 120 336 1024
2018-10-19 22:19:43 GMT 48.740158 9.779734 10,850 120 330 1024
2018-10-19 22:19:40 GMT 48.743172 9.772122 10,800 120 328 1088
2018-10-19 22:19:37 GMT 48.744335 9.769086 10,775 120 326 1024
2018-10-19 22:19:33 GMT 48.750092 9.754662 10,650 120 320 1088
2018-10-19 22:19:27 GMT 48.752392 9.748848 10,600 120 317 1152
2018-10-19 22:19:24 GMT 48.754303 9.744028 10,575 120 315 1152
2018-10-19 22:19:21 GMT 48.756535 9.738296 10,525 120 313 1152
2018-10-19 22:19:17 GMT 48.759140 9.731574 10,425 120 310 1280
2018-10-19 22:19:14 GMT 48.761745 9.724707 10,325 119 305 1408
2018-10-19 22:19:11 GMT 48.763657 9.719576 10,225 118 303 1920
2018-10-19 22:19:06 GMT 48.766983 9.710435 10,150 117 302 2112
2018-10-19 22:19:03 GMT 48.769150 9.704036 10,000 112 301 1856
2018-10-19 22:19:00 GMT 48.771618 9.694423 10,000 112 301 1856
2018-10-19 22:18:56 GMT 48.772266 9.690520 9,750 102 299 1728
2018-10-19 22:18:52 GMT 48.773197 9.681340 9,700 93 295 1792
2018-10-19 22:18:49 GMT 48.773338 9.675630 9,300 81 291 1856
2018-10-19 22:18:46 GMT 48.773163 9.670363 9,500 82 291 1792
2018-10-19 22:18:43 GMT 48.772522 9.663039 9,450 79 290 1920
2018-10-19 22:18:40 GMT 48.771942 9.658862 9,300 75 288 2240
2018-10-19 22:18:36 GMT 48.770645 9.651348 9,225 74 286 2304
2018-10-19 22:18:33 GMT 48.769100 9.643105 9,075 74 285 2304
2018-10-19 22:18:27 GMT 48.767029 9.632052 8,825 74 284 2560
2018-10-19 22:18:24 GMT 48.766205 9.627474 8,750 74 284 2496
2018-10-19 22:18:20 GMT 48.764679 9.619398 8,300 74 283 2560
2018-10-19 22:18:13 GMT 48.762260 9.606315 8,300 74 283 2560
2018-10-19 22:18:10 GMT 48.761215 9.600572 8,175 74 283 2560
2018-10-19 22:18:06 GMT 48.759705 9.592403 7,975 74 282 2432
2018-10-19 22:18:03 GMT 48.758652 9.586698 7,925 74 282 2432
2018-10-19 22:18:00 GMT 48.757690 9.581487 7,675 74 281 2304
2018-10-19 22:17:53 GMT 48.755081 9.567261 7,450 74 279 2176
2018-10-19 22:17:50 GMT 48.753880 9.560924 7,350 74 279 2240
2018-10-19 22:17:45 GMT 48.752426 9.552894 7,175 74 277 2304
2018-10-19 22:17:42 GMT 48.751144 9.546063 7,100 74 276 2496
2018-10-19 22:17:39 GMT 48.750435 9.542132 6,850 74 276 2624
2018-10-19 22:17:35 GMT 48.748856 9.533457 6,625 74 274 2432
2018-10-19 22:17:31 GMT 48.747688 9.527026 6,625 74 274 2304
2018-10-19 22:17:28 GMT 48.746479 9.520376 6,500 74 273 2240
2018-10-19 22:17:23 GMT 48.744965 9.512118 6,325 74 272 2112
2018-10-19 22:17:20 GMT 48.743088 9.501977 6,125 74 269 1984
2018-10-19 22:17:11 GMT 48.740982 9.490356 5,925 74 265 1728
2018-10-19 22:17:08 GMT 48.740051 9.485466 5,850 74 264 1664
2018-10-19 22:17:01 GMT 48.737633 9.472239 5,675 74 256 1280
2018-10-19 22:16:58 GMT 48.736889 9.468191 5,625 74 253 1280
2018-10-19 22:16:53 GMT 48.734894 9.457609 5,475 74 248 1408
2018-10-19 22:16:49 GMT 48.733864 9.452001 5,350 74 244 1344
2018-10-19 22:16:42 GMT 48.730183 9.432341 5,200 74 236 1344
2018-10-19 22:16:37 GMT 48.730183 9.432341 5,075 74 232 1280
2018-10-19 22:16:33 GMT 48.728134 9.421427 4,975 74 229 1728
2018-10-19 22:16:30 GMT 48.728134 9.421427 4,925 74 228 1664
2018-10-19 22:16:27 GMT 48.726242 9.411339 4,775 74 226 1472
2018-10-19 22:16:20 GMT 48.725388 9.406827 4,700 73 220 896
2018-10-19 22:16:17 GMT 48.724594 9.402677 4,575 73 218 896
2018-10-19 22:16:12 GMT 48.723038 9.394578 4,575 73 213 896
2018-10-19 22:16:09 GMT 48.722305 9.390634 4,550 73 211 832
2018-10-19 22:16:05 GMT 48.721245 9.385215 4,500 73 209 832
2018-10-19 22:16:02 GMT 48.720337 9.380493 4,450 73 204 768
2018-10-19 22:15:59 GMT 48.719757 9.377554 4,400 73 200 832
2018-10-19 22:15:56 GMT 48.719059 9.373795 4,375 73 199 832
2018-10-19 22:15:52 GMT 48.717613 9.366423 4,300 73 193 832
2018-10-19 22:15:49 GMT 48.716904 9.362816 4,200 73 192 576
2018-10-19 22:15:45 GMT 48.716217 9.359295 4,225 73 188 768
2018-10-19 22:15:40 GMT 48.714844 9.352323 4,100 73 181 1216
2018-10-19 22:15:36 GMT 48.713837 9.347393 4,100 72 180 1536
2018-10-19 22:15:30 GMT 48.712357 9.339897 3,925 72 179 1536
2018-10-19 22:15:27 GMT 48.711563 9.335994 3,900 72 179 1536
2018-10-19 22:15:18 GMT 48.709579 9.326266 3,650 72 179 1664
2018-10-19 22:15:11 GMT 48.707745 9.317346 3,400 72 179 1600
2018-10-19 22:15:08 GMT 48.706924 9.313237 3,400 72 179 1600
2018-10-19 22:14:58 GMT 48.704674 9.302023 3,125 73 178 1472
2018-10-19 22:14:48 GMT 48.702251 9.289591 2,900 73 175 1408
2018-10-19 22:14:37 GMT 48.700058 9.277884 2,550 74 172 2176
2018-10-19 22:14:27 GMT 48.697952 9.266334 2,150 74 171 2944
2018-10-19 22:14:17 GMT 48.695663 9.253517 1,625 74 177 2624
2018-10-19 22:14:07 GMT 48.693512 9.241544 1,250 74 176 1984
2018-10-19 22:13:56 GMT 48.691269 9.229149 925 74 174 192
2018-10-19 22:13:46 GMT 48.689114 9.217909 0 73 140
2018-10-19 22:13:36 GMT 48.687599 9.209904 0 73 105
2018-10-19 22:10:53 GMT 48.686005 9.201610 0 84 6
2018-10-19 22:10:41 GMT 48.686020 9.200978 0 106 10
2018-10-19 22:10:28 GMT 48.686310 9.200219 0 146 11
2018-10-19 22:10:21 GMT 48.686588 9.199984 0 163 9
We lost coverage of the aircraft here for a total of 129 minutes
2018-10-19 20:00:57 GMT 48.688065 9.196719 0 168 11 0
2018-10-19 20:00:47 GMT 48.688488 9.196525 0 205 10 0
2018-10-19 20:00:31 GMT 48.688774 9.197490 0 250 11 0
2018-10-19 20:00:23 GMT 48.688812 9.198050 0 286 12 0
2018-10-19 20:00:15 GMT 48.688519 9.198628 0 312 12 0
2018-10-19 20:00:00 GMT 48.687893 9.199586 0 315 21 0
2018-10-19 19:59:54 GMT 48.687504 9.200205 0 306 22 0
2018-10-19 19:59:45 GMT 48.687088 9.201556 0 281 30 0
2018-10-19 19:59:31 GMT 48.686771 9.204606 0 267 36 0
2018-10-19 19:59:23 GMT 48.687035 9.206930 0 253 48 0
2018-10-19 19:59:14 GMT 48.687675 9.210364 0 253 67 0
2018-10-19 19:59:02 GMT 48.688660 9.215524 0 253 78 0
2018-10-19 19:58:52 GMT 48.689754 9.221215 0 253 98 0
2018-10-19 19:58:42 GMT 48.691109 9.228357 0 253 130 0
2018-10-19 19:58:32 GMT 48.692963 9.238164 875 254 152 -192
2018-10-19 19:58:21 GMT 48.695038 9.248970 1,000 255 156 -832
2018-10-19 19:58:10 GMT 48.697178 9.260463 1,150 254 159 -832
2018-10-19 19:58:01 GMT 48.699322 9.271666 1,300 254 158 -768
2018-10-19 19:57:50 GMT 48.701416 9.282652 1,425 255 156 -832
2018-10-19 19:57:40 GMT 48.703323 9.292988 1,550 254 156 -832
2018-10-19 19:57:30 GMT 48.705418 9.304047 1,700 255 157 -896
2018-10-19 19:57:16 GMT 48.708164 9.318647 1,875 254 161 -896
2018-10-19 19:57:07 GMT 48.709946 9.328097 2,025 254 173 -1024
2018-10-19 19:56:43 GMT 48.715347 9.356760 2,450 255 179 -640
2018-10-19 19:56:32 GMT 48.718128 9.371338 2,675 255 206 -1408
2018-10-19 19:56:25 GMT 48.719833 9.380211 2,725 255 203 -1216
2018-10-19 19:56:18 GMT 48.721527 9.389335 2,850 255 205 -1408
2018-10-19 19:56:10 GMT 48.723759 9.401478 3,175 256 208 -384
2018-10-19 19:55:57 GMT 48.726746 9.418664 3,200 256 211 0
2018-10-19 19:55:49 GMT 48.730698 9.444990 3,250 259 225 -64
2018-10-19 19:55:40 GMT 48.730698 9.444990 3,250 266 231 -320
2018-10-19 19:55:36 GMT 48.730930 9.451495 3,275 276 236 -768
2018-10-19 19:55:31 GMT 48.729904 9.460530 3,350 290 238 -1344
2018-10-19 19:55:25 GMT 48.727844 9.468102 3,475 297 238 -1216
2018-10-19 19:55:18 GMT 48.723175 9.479581 3,600 304 238 -960
2018-10-19 19:55:15 GMT 48.721851 9.482502 3,625 304 239 -960
2018-10-19 19:55:07 GMT 48.716591 9.494500 3,825 304 241 -1024
2018-10-19 19:55:03 GMT 48.714218 9.499849 3,825 304 241 -960
2018-10-19 19:54:59 GMT 48.712097 9.504653 3,900 304 242 -960
2018-10-19 19:54:56 GMT 48.707336 9.515498 5,900 304 278 -1216
2018-10-19 19:54:53 GMT 48.707336 9.515498 4,025 304 244 -1024
2018-10-19 19:54:47 GMT 48.703583 9.524020 4,150 304 244 -1408
2018-10-19 19:54:43 GMT 48.698387 9.535844 4,325 304 244 -1280
2018-10-19 19:54:38 GMT 48.698387 9.535844 4,325 304 244 -1344
2018-10-19 19:54:35 GMT 48.696945 9.539241 4,400 304 244 -1280
2018-10-19 19:54:32 GMT 48.695068 9.543527 4,500 304 244 -1088
2018-10-19 19:54:27 GMT 48.691910 9.550852 4,675 304 245 64
2018-10-19 19:54:23 GMT 48.688751 9.558178 4,625 303 244 -960
2018-10-19 19:54:18 GMT 48.686146 9.564177 4,700 304 242 -64
2018-10-19 19:54:14 GMT 48.680511 9.577259 4,700 303 242 64
2018-10-19 19:54:09 GMT 48.680511 9.577259 4,675 303 247 64
2018-10-19 19:54:04 GMT 48.677307 9.584656 4,675 303 250 0
2018-10-19 19:54:01 GMT 48.676117 9.587473 4,675 304 252 -64
2018-10-19 19:53:57 GMT 48.672832 9.595112 4,700 303 257 -64
2018-10-19 19:53:54 GMT 48.671574 9.598003 4,700 304 259 -128
2018-10-19 19:53:51 GMT 48.669662 9.602473 4,700 304 261 -192
2018-10-19 19:53:48 GMT 48.664261 9.614939 7,175 304 328 -2240
2018-10-19 19:53:44 GMT 48.664261 9.614939 4,725 304 264 -256
2018-10-19 19:53:39 GMT 48.660961 9.622506 4,750 304 269 -768
2018-10-19 19:53:34 GMT 48.657658 9.630167 4,825 304 271 -960
2018-10-19 19:53:30 GMT 48.655003 9.636238 4,875 304 271 -1408
2018-10-19 19:53:26 GMT 48.652039 9.643038 5,025 304 271 -1728
2018-10-19 19:53:22 GMT 48.649975 9.647731 5,050 304 271 -1792
2018-10-19 19:53:19 GMT 48.647785 9.652790 5,125 304 270 -1984
2018-10-19 19:53:15 GMT 48.644897 9.659518 5,375 304 268 -2432
2018-10-19 19:53:12 GMT 48.642700 9.664518 5,425 304 268 -2176
2018-10-19 19:53:09 GMT 48.641098 9.668250 5,575 304 270 -1792
2018-10-19 19:53:05 GMT 48.637848 9.675645 5,650 304 272 -1664
2018-10-19 19:53:02 GMT 48.635834 9.680364 5,750 304 273 -1536
2018-10-19 19:52:59 GMT 48.633728 9.685171 5,800 304 274 -1344
2018-10-19 19:52:55 GMT 48.631077 9.691387 5,900 304 278 -1216
2018-10-19 19:52:52 GMT 48.628647 9.696913 5,975 304 281 -1152
2018-10-19 19:52:48 GMT 48.626511 9.701867 6,000 304 283 -1152
2018-10-19 19:52:42 GMT 48.620773 9.715083 6,175 304 295 -832
2018-10-19 19:52:38 GMT 48.618393 9.720506 6,225 304 295 -832
2018-10-19 19:52:34 GMT 48.615692 9.726844 6,275 304 300 -832
2018-10-19 19:52:31 GMT 48.613220 9.732408 6,325 304 305 -896
2018-10-19 19:52:28 GMT 48.610916 9.737717 6,375 304 306 -896
2018-10-19 19:52:24 GMT 48.607910 9.744591 6,425 304 325 -1408
2018-10-19 19:52:20 GMT 48.602783 9.756212 6,500 304 316 -896
2018-10-19 19:52:17 GMT 48.602783 9.756212 6,525 304 318 -960
2018-10-19 19:52:14 GMT 48.599808 9.762972 6,575 304 321 -1024
2018-10-19 19:52:11 GMT 48.597370 9.768580 6,625 304 323 -1088
2018-10-19 19:52:07 GMT 48.594204 9.775808 6,700 304 325 -1152
2018-10-19 19:52:03 GMT 48.591225 9.782675 6,850 304 327 -1920
2018-10-19 19:51:59 GMT 48.585342 9.796143 6,950 304 328 -1920
2018-10-19 19:51:56 GMT 48.585342 9.796143 7,050 304 329 -2304
2018-10-19 19:51:53 GMT 48.582275 9.803044 7,125 304 329 -1920
2018-10-19 19:51:49 GMT 48.579575 9.809171 7,200 304 329 -2240
2018-10-19 19:51:46 GMT 48.576553 9.816143 7,425 304 330 -2112
2018-10-19 19:51:43 GMT 48.573853 9.822341 7,475 304 330 -2112
2018-10-19 19:51:39 GMT 48.569717 9.831679 7,650 304 331 -1920
2018-10-19 19:51:36 GMT 48.567390 9.837100 7,725 304 331 -1984
2018-10-19 19:51:32 GMT 48.565018 9.842412 7,800 304 332 -1920
2018-10-19 19:51:29 GMT 48.562317 9.848609 10,725 304 321 -1408
2018-10-19 19:51:25 GMT 48.559021 9.856004 8,000 304 333 -1792
2018-10-19 19:51:19 GMT 48.550049 9.876357 8,250 304 337 -1600
2018-10-19 19:51:15 GMT 48.550049 9.876357 8,300 304 338 -1536
2018-10-19 19:51:12 GMT 48.547466 9.882202 8,375 304 338 -1728
2018-10-19 19:51:09 GMT 48.544674 9.888490 8,625 304 339 -2048
2018-10-19 19:51:04 GMT 48.540573 9.897696 8,625 304 339 -1984
2018-10-19 19:51:01 GMT 48.538342 9.902729 8,725 304 339 -1920
2018-10-19 19:50:57 GMT 48.534393 9.911569 8,875 304 338 -1792
2018-10-19 19:50:54 GMT 48.531639 9.917763 8,950 304 338 -1792
2018-10-19 19:50:51 GMT 48.529404 9.922767 9,050 304 332 -1984
2018-10-19 19:50:48 GMT 48.526424 9.929472 10,575 304 320 -1344
2018-10-19 19:50:44 GMT 48.523308 9.936483 9,275 304 336 -1856
2018-10-19 19:50:41 GMT 48.520512 9.942699 9,325 304 335 -1920
2018-10-19 19:50:37 GMT 48.517365 9.949740 9,475 304 335 -1984
2018-10-19 19:50:34 GMT 48.513672 9.958095 9,550 307 320 0
2018-10-19 19:50:31 GMT 48.507526 9.971972 9,850 304 321 -1088
2018-10-19 19:50:27 GMT 48.507526 9.971972 9,825 304 325 -1408
2018-10-19 19:50:24 GMT 48.505898 9.975658 9,925 304 325 -1344
2018-10-19 19:50:21 GMT 48.500473 9.987981 10,050 304 319 -1088
2018-10-19 19:50:13 GMT 48.497005 9.995896 10,200 304 321 -768
2018-10-19 19:50:10 GMT 48.494396 10.001823 10,075 304 318 -768
2018-10-19 19:50:07 GMT 48.491638 10.008122 10,200 304 318 -704
2018-10-19 19:50:04 GMT 48.489029 10.014038 10,175 304 317 -640
2018-10-19 19:50:00 GMT 48.486252 10.020399 10,200 304 317 -640
2018-10-19 19:49:55 GMT 48.481934 10.030165 10,300 304 318 -896
2018-10-19 19:49:52 GMT 48.478958 10.036856 10,325 304 318 -1088
2018-10-19 19:49:49 GMT 48.477917 10.039263 10,350 304 318 -1088
2018-10-19 19:49:45 GMT 48.474747 10.046293 10,575 304 320 -1344
2018-10-19 19:49:41 GMT 48.470886 10.054948 10,525 304 320 -1792
2018-10-19 19:49:38 GMT 48.466141 10.065660 10,800 304 320 -1600
2018-10-19 19:49:32 GMT 48.463852 10.070730 10,750 304 321 -768
2018-10-19 19:49:29 GMT 48.460831 10.077491 10,825 304 321 -832
2018-10-19 19:49:26 GMT 48.458862 10.081858 10,925 304 322 -640
2018-10-19 19:49:22 GMT 48.455154 10.090168 10,925 304 322 -384
2018-10-19 19:49:19 GMT 48.453232 10.094534 10,950 304 322 -576
2018-10-19 19:49:16 GMT 48.449844 10.102070 10,975 304 322 -320
2018-10-19 19:49:12 GMT 48.446308 10.109952 11,000 304 322 0
2018-10-19 19:49:08 GMT 48.443470 10.116384 11,000 304 321 0
2018-10-19 19:49:05 GMT 48.441326 10.121155 11,000 304 321 0
2018-10-19 19:49:02 GMT 48.437988 10.128620 11,000 304 321 0
2018-10-19 19:48:59 GMT 48.435699 10.133831 11,000 304 320 0
2018-10-19 19:48:56 GMT 48.433594 10.138550 11,000 305 321 0
2018-10-19 19:48:53 GMT 48.431133 10.144067 11,000 304 320 0
2018-10-19 19:48:50 GMT 48.428478 10.150066 11,000 304 320 64
2018-10-19 19:48:45 GMT 48.424393 10.159114 11,000 305 321 0
2018-10-19 19:48:42 GMT 48.422058 10.164185 11,000 306 320 0
2018-10-19 19:48:39 GMT 48.419632 10.169185 11,000 308 320 0
2018-10-19 19:48:35 GMT 48.410744 10.185772 11,000 310 321 64
2018-10-19 19:48:31 GMT 48.407318 10.192073 11,000 310 320 0
2018-10-19 19:48:26 GMT 48.407318 10.192073 11,000 310 321 0
2018-10-19 19:48:23 GMT 48.403713 10.198710 11,000 310 321 0
2018-10-19 19:48:20 GMT 48.401688 10.202425 11,000 310 321 0
2018-10-19 19:48:16 GMT 48.397663 10.209768 11,000 310 321 64
2018-10-19 19:48:13 GMT 48.394634 10.215261 11,000 310 321 64
2018-10-19 19:48:10 GMT 48.392029 10.220032 11,000 310 322 0
2018-10-19 19:48:07 GMT 48.389786 10.224046 11,000 310 322 0
2018-10-19 19:48:04 GMT 48.385391 10.232145 11,000 310 322 0
2018-10-19 19:48:01 GMT 48.382950 10.236584 11,000 310 323 -64
2018-10-19 19:47:58 GMT 48.380722 10.240666 11,000 310 323 0
2018-10-19 19:47:55 GMT 48.377701 10.246230 11,000 310 322 0
2018-10-19 19:47:52 GMT 48.375092 10.251019 11,000 310 322 0
2018-10-19 19:47:48 GMT 48.370430 10.259568 11,000 310 322 0
2018-10-19 19:47:44 GMT 48.367451 10.265061 11,000 310 321 0
2018-10-19 19:47:41 GMT 48.365021 10.269541 11,000 310 321 0
2018-10-19 19:47:38 GMT 48.361816 10.275397 11,000 310 321 -64
2018-10-19 19:47:35 GMT 48.358791 10.280890 11,000 310 321 0
2018-10-19 19:47:32 GMT 48.355545 10.286795 11,000 310 321 0
2018-10-19 19:47:27 GMT 48.350269 10.296286 11,000 310 321 0
2018-10-19 19:47:24 GMT 48.348827 10.298888 11,000 310 322 0
2018-10-19 19:47:21 GMT 48.345566 10.304683 11,000 310 322 0
2018-10-19 19:47:17 GMT 48.341892 10.311319 11,000 311 324 -64
2018-10-19 19:47:14 GMT 48.338196 10.317923 11,025 311 325 0
2018-10-19 19:47:11 GMT 48.335953 10.321937 11,025 311 324 -64
2018-10-19 19:47:07 GMT 48.332428 10.328205 11,025 311 327 0
2018-10-19 19:47:04 GMT 48.328671 10.334810 11,025 311 328 0
2018-10-19 19:47:01 GMT 48.326344 10.338930 11,025 311 329 64
2018-10-19 19:46:55 GMT 48.320061 10.350133 11,000 307 337 128
2018-10-19 19:46:50 GMT 48.316040 10.357361 11,000 308 336 128
2018-10-19 19:46:44 GMT 48.308655 10.374635 10,975 290 351 -256
2018-10-19 19:46:40 GMT 48.307674 10.377888 10,975 294 348 -64
2018-10-19 19:46:35 GMT 48.304790 10.389019 10,975 288 352 -128
2018-10-19 19:46:32 GMT 48.303253 10.396463 11,000 286 351 -128
2018-10-19 19:46:29 GMT 48.301670 10.404992 11,000 286 351 -128
2018-10-19 19:46:25 GMT 48.300110 10.413560 11,025 286 349 -512
2018-10-19 19:46:18 GMT 48.297409 10.428490 11,075 286 347 -768
2018-10-19 19:46:14 GMT 48.295246 10.440337 11,100 286 347 -960
2018-10-19 19:46:11 GMT 48.293976 10.447294 11,125 286 363 -1856
2018-10-19 19:46:08 GMT 48.291382 10.461659 11,250 286 347 -1664
2018-10-19 19:46:04 GMT 48.291382 10.461659 11,300 286 347 -1856
2018-10-19 19:46:01 GMT 48.289764 10.470605 11,375 286 348 -1984
2018-10-19 19:45:58 GMT 48.288574 10.477013 11,425 286 348 -1984
2018-10-19 19:45:52 GMT 48.284866 10.497366 11,775 286 348 -2304
2018-10-19 19:45:49 GMT 48.284866 10.497366 12,000 286 348 -2304
2018-10-19 19:45:46 GMT 48.281570 10.515254 12,000 286 349 -2176
2018-10-19 19:45:42 GMT 48.280350 10.522156 12,375 286 349 -2112
2018-10-19 19:45:33 GMT 48.277977 10.535166 12,375 286 350 -2112
2018-10-19 19:45:27 GMT 48.275600 10.548176 12,500 286 350 -1920
2018-10-19 19:45:24 GMT 48.274155 10.556171 12,650 286 351 -1792
2018-10-19 19:45:21 GMT 48.272484 10.565161 12,775 286 353 -1920
2018-10-19 19:45:18 GMT 48.271866 10.568636 12,825 286 353 -1984
2018-10-19 19:45:15 GMT 48.270309 10.577228 13,025 286 353 -2176
2018-10-19 19:45:12 GMT 48.268711 10.585833 13,075 286 354 -2112
2018-10-19 19:45:09 GMT 48.267517 10.592370 13,250 286 354 -2112
2018-10-19 19:45:05 GMT 48.265686 10.602511 13,750 286 357 -1984
2018-10-19 19:45:02 GMT 48.263718 10.613145 13,475 286 355 -1984
2018-10-19 19:44:58 GMT 48.263172 10.616190 13,675 286 356 -1984
2018-10-19 19:44:55 GMT 48.261589 10.624719 13,600 286 356 -1920
2018-10-19 19:44:52 GMT 48.259140 10.638005 13,825 286 357 -2048
2018-10-19 19:44:49 GMT 48.259140 10.638005 13,850 286 357 -2048
2018-10-19 19:44:46 GMT 48.257538 10.646692 13,925 286 358 -2048
2018-10-19 19:44:42 GMT 48.256210 10.653851 14,025 286 358 -2176
2018-10-19 19:44:39 GMT 48.254425 10.663499 14,175 286 359 -2176
2018-10-19 19:44:35 GMT 48.252930 10.671700 14,250 286 359 -2176
2018-10-19 19:44:31 GMT 48.251450 10.679838 14,525 286 360 -1920
2018-10-19 19:44:28 GMT 48.249718 10.689047 14,500 286 360 -1920
2018-10-19 19:44:25 GMT 48.248428 10.696317 14,625 286 360 -1984
2018-10-19 19:44:21 GMT 48.246693 10.705599 14,750 286 364 -1856
2018-10-19 19:44:15 GMT 48.243622 10.722150 14,950 286 364 -1856
2018-10-19 19:44:11 GMT 48.241711 10.732414 15,125 286 366 -1856
2018-10-19 19:44:07 GMT 48.240372 10.739770 15,150 286 366 -1856
2018-10-19 19:44:04 GMT 48.239090 10.746601 15,225 286 366 -1856
2018-10-19 19:44:01 GMT 48.237335 10.755904 15,450 286 368 -1728
2018-10-19 19:43:57 GMT 48.235199 10.767517 15,525 286 370 -1984
2018-10-19 19:43:54 GMT 48.234329 10.772236 15,550 286 370 -2112
2018-10-19 19:43:49 GMT 48.231766 10.785968 15,800 286 369 -2752
2018-10-19 19:43:46 GMT 48.230804 10.791180 15,900 286 370 -2816
2018-10-19 19:43:43 GMT 48.229469 10.798476 16,000 286 369 -2752
2018-10-19 19:43:39 GMT 48.227093 10.811125 16,200 286 370 -2304
2018-10-19 19:43:36 GMT 48.225929 10.817413 16,475 286 370 -2368
2018-10-19 19:43:32 GMT 48.224674 10.824352 16,400 286 370 -2240
2018-10-19 19:43:28 GMT 48.222347 10.836929 16,925 286 370 -2368
2018-10-19 19:43:25 GMT 48.221146 10.843295 16,750 286 373 -1792
2018-10-19 19:43:22 GMT 48.219833 10.850589 16,800 286 371 -1984
2018-10-19 19:43:19 GMT 48.217300 10.864422 16,950 286 373 -1792
2018-10-19 19:43:16 GMT 48.217300 10.864422 17,000 286 373 -1856
2018-10-19 19:43:13 GMT 48.215698 10.873014 17,125 286 375 -1792
2018-10-19 19:43:10 GMT 48.214554 10.879282 17,150 286 376 -1664
2018-10-19 19:43:07 GMT 48.212860 10.888437 17,225 286 376 -1728
2018-10-19 19:43:04 GMT 48.211452 10.895980 17,325 286 378 -1856
2018-10-19 19:43:01 GMT 48.210251 10.902381 17,400 286 378 -1856
2018-10-19 19:42:58 GMT 48.208847 10.909857 17,675 286 381 -2048
2018-10-19 19:42:55 GMT 48.205902 10.925622 17,675 286 381 -2176
2018-10-19 19:42:52 GMT 48.205902 10.925622 17,750 286 382 -2304
2018-10-19 19:42:49 GMT 48.203979 10.935833 17,850 286 382 -2304
2018-10-19 19:42:46 GMT 48.203064 10.940763 18,000 286 382 -2368
2018-10-19 19:42:43 GMT 48.201920 10.946749 18,000 286 382 -2368
2018-10-19 19:42:40 GMT 48.198792 10.963560 18,350 286 383 -2368
2018-10-19 19:42:37 GMT 48.197254 10.971728 18,350 286 383 -2304
2018-10-19 19:42:34 GMT 48.195904 10.978883 18,450 286 384 -2048
2018-10-19 19:42:31 GMT 48.195904 10.978883 18,550 286 384 -2048
2018-10-19 19:42:27 GMT 48.193863 10.989709 18,600 286 386 -2048
2018-10-19 19:42:24 GMT 48.192413 10.997459 18,700 286 385 -2112
2018-10-19 19:42:21 GMT 48.190567 11.007315 18,875 286 387 -2240
2018-10-19 19:42:17 GMT 48.189156 11.015095 18,950 286 388 -2240
2018-10-19 19:42:14 GMT 48.187729 11.022738 19,000 286 388 -2304
2018-10-19 19:42:11 GMT 48.184204 11.041541 19,275 286 389 -2496
2018-10-19 19:42:08 GMT 48.184204 11.041541 19,375 286 389 -2432
2018-10-19 19:42:05 GMT 48.182777 11.049210 19,400 286 389 -2496
2018-10-19 19:42:02 GMT 48.181614 11.055354 19,600 286 389 -2496
2018-10-19 19:41:59 GMT 48.180405 11.061965 19,700 286 390 -2496
2018-10-19 19:41:55 GMT 48.178207 11.073655 19,875 286 390 -2368
2018-10-19 19:41:52 GMT 48.177063 11.079782 19,950 286 391 -2048
2018-10-19 19:41:49 GMT 48.175606 11.087446 20,200 286 391 -2176
2018-10-19 19:41:46 GMT 48.173950 11.096403 20,225 286 392 -1984
2018-10-19 19:41:43 GMT 48.172165 11.105840 20,300 286 396 -1792
2018-10-19 19:41:37 GMT 48.167816 11.128798 20,525 286 396 -1984
2018-10-19 19:41:34 GMT 48.167816 11.128798 20,600 286 397 -2048
2018-10-19 19:41:30 GMT 48.166344 11.136740 20,650 286 397 -2176
2018-10-19 19:41:27 GMT 48.164658 11.145771 20,750 286 398 -2240
2018-10-19 19:41:24 GMT 48.162899 11.154882 20,925 286 400 -2240
2018-10-19 19:41:18 GMT 48.159805 11.171242 21,150 286 400 -2432
2018-10-19 19:41:15 GMT 48.158386 11.178726 21,275 286 402 -2496
2018-10-19 19:41:12 GMT 48.157219 11.184857 21,400 286 403 -2304
2018-10-19 19:41:08 GMT 48.155079 11.196336 21,525 286 402 -2944
2018-10-19 19:41:04 GMT 48.152481 11.209969 21,650 286 402 -2816
2018-10-19 19:41:01 GMT 48.151539 11.215140 21,825 287 401 -2752
2018-10-19 19:40:58 GMT 48.148087 11.233315 22,150 286 403 -2304
2018-10-19 19:40:55 GMT 48.148087 11.233315 22,125 286 402 -2496
2018-10-19 19:40:52 GMT 48.146324 11.242465 22,275 287 402 -2304
2018-10-19 19:40:48 GMT 48.144608 11.251579 22,400 286 404 -2432
2018-10-19 19:40:42 GMT 48.140739 11.272254 22,900 286 405 -2432
2018-10-19 19:40:35 GMT 48.137466 11.289482 22,975 286 406 -2368
2018-10-19 19:40:32 GMT 48.136364 11.295213 23,050 286 407 -2368
2018-10-19 19:40:29 GMT 48.135040 11.302185 23,150 286 407 -2368
2018-10-19 19:40:25 GMT 48.131973 11.318459 23,325 286 410 -2112
2018-10-19 19:40:22 GMT 48.131332 11.321892 23,400 286 410 -2176
2018-10-19 19:40:19 GMT 48.130325 11.327179 23,475 286 411 -2240
2018-10-19 19:40:16 GMT 48.128265 11.338234 23,575 286 412 -2496
2018-10-19 19:40:13 GMT 48.126915 11.345215 23,875 286 412 -2560
2018-10-19 19:40:10 GMT 48.123917 11.361031 23,950 286 413 -2496
2018-10-19 19:40:04 GMT 48.122353 11.369230 24,125 286 413 -2432
2018-10-19 19:40:00 GMT 48.120258 11.380357 24,300 286 415 -2304
2018-10-19 19:39:57 GMT 48.118652 11.388634 24,375 286 416 -2304
2018-10-19 19:39:54 GMT 48.117416 11.395157 24,450 286 416 -2240
2018-10-19 19:39:51 GMT 48.115414 11.405710 24,950 286 418 -2368
2018-10-19 19:39:48 GMT 48.114204 11.412260 24,950 286 419 -2304
2018-10-19 19:39:45 GMT 48.112152 11.422897 24,850 286 419 -2240
2018-10-19 19:39:42 GMT 48.110825 11.430038 25,000 286 421 -2112
2018-10-19 19:39:39 GMT 48.108807 11.440782 25,075 286 422 -2112
2018-10-19 19:39:34 GMT 48.105972 11.455719 25,250 286 424 -2240
2018-10-19 19:39:31 GMT 48.104801 11.461769 25,300 286 424 -2304
2018-10-19 19:39:28 GMT 48.103081 11.470783 25,475 286 425 -2432
2018-10-19 19:39:24 GMT 48.100471 11.484586 25,650 287 426 -2432
2018-10-19 19:39:21 GMT 48.099289 11.490669 25,775 287 427 -2560
2018-10-19 19:39:18 GMT 48.097912 11.497967 25,950 287 427 -2624
2018-10-19 19:39:15 GMT 48.096375 11.505784 25,975 286 428 -2624
2018-10-19 19:39:12 GMT 48.095119 11.512475 26,200 287 428 -2624
2018-10-19 19:39:09 GMT 48.092884 11.523954 26,325 287 429 -2560
2018-10-19 19:39:06 GMT 48.090649 11.535433 26,400 287 429 -2560
2018-10-19 19:39:03 GMT 48.089722 11.540314 26,575 287 430 -2496
2018-10-19 19:38:58 GMT 48.087021 11.554390 26,675 287 431 -2624
2018-10-19 19:38:55 GMT 48.085007 11.564690 26,825 287 432 -2496
2018-10-19 19:38:52 GMT 48.083572 11.571984 26,950 287 432 -2432
2018-10-19 19:38:49 GMT 48.081894 11.580620 27,000 287 433 -2560
2018-10-19 19:38:46 GMT 48.080223 11.589168 27,125 287 433 -2752
2018-10-19 19:38:43 GMT 48.077225 11.604446 27,375 287 434 -2816
2018-10-19 19:38:37 GMT 48.075394 11.613647 27,700 287 435 -3008
2018-10-19 19:38:34 GMT 48.073105 11.625252 27,800 287 435 -3008
2018-10-19 19:38:30 GMT 48.071274 11.634453 27,975 287 434 -3520
2018-10-19 19:38:27 GMT 48.067745 11.652198 28,225 287 433 -3840
2018-10-19 19:38:21 GMT 48.065651 11.662621 28,875 287 431 -3712
2018-10-19 19:38:18 GMT 48.064178 11.669884 29,750 282 424 -1792
2018-10-19 19:38:15 GMT 48.062851 11.676613 28,925 287 428 -4288
2018-10-19 19:38:12 GMT 48.060837 11.686775 29,075 287 427 -3968
2018-10-19 19:38:09 GMT 48.057358 11.704834 29,525 286 424 -3136
2018-10-19 19:38:06 GMT 48.057358 11.704834 29,525 286 424 -3136
2018-10-19 19:38:03 GMT 48.054432 11.722483 29,775 282 424 -1792
2018-10-19 19:38:00 GMT 48.054432 11.722483 29,775 280 424 -960
2018-10-19 19:37:57 GMT 48.053501 11.729807 29,875 279 426 -576
2018-10-19 19:37:54 GMT 48.052414 11.739647 29,900 278 426 -576
2018-10-19 19:37:50 GMT 48.051311 11.756568 29,975 264 434 0
2018-10-19 19:37:44 GMT 48.051033 11.767343 29,975 268 433 0
2018-10-19 19:37:40 GMT 48.051079 11.778752 30,000 268 433 0
2018-10-19 19:37:37 GMT 48.051361 11.787626 30,000 266 434 64
2018-10-19 19:37:34 GMT 48.052048 11.798424 30,000 262 435 64
2018-10-19 19:37:31 GMT 48.052616 11.805443 30,000 262 435 64
2018-10-19 19:37:28 GMT 48.053688 11.814951 30,000 259 436 0
2018-10-19 19:37:25 GMT 48.055038 11.824388 30,000 256 438 0
2018-10-19 19:37:22 GMT 48.056259 11.831863 30,000 255 438 0
2018-10-19 19:37:19 GMT 48.058594 11.843605 30,000 252 440 0
2018-10-19 19:37:15 GMT 48.060699 11.852737 30,000 247 441 -64
2018-10-19 19:37:11 GMT 48.063789 11.864178 30,000 247 441 -64
2018-10-19 19:37:08 GMT 48.066650 11.873680 30,000 244 442 -64
2018-10-19 19:37:05 GMT 48.068398 11.878967 30,000 242 442 -128
2018-10-19 19:37:02 GMT 48.071732 11.888031 30,025 241 442 -192
2018-10-19 19:36:59 GMT 48.078873 11.905095 30,050 236 441 -384
2018-10-19 19:36:55 GMT 48.078873 11.905095 30,050 236 441 -384
2018-10-19 19:36:52 GMT 48.083946 11.915659 30,075 234 440 -576
2018-10-19 19:36:48 GMT 48.087482 11.922138 30,125 230 439 -896
2018-10-19 19:36:45 GMT 48.090912 11.928131 30,175 228 438 -1152
2018-10-19 19:36:42 GMT 48.096748 11.937491 30,225 225 437 -1344
2018-10-19 19:36:39 GMT 48.099518 11.941589 30,275 223 437 -1536
2018-10-19 19:36:36 GMT 48.104942 11.948970 30,375 221 437 -1792
2018-10-19 19:36:33 GMT 48.108898 11.953970 30,425 218 438 -2048
2018-10-19 19:36:30 GMT 48.114761 11.960609 30,875 213 439 -2496
2018-10-19 19:36:26 GMT 48.121841 11.967844 30,700 212 440 -2560
2018-10-19 19:36:23 GMT 48.126297 11.971939 30,825 210 440 -3136
2018-10-19 19:36:20 GMT 48.131199 11.976013 30,950 207 441 -2944
2018-10-19 19:36:17 GMT 48.136642 11.980110 31,100 205 441 -2688
2018-10-19 19:36:13 GMT 48.146606 11.986647 31,350 202 442 -2432
2018-10-19 19:36:10 GMT 48.150234 11.988760 31,500 201 442 -2176
2018-10-19 19:36:07 GMT 48.155636 11.991718 31,550 201 442 -1664
2018-10-19 19:36:04 GMT 48.163010 11.995732 31,675 201 443 -1728
2018-10-19 19:36:00 GMT 48.174072 12.001768 31,825 201 444 -1152
2018-10-19 19:35:57 GMT 48.176102 12.002916 31,925 201 445 -640
2018-10-19 19:35:52 GMT 48.191757 12.011507 32,000 201 447 -256
2018-10-19 19:35:48 GMT 48.191757 12.011507 31,975 201 445 -512
2018-10-19 19:35:45 GMT 48.199173 12.015592 32,000 201 446 -320
2018-10-19 19:35:42 GMT 48.203293 12.017846 32,025 201 446 -320
2018-10-19 19:35:39 GMT 48.210800 12.021930 32,050 200 447 -384
2018-10-19 19:35:36 GMT 48.222839 12.028339 32,050 200 448 -384
2018-10-19 19:35:33 GMT 48.222839 12.028339 32,100 198 450 -448
2018-10-19 19:35:30 GMT 48.229515 12.031764 32,100 198 450 -448
2018-10-19 19:35:27 GMT 48.233334 12.033499 32,125 198 450 -448
2018-10-19 19:35:24 GMT 48.241013 12.036649 32,150 193 451 -512
2018-10-19 19:35:21 GMT 48.245819 12.038410 32,175 192 451 -512
2018-10-19 19:35:18 GMT 48.251953 12.040293 32,225 190 450 -512
2018-10-19 19:35:12 GMT 48.265175 12.043256 32,250 187 453 -576
2018-10-19 19:35:08 GMT 48.272671 12.044340 32,300 184 453 -576
2018-10-19 19:35:05 GMT 48.278915 12.044889 32,325 182 454 -512
2018-10-19 19:35:02 GMT 48.284729 12.045030 32,350 176 454 -512
2018-10-19 19:34:59 GMT 48.290588 12.045030 32,375 176 454 -512
2018-10-19 19:34:56 GMT 48.296402 12.044678 32,400 176 454 -512
2018-10-19 19:34:53 GMT 48.306187 12.043473 32,425 175 454 -512
2018-10-19 19:34:50 GMT 48.311123 12.042533 32,450 171 455 -512
2018-10-19 19:34:46 GMT 48.317780 12.041016 32,500 168 456 -448
2018-10-19 19:34:42 GMT 48.327927 12.037980 32,525 165 456 -448
2018-10-19 19:34:39 GMT 48.332245 12.036368 32,550 163 457 -448
2018-10-19 19:34:36 GMT 48.339661 12.033269 32,550 163 456 -448
2018-10-19 19:34:33 GMT 48.344330 12.031086 32,575 160 457 -448
2018-10-19 19:34:30 GMT 48.351948 12.026994 32,625 158 457 -384
2018-10-19 19:34:27 GMT 48.356182 12.024536 32,625 156 457 -320
2018-10-19 19:34:23 GMT 48.363632 12.019693 32,625 153 457 -320
2018-10-19 19:34:20 GMT 48.370476 12.014779 32,650 153 457 -256
2018-10-19 19:34:17 GMT 48.380402 12.006648 32,675 149 457 -320
2018-10-19 19:34:14 GMT 48.387680 11.999958 32,725 147 457 -320
2018-10-19 19:34:11 GMT 48.387680 11.999958 32,700 146 457 -384
2018-10-19 19:34:08 GMT 48.393265 11.994324 32,750 142 457 -448
2018-10-19 19:34:04 GMT 48.398407 11.988758 32,750 142 457 -448
2018-10-19 19:34:01 GMT 48.402695 11.983760 32,775 140 456 -448
2018-10-19 19:33:58 GMT 48.408508 11.976436 33,000 120 458 0
2018-10-19 19:33:55 GMT 48.413258 11.970110 32,800 137 457 -512
2018-10-19 19:33:52 GMT 48.418442 11.962562 32,850 131 458 -512
2018-10-19 19:33:48 GMT 48.424942 11.952280 32,925 128 458 -576
2018-10-19 19:33:44 GMT 48.430847 11.941927 32,900 129 459 -512
2018-10-19 19:33:40 GMT 48.435322 11.933465 32,950 125 459 -512
2018-10-19 19:33:37 GMT 48.438534 11.926888 32,975 124 458 -384
2018-10-19 19:33:34 GMT 48.441605 11.920166 33,000 123 459 -320
2018-10-19 19:33:31 GMT 48.446308 11.909252 33,000 121 458 -128
2018-10-19 19:33:28 GMT 48.449753 11.900506 33,000 120 458 -64
2018-10-19 19:33:25 GMT 48.452728 11.892911 33,000 120 458 -64
2018-10-19 19:33:22 GMT 48.455658 11.885306 33,000 120 458 -64
2018-10-19 19:33:19 GMT 48.458366 11.878245 33,025 119 458 0
2018-10-19 19:33:16 GMT 48.461105 11.871221 33,025 120 458 0
2018-10-19 19:33:13 GMT 48.464279 11.862994 33,025 120 457 0
2018-10-19 19:33:10 GMT 48.471123 11.845358 33,025 119 458 0
2018-10-19 19:33:04 GMT 48.474701 11.835937 33,025 120 458 0
2018-10-19 19:33:00 GMT 48.482155 11.816519 33,025 119 458 0
2018-10-19 19:32:54 GMT 48.485554 11.807701 33,025 119 458 0
2018-10-19 19:32:51 GMT 48.488068 11.801196 33,025 119 458 0
2018-10-19 19:32:48 GMT 48.491882 11.791149 33,025 119 458 64
2018-10-19 19:32:44 GMT 48.496399 11.779440 33,025 119 458 0
2018-10-19 19:32:41 GMT 48.499100 11.772357 33,025 119 458 0
2018-10-19 19:32:38 GMT 48.502033 11.764695 33,025 119 458 0
2018-10-19 19:32:35 GMT 48.505188 11.756498 33,025 119 458 0
2018-10-19 19:32:32 GMT 48.507896 11.749444 33,025 119 458 0
2018-10-19 19:32:29 GMT 48.511047 11.741145 33,025 119 458 0
2018-10-19 19:32:26 GMT 48.515114 11.730580 35,000 119 456 0
2018-10-19 19:32:23 GMT 48.518326 11.722271 33,025 119 458 64
2018-10-19 19:32:20 GMT 48.520569 11.716426 33,025 120 458 64
2018-10-19 19:32:17 GMT 48.524185 11.706919 33,025 119 458 64
2018-10-19 19:32:13 GMT 48.531593 11.687646 33,000 119 458 64
2018-10-19 19:32:10 GMT 48.531593 11.687646 33,000 119 458 64
2018-10-19 19:32:07 GMT 48.534573 11.679912 33,000 119 458 64
2018-10-19 19:32:01 GMT 48.541088 11.662927 33,000 119 458 0
2018-10-19 19:31:58 GMT 48.544510 11.653959 33,000 119 458 0
2018-10-19 19:31:55 GMT 48.548309 11.644029 33,000 119 457 0
2018-10-19 19:31:52 GMT 48.550819 11.637485 33,000 119 458 0
2018-10-19 19:31:49 GMT 48.553238 11.631052 33,000 119 458 0
2018-10-19 19:31:46 GMT 48.557102 11.621005 33,000 119 458 0
2018-10-19 19:31:42 GMT 48.562504 11.606911 33,000 119 458 0
2018-10-19 19:31:36 GMT 48.568371 11.591516 33,000 119 457 0
2018-10-19 19:31:33 GMT 48.570831 11.585153 33,000 119 457 0
2018-10-19 19:31:30 GMT 48.574001 11.576843 33,000 119 457 0
2018-10-19 19:31:27 GMT 48.577148 11.568533 33,000 119 457 0
2018-10-19 19:31:24 GMT 48.582287 11.555087 33,000 119 457 0
2018-10-19 19:31:21 GMT 48.586349 11.544448 33,000 119 457 0
2018-10-19 19:31:18 GMT 48.586349 11.544448 33,000 119 457 0
2018-10-19 19:31:15 GMT 48.590389 11.533910 33,000 119 457 0
2018-10-19 19:31:11 GMT 48.594452 11.523250 33,000 119 456 0
2018-10-19 19:31:08 GMT 48.597794 11.514447 33,000 119 456 0
2018-10-19 19:31:05 GMT 48.600071 11.508468 33,000 119 456 0
2018-10-19 19:31:02 GMT 48.603470 11.499650 33,000 119 457 0
2018-10-19 19:30:59 GMT 48.607910 11.487967 33,000 119 456 0
2018-10-19 19:30:56 GMT 48.610886 11.480220 33,000 119 456 0
2018-10-19 19:30:53 GMT 48.614227 11.471417 33,000 119 456 0
2018-10-19 19:30:50 GMT 48.616699 11.465008 33,000 119 456 0
2018-10-19 19:30:47 GMT 48.618973 11.459029 33,000 119 456 0
2018-10-19 19:30:44 GMT 48.622101 11.450712 33,000 119 456 0
2018-10-19 19:30:41 GMT 48.625214 11.442542 33,000 119 456 0
2018-10-19 19:30:38 GMT 48.629242 11.431979 33,000 119 456 0
2018-10-19 19:30:35 GMT 48.632378 11.423685 33,000 119 456 0
2018-10-19 19:30:31 GMT 48.636841 11.411978 33,000 119 456 0
2018-10-19 19:30:27 GMT 48.641144 11.400710 33,000 119 456 -64
2018-10-19 19:30:24 GMT 48.644203 11.392533 33,000 119 456 -64
2018-10-19 19:30:20 GMT 48.648239 11.381906 33,000 119 456 -64
2018-10-19 19:30:17 GMT 48.651169 11.374230 33,000 119 456 -64
2018-10-19 19:30:14 GMT 48.653839 11.367091 33,000 119 455 0
2018-10-19 19:30:11 GMT 48.657188 11.358273 33,000 119 455 0
2018-10-19 19:30:08 GMT 48.659889 11.351190 33,025 119 455 0
2018-10-19 19:30:05 GMT 48.663208 11.342327 33,000 119 455 0
2018-10-19 19:29:59 GMT 48.669621 11.325314 33,025 119 456 0
2018-10-19 19:29:56 GMT 48.672554 11.317580 33,025 119 455 -64
2018-10-19 19:29:53 GMT 48.676071 11.308171 33,025 119 456 0
2018-10-19 19:29:49 GMT 48.680283 11.297044 33,025 119 456 0
2018-10-19 19:29:46 GMT 48.683865 11.287513 33,025 119 456 0
2018-10-19 19:29:43 GMT 48.686752 11.279851 33,000 119 456 0
2018-10-19 19:29:39 GMT 48.690521 11.269804 33,025 119 456 0
2018-10-19 19:29:36 GMT 48.694710 11.258601 33,025 119 456 0
2018-10-19 19:29:33 GMT 48.696712 11.253325 33,025 119 456 0
2018-10-19 19:29:30 GMT 48.699600 11.245663 33,025 119 456 0
2018-10-19 19:29:27 GMT 48.702713 11.237323 33,025 119 456 0
2018-10-19 19:29:24 GMT 48.708206 11.222605 33,025 119 456 0
2018-10-19 19:29:18 GMT 48.715942 11.201829 33,000 119 457 64
2018-10-19 19:29:15 GMT 48.715942 11.201829 33,000 119 456 0
2018-10-19 19:29:12 GMT 48.717941 11.196442 33,000 119 457 0
2018-10-19 19:29:09 GMT 48.721024 11.188096 33,000 119 456 64
2018-10-19 19:29:06 GMT 48.724506 11.178661 33,000 119 456 0
2018-10-19 19:29:02 GMT 48.729538 11.164926 33,000 118 456 64
2018-10-19 19:28:59 GMT 48.731533 11.159580 33,000 118 456 0
2018-10-19 19:28:56 GMT 48.735672 11.148306 32,975 118 456 64
2018-10-19 19:28:52 GMT 48.739792 11.137038 33,000 119 456 64
2018-10-19 19:28:49 GMT 48.745266 11.122139 33,000 119 456 128
2018-10-19 19:28:46 GMT 48.745266 11.122139 32,975 123 456 0
2018-10-19 19:28:42 GMT 48.752110 11.104503 32,975 122 456 0
2018-10-19 19:28:36 GMT 48.756042 11.095487 32,975 125 456 0
2018-10-19 19:28:33 GMT 48.759464 11.088313 32,975 133 455 -64
2018-10-19 19:28:29 GMT 48.764191 11.079219 32,975 133 455 -64
2018-10-19 19:28:26 GMT 48.768822 11.070966 32,975 131 456 0
2018-10-19 19:28:23 GMT 48.772522 11.064852 32,975 136 455 -64
2018-10-19 19:28:20 GMT 48.783627 11.048198 32,975 136 455 -64
2018-10-19 19:28:16 GMT 48.783627 11.048198 32,975 136 456 0
2018-10-19 19:28:13 GMT 48.787212 11.042994 32,975 136 455 0
2018-10-19 19:28:08 GMT 48.801781 11.021817 32,975 136 456 -64
2018-10-19 19:28:05 GMT 48.801781 11.021817 32,975 136 455 -64
2018-10-19 19:28:02 GMT 48.804993 11.017119 32,975 136 455 0
2018-10-19 19:27:59 GMT 48.810150 11.009639 32,975 136 455 0
2018-10-19 19:27:56 GMT 48.815002 11.002526 32,975 136 455 0
2018-10-19 19:27:53 GMT 48.825058 10.987918 32,975 136 455 0
2018-10-19 19:27:49 GMT 48.825058 10.987918 32,975 136 455 0
2018-10-19 19:27:46 GMT 48.829899 10.980835 32,975 135 454 0
2018-10-19 19:27:43 GMT 48.832832 10.976571 32,975 135 454 0
2018-10-19 19:27:39 GMT 48.840271 10.965694 32,975 135 454 0
2018-10-19 19:27:36 GMT 48.845028 10.958718 32,975 135 454 0
2018-10-19 19:27:33 GMT 48.848335 10.953947 32,975 135 454 0
2018-10-19 19:27:30 GMT 48.854107 10.945419 32,975 135 454 0
2018-10-19 19:27:26 GMT 48.859924 10.936890 32,975 136 455 0
2018-10-19 19:27:22 GMT 48.865723 10.928439 33,000 136 455 0
2018-10-19 19:27:17 GMT 48.873093 10.917593 32,975 135 454 64
2018-10-19 19:27:14 GMT 48.878311 10.910002 32,975 135 455 64
2018-10-19 19:27:11 GMT 48.882202 10.904353 32,975 135 455 0
2018-10-19 19:27:07 GMT 48.888973 10.894390 32,975 135 455 0
2018-10-19 19:27:04 GMT 48.892456 10.889212 32,975 135 455 0
2018-10-19 19:27:01 GMT 48.896980 10.882609 32,975 135 455 0
2018-10-19 19:26:58 GMT 48.901520 10.875901 32,975 135 456 -64
2018-10-19 19:26:55 GMT 48.906967 10.867943 32,975 135 456 -64
2018-10-19 19:26:52 GMT 48.911819 10.860830 32,975 135 456 -64
2018-10-19 19:26:47 GMT 48.919601 10.849492 32,975 135 456 0
2018-10-19 19:26:43 GMT 48.923470 10.843795 32,975 135 456 0
2018-10-19 19:26:40 GMT 48.928024 10.837168 32,975 135 456 0
2018-10-19 19:26:37 GMT 48.933849 10.828616 32,975 136 456 0
2018-10-19 19:26:34 GMT 48.938370 10.821956 32,975 136 456 0
2018-10-19 19:26:30 GMT 48.942883 10.815390 32,975 135 456 0
2018-10-19 19:26:27 GMT 48.954208 10.798786 32,975 135 456 0
2018-10-19 19:26:24 GMT 48.954208 10.798786 32,975 135 456 0
2018-10-19 19:26:20 GMT 48.959362 10.791249 32,975 136 456 0
2018-10-19 19:26:14 GMT 48.968124 10.778433 32,975 135 456 0
2018-10-19 19:26:11 GMT 48.973000 10.771300 33,000 136 456 0
2018-10-19 19:26:08 GMT 48.976547 10.766109 33,000 135 456 -64
2018-10-19 19:26:05 GMT 48.981400 10.758925 33,000 135 456 0
2018-10-19 19:26:02 GMT 48.985657 10.752728 33,000 135 456 -64
2018-10-19 19:25:59 GMT 48.992088 10.743256 33,000 135 456 0
2018-10-19 19:25:55 GMT 48.997192 10.735685 33,000 135 456 0
2018-10-19 19:25:51 GMT 49.004013 10.725685 33,000 135 456 0
2018-10-19 19:25:48 GMT 49.009216 10.718030 33,000 135 456 -64
2018-10-19 19:25:43 GMT 49.015644 10.708562 33,000 135 457 -64
2018-10-19 19:25:40 GMT 49.019878 10.702274 33,000 135 457 -64
2018-10-19 19:25:36 GMT 49.029236 10.688500 33,000 135 457 -64
2018-10-19 19:25:33 GMT 49.030865 10.686083 33,000 135 458 0
2018-10-19 19:25:30 GMT 49.035427 10.679434 33,000 135 457 -64
2018-10-19 19:25:26 GMT 49.042503 10.668881 33,000 135 458 0
2018-10-19 19:25:20 GMT 49.053864 10.652185 33,000 135 457 0
2018-10-19 19:25:17 GMT 49.053864 10.652185 33,025 135 458 0
2018-10-19 19:25:13 GMT 49.060272 10.642653 33,025 135 458 0
2018-10-19 19:25:10 GMT 49.064152 10.636934 33,000 135 459 -64
2018-10-19 19:25:07 GMT 49.071350 10.626315 33,000 135 458 0
2018-10-19 19:25:03 GMT 49.080677 10.612504 33,000 135 459 0
2018-10-19 19:25:00 GMT 49.080677 10.612504 33,000 135 460 0
2018-10-19 19:24:57 GMT 49.086868 10.603324 33,000 135 459 0
2018-10-19 19:24:54 GMT 49.094036 10.592772 33,000 135 459 -64
2018-10-19 19:24:51 GMT 49.094036 10.592772 33,000 135 459 -64
2018-10-19 19:24:48 GMT 49.099869 10.584130 33,025 135 458 -64
2018-10-19 19:24:44 GMT 49.106979 10.573618 33,025 135 459 -64
2018-10-19 19:24:41 GMT 49.110561 10.568269 33,025 135 459 0
2018-10-19 19:24:38 GMT 49.114471 10.562487 33,025 135 460 0
2018-10-19 19:24:35 GMT 49.120293 10.553886 33,025 135 460 0
2018-10-19 19:24:32 GMT 49.124527 10.547670 33,025 135 460 0
2018-10-19 19:24:29 GMT 49.128387 10.541875 33,025 135 460 64
2018-10-19 19:24:25 GMT 49.143036 10.520184 33,025 135 460 0
2018-10-19 19:24:19 GMT 49.143036 10.520184 33,025 135 460 -64
2018-10-19 19:24:16 GMT 49.148575 10.511944 33,025 135 460 -64
2018-10-19 19:24:13 GMT 49.155762 10.501310 33,025 135 460 -64
2018-10-19 19:24:09 GMT 49.159302 10.495991 33,025 135 461 -64
2018-10-19 19:24:03 GMT 49.166153 10.485887 33,025 135 461 -64
2018-10-19 19:23:59 GMT 49.174339 10.473801 33,025 135 461 -64
2018-10-19 19:23:56 GMT 49.179153 10.466661 33,025 135 461 -64
2018-10-19 19:23:52 GMT 49.183090 10.460864 33,025 135 461 -64
2018-10-19 19:23:49 GMT 49.187981 10.453636 33,050 135 461 -64
2018-10-19 19:23:46 GMT 49.193520 10.445396 33,050 136 461 0
2018-10-19 19:23:43 GMT 49.198105 10.438631 33,050 135 461 0
2018-10-19 19:23:39 GMT 49.203995 10.429928 33,050 132 462 0
2018-10-19 19:23:36 GMT 49.209549 10.421729 33,050 135 461 64
2018-10-19 19:23:33 GMT 49.213070 10.416412 33,050 134 461 64
2018-10-19 19:23:30 GMT 49.218842 10.407504 33,025 134 461 64
2018-10-19 19:23:27 GMT 49.221962 10.402607 33,025 132 462 64
2018-10-19 19:23:24 GMT 49.226395 10.395531 33,025 132 462 64
2018-10-19 19:23:21 GMT 49.230759 10.388368 33,025 132 462 0
2018-10-19 19:23:17 GMT 49.236832 10.378066 33,025 130 462 0
2018-10-19 19:23:14 GMT 49.240768 10.371235 33,025 130 462 0
2018-10-19 19:23:11 GMT 49.246124 10.361727 33,025 130 462 0
2018-10-19 19:23:08 GMT 49.255417 10.344403 33,025 128 462 -64
2018-10-19 19:23:04 GMT 49.255417 10.344403 33,025 128 463 0
2018-10-19 19:23:01 GMT 49.258507 10.338496 33,025 128 463 0
2018-10-19 19:22:57 GMT 49.263016 10.329754 33,025 128 463 0
2018-10-19 19:22:54 GMT 49.267303 10.321511 33,025 128 463 0
2018-10-19 19:22:51 GMT 49.272079 10.312289 33,025 128 463 0
2018-10-19 19:22:46 GMT 49.279175 10.298598 33,025 128 463 0
2018-10-19 19:22:43 GMT 49.282295 10.292599 33,025 128 463 0
2018-10-19 19:22:40 GMT 49.287647 10.282191 32,950 128 462 64
2018-10-19 19:22:37 GMT 49.290813 10.276192 33,050 128 463 0
2018-10-19 19:22:34 GMT 49.293934 10.270121 33,025 128 463 0
2018-10-19 19:22:30 GMT 49.299286 10.259785 33,025 128 463 0
2018-10-19 19:22:26 GMT 49.304993 10.248765 33,025 128 463 0
2018-10-19 19:22:23 GMT 49.310623 10.237920 33,025 128 463 0
2018-10-19 19:22:19 GMT 49.314323 10.230729 33,025 128 463 64
2018-10-19 19:22:16 GMT 49.319954 10.219887 33,025 128 463 64
2018-10-19 19:22:13 GMT 49.321976 10.215947 33,025 128 463 64
2018-10-19 19:22:09 GMT 49.327652 10.204961 33,025 128 463 64
2018-10-19 19:22:05 GMT 49.341789 10.177677 33,000 128 463 64
2018-10-19 19:22:01 GMT 49.341789 10.177677 33,000 128 463 64
2018-10-19 19:21:58 GMT 49.343262 10.174960 33,000 128 463 64
2018-10-19 19:21:55 GMT 49.346069 10.169509 33,000 128 463 64
2018-10-19 19:21:52 GMT 49.349442 10.162917 33,000 128 463 64
2018-10-19 19:21:49 GMT 49.353428 10.155270 33,000 128 463 64
2018-10-19 19:21:46 GMT 49.357101 10.148187 33,000 128 463 64
2018-10-19 19:21:43 GMT 49.362457 10.137779 33,000 128 462 64
2018-10-19 19:21:39 GMT 49.369263 10.124676 33,000 128 462 64
2018-10-19 19:21:36 GMT 49.372971 10.117493 33,000 128 462 64
2018-10-19 19:21:32 GMT 49.376888 10.109879 33,000 128 462 64
2018-10-19 19:21:29 GMT 49.380611 10.102724 32,975 128 462 64
2018-10-19 19:21:26 GMT 49.385967 10.092316 32,975 128 462 64
2018-10-19 19:21:23 GMT 49.389599 10.085232 32,950 128 461 64
2018-10-19 19:21:20 GMT 49.395538 10.073759 32,975 128 462 64
2018-10-19 19:21:17 GMT 49.397556 10.069837 32,975 128 462 64
2018-10-19 19:21:14 GMT 49.400631 10.063910 32,975 128 462 64
2018-10-19 19:21:11 GMT 49.405151 10.055026 32,950 128 462 64
2018-10-19 19:21:08 GMT 49.413849 10.038107 32,950 128 461 64
2018-10-19 19:21:05 GMT 49.413849 10.038107 32,950 128 462 64
2018-10-19 19:21:02 GMT 49.416969 10.032035 32,950 128 462 64
2018-10-19 19:20:59 GMT 49.421207 10.023796 32,950 128 461 0
2018-10-19 19:20:56 GMT 49.424240 10.017841 32,950 128 461 0
2018-10-19 19:20:53 GMT 49.429028 10.008545 32,950 128 461 0
2018-10-19 19:20:49 GMT 49.432983 10.000811 32,950 128 461 0
2018-10-19 19:20:45 GMT 49.441689 9.983826 32,950 128 461 0
2018-10-19 19:20:41 GMT 49.444481 9.978407 32,950 128 461 0
2018-10-19 19:20:38 GMT 49.448410 9.970743 32,950 128 460 0
2018-10-19 19:20:34 GMT 49.452396 9.963041 32,950 128 460 0
2018-10-19 19:20:31 GMT 49.456833 9.954264 32,950 128 460 0
2018-10-19 19:20:28 GMT 49.461891 9.944409 32,950 128 460 0
2018-10-19 19:20:24 GMT 49.466354 9.935688 32,950 128 460 0
2018-10-19 19:20:20 GMT 49.471390 9.925858 32,950 128 460 0
2018-10-19 19:20:17 GMT 49.474834 9.919170 32,950 128 460 -64
2018-10-19 19:20:13 GMT 49.480652 9.907812 32,950 128 460 0
2018-10-19 19:20:10 GMT 49.485168 9.898971 32,950 128 460 0
2018-10-19 19:20:07 GMT 49.488785 9.891887 32,950 128 460 0
2018-10-19 19:20:01 GMT 49.497162 9.875480 32,950 128 460 0
2018-10-19 19:19:58 GMT 49.499954 9.870059 32,950 128 460 0
2018-10-19 19:19:55 GMT 49.504120 9.861820 32,950 128 460 0
2018-10-19 19:19:52 GMT 49.508652 9.853002 32,950 128 460 0
2018-10-19 19:19:48 GMT 49.512589 9.845309 32,950 128 460 0
2018-10-19 19:19:45 GMT 49.516777 9.837069 32,950 128 460 0
2018-10-19 19:19:42 GMT 49.526276 9.818511 32,950 128 460 0
2018-10-19 19:19:39 GMT 49.526276 9.818511 32,950 128 460 0
2018-10-19 19:19:36 GMT 49.530464 9.810271 32,950 128 460 0
2018-10-19 19:19:32 GMT 49.534332 9.802624 32,950 128 460 0
2018-10-19 19:19:29 GMT 49.539356 9.792753 32,950 128 460 0
2018-10-19 19:19:26 GMT 49.543304 9.785060 32,950 128 460 -64
2018-10-19 19:19:21 GMT 49.548569 9.774652 32,975 127 461 -64
2018-10-19 19:19:18 GMT 49.554207 9.763579 32,950 128 460 0
2018-10-19 19:19:15 GMT 49.556721 9.758680 32,950 128 460 0
2018-10-19 19:19:11 GMT 49.562302 9.747620 32,975 128 460 0
2018-10-19 19:19:08 GMT 49.566776 9.738860 32,975 127 462 0
2018-10-19 19:19:05 GMT 49.570408 9.731734 32,975 127 461 -64
2018-10-19 19:19:02 GMT 49.574081 9.724533 32,975 127 461 -64
2018-10-19 19:18:59 GMT 49.579605 9.713576 32,975 127 461 -64
2018-10-19 19:18:55 GMT 49.584137 9.704686 32,975 127 461 -64
2018-10-19 19:18:50 GMT 49.590843 9.691500 33,000 127 466 0
2018-10-19 19:18:46 GMT 49.596149 9.681034 33,000 127 461 -64
2018-10-19 19:18:40 GMT 49.604279 9.665005 33,000 127 461 -64
2018-10-19 19:18:37 GMT 49.607895 9.657850 33,000 127 461 0
2018-10-19 19:18:34 GMT 49.610672 9.652380 33,000 127 461 0
2018-10-19 19:18:31 GMT 49.614349 9.645105 33,000 127 462 0
2018-10-19 19:18:28 GMT 49.620216 9.633525 33,000 127 462 -64
2018-10-19 19:18:24 GMT 49.624649 9.624674 33,025 127 463 -64
2018-10-19 19:18:20 GMT 49.629711 9.614744 33,000 127 463 -64
2018-10-19 19:18:17 GMT 49.632832 9.608583 33,000 127 463 -64
2018-10-19 19:18:14 GMT 49.638138 9.598116 33,025 127 463 -64
2018-10-19 19:18:11 GMT 49.640652 9.593069 33,025 127 463 -64
2018-10-19 19:18:08 GMT 49.645447 9.583641 33,025 127 463 -64
2018-10-19 19:18:05 GMT 49.648819 9.576970 33,025 127 463 -64
2018-10-19 19:18:02 GMT 49.652710 9.569314 33,025 127 463 -64
2018-10-19 19:17:59 GMT 49.657505 9.559813 33,025 127 463 0
2018-10-19 19:17:56 GMT 49.660019 9.554765 33,025 127 463 0
2018-10-19 19:17:53 GMT 49.664253 9.546451 33,025 127 464 0
2018-10-19 19:17:50 GMT 49.668446 9.538137 33,025 127 464 0
2018-10-19 19:17:46 GMT 49.675472 9.524256 33,025 127 464 64
2018-10-19 19:17:43 GMT 49.677750 9.519726 33,025 127 465 0
2018-10-19 19:17:40 GMT 49.682781 9.509706 33,025 127 465 0
2018-10-19 19:17:37 GMT 49.684784 9.505698 33,025 127 466 0
2018-10-19 19:17:34 GMT 49.690090 9.495157 33,025 127 466 -64
2018-10-19 19:17:31 GMT 49.693176 9.489080 33,025 127 466 0
2018-10-19 19:17:28 GMT 49.697960 9.479494 33,025 127 466 0
2018-10-19 19:17:25 GMT 49.700500 9.474479 33,025 127 466 0
2018-10-19 19:17:22 GMT 49.705856 9.463854 33,025 127 466 0
2018-10-19 19:17:19 GMT 49.710667 9.454329 33,025 127 466 0
2018-10-19 19:17:15 GMT 49.714344 9.446980 33,025 127 466 0
2018-10-19 19:17:12 GMT 49.718857 9.437979 33,025 127 467 0
2018-10-19 19:17:09 GMT 49.725861 9.424029 34,975 127 467 0
2018-10-19 19:17:03 GMT 49.730667 9.414416 34,975 127 469 0
2018-10-19 19:17:00 GMT 49.734879 9.405959 33,025 127 467 64
2018-10-19 19:16:57 GMT 49.738831 9.398210 33,025 127 467 64
2018-10-19 19:16:54 GMT 49.743954 9.387966 33,025 127 467 64
2018-10-19 19:16:51 GMT 49.747604 9.380662 33,025 127 467 64
2018-10-19 19:16:48 GMT 49.749573 9.376759 33,025 127 468 64
2018-10-19 19:16:45 GMT 49.755478 9.364977 33,025 127 469 0
2018-10-19 19:16:40 GMT 49.760571 9.354784 33,025 127 468 0
2018-10-19 19:16:37 GMT 49.769669 9.336789 33,025 127 469 0
2018-10-19 19:16:33 GMT 49.769669 9.336789 33,025 127 469 0
2018-10-19 19:16:30 GMT 49.775024 9.326092 33,025 127 469 0
2018-10-19 19:16:27 GMT 49.777561 9.321009 33,025 127 469 0
2018-10-19 19:16:24 GMT 49.782394 9.311347 33,025 127 469 0
2018-10-19 19:16:21 GMT 49.786919 9.302376 33,025 127 469 0
2018-10-19 19:16:18 GMT 49.791412 9.293349 33,025 127 469 0
2018-10-19 19:16:14 GMT 49.795120 9.285905 33,025 127 469 0
2018-10-19 19:16:11 GMT 49.799629 9.276915 33,025 127 469 0
2018-10-19 19:16:08 GMT 49.803589 9.268919 33,025 127 469 0
2018-10-19 19:16:03 GMT 49.810043 9.255981 33,025 127 469 0
2018-10-19 19:16:00 GMT 49.815689 9.244624 33,025 127 470 0
2018-10-19 19:15:57 GMT 49.818249 9.239502 33,025 127 470 0
2018-10-19 19:15:54 GMT 49.821880 9.232153 33,025 127 469 64
2018-10-19 19:15:51 GMT 49.826118 9.223691 33,025 127 469 -64
2018-10-19 19:15:48 GMT 49.829285 9.217381 33,025 127 469 0
2018-10-19 19:15:45 GMT 49.838871 9.198155 33,025 127 470 0
2018-10-19 19:15:41 GMT 49.838871 9.198155 33,025 127 470 0
2018-10-19 19:15:38 GMT 49.842819 9.190136 33,025 127 470 0
2018-10-19 19:15:35 GMT 49.850693 9.174307 33,025 127 469 0
2018-10-19 19:15:32 GMT 49.850693 9.174307 35,000 128 466 0
2018-10-19 19:15:29 GMT 49.855545 9.164621 33,025 127 470 0
2018-10-19 19:15:26 GMT 49.858658 9.158333 33,025 127 470 0
2018-10-19 19:15:23 GMT 49.862614 9.150349 33,025 127 468 0
2018-10-19 19:15:20 GMT 49.866806 9.141926 33,025 127 470 0
2018-10-19 19:15:16 GMT 49.871338 9.132747 33,025 127 469 64
2018-10-19 19:15:13 GMT 49.879559 9.116277 33,025 127 469 64
2018-10-19 19:15:10 GMT 49.879559 9.116277 33,025 127 470 0
2018-10-19 19:15:06 GMT 49.885983 9.103286 33,025 127 470 0
2018-10-19 19:15:02 GMT 49.890221 9.094750 33,025 127 470 0
2018-10-19 19:14:59 GMT 49.895279 9.084465 33,025 127 469 0
2018-10-19 19:14:56 GMT 49.899204 9.076489 33,025 127 469 64
2018-10-19 19:14:53 GMT 49.903107 9.068563 33,025 127 469 0
2018-10-19 19:14:50 GMT 49.909584 9.055407 33,025 127 470 64
2018-10-19 19:14:47 GMT 49.909584 9.055407 33,025 127 470 64
2018-10-19 19:14:44 GMT 49.915741 9.042905 33,025 127 470 0
2018-10-19 19:14:41 GMT 49.918304 9.037773 35,000 127 468 0
2018-10-19 19:14:38 GMT 49.921646 9.030979 33,025 127 469 0
2018-10-19 19:14:35 GMT 49.926682 9.020715 33,025 127 469 0
2018-10-19 19:14:32 GMT 49.931488 9.010957 33,025 127 469 0
2018-10-19 19:14:29 GMT 49.934235 9.005320 33,025 127 469 64
2018-10-19 19:14:26 GMT 49.937897 8.997803 33,025 127 469 64
2018-10-19 19:14:23 GMT 49.942612 8.988190 33,025 127 469 64
2018-10-19 19:14:20 GMT 49.947144 8.978938 33,000 127 469 0
2018-10-19 19:14:16 GMT 49.951813 8.969325 33,000 127 469 0
2018-10-19 19:14:13 GMT 49.954102 8.964699 33,000 127 469 0
2018-10-19 19:14:10 GMT 49.959396 8.953783 33,000 127 469 0
2018-10-19 19:14:07 GMT 49.963585 8.945247 33,000 127 469 0
2018-10-19 19:14:04 GMT 49.967449 8.937304 33,000 127 469 0
2018-10-19 19:14:01 GMT 49.974976 8.921910 33,000 127 468 0
2018-10-19 19:13:58 GMT 49.974976 8.921910 33,000 126 467 64
2018-10-19 19:13:55 GMT 49.978592 8.914538 33,000 127 468 0
2018-10-19 19:13:51 GMT 49.984772 8.901961 33,000 127 468 0
2018-10-19 19:13:45 GMT 49.991180 8.888951 33,000 127 468 64
2018-10-19 19:13:42 GMT 49.995148 8.880962 33,000 127 468 0
2018-10-19 19:13:39 GMT 49.999649 8.871966 33,000 107 469 0
2018-10-19 19:13:34 GMT 50.005623 8.860028 33,000 128 467 0
2018-10-19 19:13:31 GMT 50.014187 8.843178 33,000 128 466 0
2018-10-19 19:13:25 GMT 50.019588 8.832637 33,000 129 466 64
2018-10-19 19:13:22 GMT 50.023357 8.825436 33,000 129 466 64
2018-10-19 19:13:19 GMT 50.027435 8.817612 33,000 129 466 0
2018-10-19 19:13:16 GMT 50.030914 8.811035 33,000 129 465 64
2018-10-19 19:13:13 GMT 50.034950 8.803389 33,000 129 465 64
2018-10-19 19:13:10 GMT 50.039658 8.794556 32,975 121 467 0
2018-10-19 19:13:07 GMT 50.043411 8.787400 32,975 128 465 128
2018-10-19 19:13:04 GMT 50.050827 8.772800 32,975 112 469 -64
2018-10-19 19:13:01 GMT 50.050827 8.772800 32,975 126 466 64
2018-10-19 19:12:58 GMT 50.054398 8.765427 32,975 124 466 0
2018-10-19 19:12:55 GMT 50.058086 8.757217 32,975 123 467 0
2018-10-19 19:12:52 GMT 50.062229 8.746973 32,975 119 468 0
2018-10-19 19:12:49 GMT 50.064972 8.739479 32,975 114 468 0
2018-10-19 19:12:46 GMT 50.068176 8.729939 32,975 117 468 0
2018-10-19 19:12:42 GMT 50.074566 8.706888 32,975 110 469 -64
2018-10-19 19:12:39 GMT 50.077011 8.696112 32,975 108 469 -64
2018-10-19 19:12:36 GMT 50.078709 8.687884 32,975 107 469 0
2018-10-19 19:12:33 GMT 50.078709 8.687884 32,975 107 469 0
2018-10-19 19:12:30 GMT 50.080570 8.678902 32,975 107 469 0
2018-10-19 19:12:27 GMT 50.082619 8.668584 32,975 107 468 64
2018-10-19 19:12:24 GMT 50.084152 8.661130 32,975 107 469 0
2018-10-19 19:12:21 GMT 50.085785 8.652921 32,975 107 468 0
2018-10-19 19:12:18 GMT 50.088161 8.641192 32,975 107 469 -64
2018-10-19 19:12:15 GMT 50.090103 8.631568 32,975 107 468 0
2018-10-19 19:12:12 GMT 50.092022 8.622115 32,975 107 468 0
2018-10-19 19:12:09 GMT 50.093838 8.613133 32,975 107 468 0
2018-10-19 19:12:06 GMT 50.096329 8.600777 32,975 107 468 0
2018-10-19 19:12:03 GMT 50.097794 8.593332 32,975 107 468 0
2018-10-19 19:12:00 GMT 50.100449 8.580250 32,975 107 468 0
2018-10-19 19:11:57 GMT 50.102077 8.572008 33,025 107 467 0
2018-10-19 19:11:54 GMT 50.104176 8.561764 32,975 107 468 64
2018-10-19 19:11:51 GMT 50.105385 8.555603 32,975 107 468 0
2018-10-19 19:11:48 GMT 50.107990 8.542612 32,975 107 468 0
2018-10-19 19:11:45 GMT 50.110039 8.532294 32,975 107 468 0
2018-10-19 19:11:42 GMT 50.111530 8.524723 32,975 107 468 64
2018-10-19 19:11:39 GMT 50.113064 8.517151 32,975 107 467 0
2018-10-19 19:11:36 GMT 50.115051 8.507032 32,975 107 467 0
2018-10-19 19:11:33 GMT 50.117115 8.496663 32,975 107 467 0
2018-10-19 19:11:30 GMT 50.118896 8.487734 32,975 107 467 0
2018-10-19 19:11:27 GMT 50.120792 8.478253 32,975 107 467 0
2018-10-19 19:11:24 GMT 50.122795 8.468009 32,975 107 466 0
2018-10-19 19:11:21 GMT 50.124985 8.456943 32,975 107 467 0
2018-10-19 19:11:18 GMT 50.128380 8.439875 32,975 107 467 0
2018-10-19 19:11:15 GMT 50.130939 8.426885 32,975 107 467 0
2018-10-19 19:11:12 GMT 50.130939 8.426885 32,975 107 467 0
2018-10-19 19:11:08 GMT 50.132988 8.416567 32,975 107 467 0
2018-10-19 19:11:05 GMT 50.137894 8.391892 32,975 107 467 0
2018-10-19 19:11:01 GMT 50.137894 8.391892 32,975 107 467 -64
2018-10-19 19:10:58 GMT 50.139786 8.382271 33,000 107 467 0
2018-10-19 19:10:54 GMT 50.141556 8.373289 32,975 107 467 -64
2018-10-19 19:10:51 GMT 50.144115 8.360299 32,975 107 467 0
2018-10-19 19:10:47 GMT 50.146271 8.349393 32,975 107 467 0
2018-10-19 19:10:44 GMT 50.148167 8.339811 33,000 107 467 0
2018-10-19 19:10:41 GMT 50.150345 8.328865 32,975 107 467 0
2018-10-19 19:10:38 GMT 50.154263 8.308930 32,975 107 467 0
2018-10-19 19:10:35 GMT 50.154263 8.308930 33,000 107 467 0
2018-10-19 19:10:32 GMT 50.157761 8.291208 33,000 107 467 0
2018-10-19 19:10:26 GMT 50.162086 8.269216 33,000 107 467 0
2018-10-19 19:10:23 GMT 50.162086 8.269216 33,000 107 467 0
2018-10-19 19:10:20 GMT 50.163986 8.259623 33,000 107 468 -64
2018-10-19 19:10:16 GMT 50.165901 8.249990 33,000 107 467 0
2018-10-19 19:10:12 GMT 50.168335 8.237722 33,000 107 467 0
2018-10-19 19:10:09 GMT 50.170624 8.226013 33,000 107 467 -64
2018-10-19 19:10:06 GMT 50.172791 8.215101 33,000 107 468 0
2018-10-19 19:10:03 GMT 50.174004 8.208791 33,000 107 468 -64
2018-10-19 19:10:00 GMT 50.176563 8.195801 33,000 107 468 -128
2018-10-19 19:09:57 GMT 50.177765 8.189585 33,025 107 468 -64
2018-10-19 19:09:54 GMT 50.180332 8.176575 33,025 106 468 -64
2018-10-19 19:09:51 GMT 50.182335 8.166256 33,025 106 468 -64
2018-10-19 19:09:48 GMT 50.183578 8.160095 33,025 106 468 0
2018-10-19 19:09:45 GMT 50.185043 8.152506 33,025 106 468 -64
2018-10-19 19:09:42 GMT 50.187687 8.138865 33,025 106 469 0
2018-10-19 19:09:39 GMT 50.189457 8.129809 33,025 106 468 -64
2018-10-19 19:09:35 GMT 50.192276 8.115355 33,025 106 468 -64
2018-10-19 19:09:32 GMT 50.193604 8.108488 33,025 106 468 0
2018-10-19 19:09:29 GMT 50.195572 8.098153 33,025 106 469 0
2018-10-19 19:09:26 GMT 50.197311 8.089262 33,025 106 469 0
2018-10-19 19:09:23 GMT 50.199326 8.078926 33,025 106 469 0
2018-10-19 19:09:20 GMT 50.203190 8.058917 33,025 106 469 0
2018-10-19 19:09:14 GMT 50.204914 8.050009 33,025 106 469 64
2018-10-19 19:09:11 GMT 50.207108 8.038956 33,025 106 469 0
2018-10-19 19:09:08 GMT 50.209351 8.027320 33,025 106 469 64
2018-10-19 19:09:05 GMT 50.211136 8.018285 33,025 106 469 64
2018-10-19 19:09:02 GMT 50.212219 8.012671 33,025 106 469 64
2018-10-19 19:08:59 GMT 50.214340 8.001733 33,025 106 469 64
2018-10-19 19:08:56 GMT 50.216583 7.990024 33,025 106 469 0
2018-10-19 19:08:53 GMT 50.218460 7.980305 33,025 106 469 -64
2018-10-19 19:08:50 GMT 50.220181 7.971249 33,025 106 469 -64
2018-10-19 19:08:47 GMT 50.221664 7.963715 33,025 106 469 -64
2018-10-19 19:08:44 GMT 50.223907 7.951933 33,025 106 470 -64
2018-10-19 19:08:41 GMT 50.226151 7.940296 33,025 106 470 -64
2018-10-19 19:08:38 GMT 50.230701 7.916689 33,050 106 469 -64
2018-10-19 19:08:34 GMT 50.230701 7.916689 33,025 106 469 0
2018-10-19 19:08:31 GMT 50.231598 7.911891 33,050 106 470 0
2018-10-19 19:08:28 GMT 50.234161 7.898809 33,050 106 469 -64
2018-10-19 19:08:25 GMT 50.238144 7.878065 33,050 106 470 0
2018-10-19 19:08:21 GMT 50.238144 7.878065 33,050 106 470 0
2018-10-19 19:08:18 GMT 50.240154 7.867547 33,025 106 470 0
2018-10-19 19:08:15 GMT 50.241505 7.860718 33,025 106 470 0
2018-10-19 19:08:12 GMT 50.243637 7.849659 33,050 106 470 0
2018-10-19 19:08:09 GMT 50.245228 7.841417 33,050 106 470 0
2018-10-19 19:08:06 GMT 50.247940 7.827542 33,050 106 470 0
2018-10-19 19:08:03 GMT 50.249512 7.819222 33,050 106 469 0
2018-10-19 19:08:00 GMT 50.251511 7.808830 33,050 106 469 0
2018-10-19 19:07:57 GMT 50.253113 7.800582 33,050 106 469 0
2018-10-19 19:07:54 GMT 50.255005 7.790940 33,050 106 469 0
2018-10-19 19:07:51 GMT 50.256866 7.781211 33,050 106 469 0
2018-10-19 19:07:48 GMT 50.258560 7.772249 33,025 106 469 0
2018-10-19 19:07:45 GMT 50.260448 7.762509 33,050 106 469 64
2018-10-19 19:07:42 GMT 50.262314 7.752806 35,025 106 468 0
2018-10-19 19:07:39 GMT 50.264832 7.739724 33,025 106 467 0
2018-10-19 19:07:35 GMT 50.266174 7.732668 33,025 106 469 64
2018-10-19 19:07:32 GMT 50.268642 7.719603 33,025 106 470 64
2018-10-19 19:07:29 GMT 50.270782 7.708572 33,025 106 469 0
2018-10-19 19:07:26 GMT 50.272476 7.699609 33,025 106 470 64
2018-10-19 19:07:23 GMT 50.274090 7.691172 33,025 106 470 64
2018-10-19 19:07:20 GMT 50.276184 7.680094 33,000 106 469 64
2018-10-19 19:07:17 GMT 50.278557 7.667640 33,025 106 469 64
2018-10-19 19:07:14 GMT 50.279629 7.662222 33,025 106 469 0
2018-10-19 19:07:11 GMT 50.281349 7.653091 33,025 106 469 0
2018-10-19 19:07:08 GMT 50.283352 7.642773 33,000 106 469 0
2018-10-19 19:07:05 GMT 50.285542 7.631044 33,000 106 468 0
2018-10-19 19:07:02 GMT 50.287399 7.621331 33,000 106 469 0
2018-10-19 19:06:59 GMT 50.288864 7.613670 33,000 106 469 0
2018-10-19 19:06:56 GMT 50.291107 7.602033 33,000 106 465 0
2018-10-19 19:06:53 GMT 50.293350 7.590179 33,000 106 469 0
2018-10-19 19:06:49 GMT 50.295822 7.577097 33,000 106 469 0
2018-10-19 19:06:46 GMT 50.297832 7.566611 33,000 106 469 0
2018-10-19 19:06:43 GMT 50.299366 7.558445 33,000 106 469 64
2018-10-19 19:06:40 GMT 50.300812 7.550799 33,000 106 469 64
2018-10-19 19:06:37 GMT 50.303192 7.538356 33,000 106 469 64
2018-10-19 19:06:34 GMT 50.304768 7.530014 33,000 106 468 0
2018-10-19 19:06:28 GMT 50.310516 7.499615 33,000 106 468 0
2018-10-19 19:06:25 GMT 50.310516 7.499615 33,000 104 463 0
2018-10-19 19:06:22 GMT 50.311798 7.492750 33,000 106 468 0
2018-10-19 19:06:19 GMT 50.313519 7.483694 33,000 106 468 0
2018-10-19 19:06:16 GMT 50.315460 7.473450 33,000 106 468 0
2018-10-19 19:06:13 GMT 50.317566 7.462319 33,000 106 468 0
2018-10-19 19:06:10 GMT 50.319386 7.452591 33,000 106 467 0
2018-10-19 19:06:07 GMT 50.320923 7.444425 33,000 106 467 0
2018-10-19 19:06:03 GMT 50.324039 7.427871 33,000 106 467 0
2018-10-19 19:06:00 GMT 50.325249 7.421562 32,975 106 465 0
2018-10-19 19:05:57 GMT 50.326904 7.412664 33,000 106 466 0
2018-10-19 19:05:53 GMT 50.329239 7.400232 33,000 106 467 0
2018-10-19 19:05:50 GMT 50.331303 7.389271 32,975 106 466 0
2018-10-19 19:05:47 GMT 50.333130 7.379560 32,975 106 466 0
2018-10-19 19:05:44 GMT 50.335213 7.368560 33,000 106 466 64
2018-10-19 19:05:40 GMT 50.337631 7.355569 32,975 106 466 0
2018-10-19 19:05:34 GMT 50.341644 7.334097 32,975 106 465 0
2018-10-19 19:05:31 GMT 50.343063 7.326652 32,975 106 465 0
2018-10-19 19:05:27 GMT 50.345406 7.314222 32,975 106 464 0
2018-10-19 19:05:24 GMT 50.347084 7.305166 32,975 106 465 0
2018-10-19 19:05:21 GMT 50.349270 7.293586 32,975 106 465 0
2018-10-19 19:05:18 GMT 50.351074 7.283863 32,975 106 465 0
2018-10-19 19:05:15 GMT 50.352310 7.277069 32,975 106 465 0
2018-10-19 19:05:11 GMT 50.355274 7.261221 32,975 106 465 0
2018-10-19 19:05:08 GMT 50.356720 7.253575 32,975 106 465 0
2018-10-19 19:05:05 GMT 50.358490 7.244038 32,975 106 465 -64
2018-10-19 19:05:01 GMT 50.360817 7.231676 32,975 106 465 0
2018-10-19 19:04:58 GMT 50.364403 7.212302 32,975 106 465 0
2018-10-19 19:04:55 GMT 50.365795 7.204730 32,975 106 465 0
2018-10-19 19:04:49 GMT 50.368496 7.190403 32,975 106 465 0
2018-10-19 19:04:46 GMT 50.370300 7.180722 32,975 106 464 0
2018-10-19 19:04:43 GMT 50.372082 7.171029 33,000 105 464 0
2018-10-19 19:04:40 GMT 50.375946 7.150392 32,975 106 464 0
2018-10-19 19:04:37 GMT 50.375946 7.150392 32,975 106 465 0
2018-10-19 19:04:34 GMT 50.377575 7.141559 32,975 106 465 -64
2018-10-19 19:04:30 GMT 50.380142 7.127742 32,975 106 465 0
2018-10-19 19:04:27 GMT 50.383347 7.110604 32,975 106 465 0
2018-10-19 19:04:24 GMT 50.383347 7.110604 32,975 106 465 0
2018-10-19 19:04:21 GMT 50.384975 7.101548 32,975 106 465 0
2018-10-19 19:04:17 GMT 50.387512 7.087844 35,000 106 475 -6272
2018-10-19 19:04:14 GMT 50.389160 7.078954 32,975 106 465 0
2018-10-19 19:04:11 GMT 50.390564 7.071335 32,975 106 465 0
2018-10-19 19:04:08 GMT 50.393078 7.057528 32,975 106 465 0
2018-10-19 19:04:04 GMT 50.394836 7.048019 32,975 106 465 0
2018-10-19 19:04:01 GMT 50.397034 7.036224 32,975 106 465 -64
2018-10-19 19:03:57 GMT 50.399414 7.023227 32,975 106 465 -64
2018-10-19 19:03:54 GMT 50.401455 7.012098 32,975 105 464 0
2018-10-19 19:03:51 GMT 50.405785 6.988715 32,975 106 465 -64
2018-10-19 19:03:47 GMT 50.405785 6.988715 33,000 105 464 -64
2018-10-19 19:03:43 GMT 50.407646 6.978397 33,000 105 464 -64
2018-10-19 19:03:40 GMT 50.409164 6.970175 33,000 105 464 -64
2018-10-19 19:03:37 GMT 50.411362 6.958393 33,000 105 464 0
2018-10-19 19:03:34 GMT 50.413467 6.946829 33,000 105 464 0
2018-10-19 19:03:31 GMT 50.414722 6.939796 33,000 105 464 -64
2018-10-19 19:03:28 GMT 50.416492 6.930295 33,000 105 464 0
2018-10-19 19:03:25 GMT 50.418137 6.921242 33,000 105 465 0
2018-10-19 19:03:22 GMT 50.420170 6.910252 33,000 105 464 -64
2018-10-19 19:03:16 GMT 50.423428 6.892288 33,000 105 464 -64
2018-10-19 19:03:13 GMT 50.425571 6.880708 33,000 105 464 -64
2018-10-19 19:03:10 GMT 50.427479 6.870315 33,000 105 464 -64
2018-10-19 19:03:07 GMT 50.428391 6.865443 33,025 105 465 0
2018-10-19 19:03:04 GMT 50.430496 6.853806 33,025 105 464 -64
2018-10-19 19:03:01 GMT 50.433060 6.839929 33,025 105 464 0
2018-10-19 19:02:58 GMT 50.434433 6.832340 33,025 105 464 0
2018-10-19 19:02:54 GMT 50.436813 6.819257 33,025 105 464 0
2018-10-19 19:02:51 GMT 50.438839 6.808257 33,025 105 465 0
2018-10-19 19:02:48 GMT 50.439972 6.802055 33,025 105 465 0
2018-10-19 19:02:45 GMT 50.441895 6.791719 33,025 105 465 0
2018-10-19 19:02:42 GMT 50.443542 6.782684 33,025 105 465 0
2018-10-19 19:02:39 GMT 50.445309 6.773071 33,025 105 465 0
2018-10-19 19:02:36 GMT 50.447296 6.761940 33,025 105 466 0
2018-10-19 19:02:33 GMT 50.449219 6.751544 33,025 105 465 0
2018-10-19 19:02:30 GMT 50.450363 6.745316 33,025 105 466 0
2018-10-19 19:02:27 GMT 50.452339 6.734322 33,025 105 466 0
2018-10-19 19:02:24 GMT 50.454346 6.723271 33,025 105 466 -64
2018-10-19 19:02:21 GMT 50.457737 6.704555 33,025 105 467 64
2018-10-19 19:02:18 GMT 50.457737 6.704555 33,025 105 466 0
2018-10-19 19:02:12 GMT 50.461121 6.685831 33,025 105 468 0
2018-10-19 19:02:09 GMT 50.463272 6.674050 33,025 105 466 0
2018-10-19 19:02:06 GMT 50.464394 6.667810 33,025 105 466 0
2018-10-19 19:02:02 GMT 50.466797 6.654679 33,025 105 466 0
2018-10-19 19:01:59 GMT 50.469406 6.640079 33,025 105 467 64
2018-10-19 19:01:56 GMT 50.470680 6.633070 33,025 105 468 0
2018-10-19 19:01:52 GMT 50.475586 6.605963 33,025 105 467 0
2018-10-19 19:01:47 GMT 50.475586 6.605963 33,000 105 467 64
2018-10-19 19:01:44 GMT 50.478172 6.591351 33,000 105 468 0
2018-10-19 19:01:41 GMT 50.479431 6.584448 33,000 105 468 0
2018-10-19 19:01:38 GMT 50.481293 6.574055 33,025 105 468 0
2018-10-19 19:01:35 GMT 50.483047 6.564259 33,025 105 468 0
2018-10-19 19:01:32 GMT 50.485153 6.552477 33,025 105 468 -64
2018-10-19 19:01:29 GMT 50.486649 6.544140 33,025 105 468 0
2018-10-19 19:01:26 GMT 50.488277 6.535009 33,025 105 468 0
2018-10-19 19:01:23 GMT 50.490005 6.525301 33,025 105 468 0
2018-10-19 19:01:20 GMT 50.493629 6.505094 33,025 105 468 0
2018-10-19 19:01:17 GMT 50.493629 6.505094 33,025 105 468 0
2018-10-19 19:01:14 GMT 50.495865 6.492559 33,025 105 468 0
2018-10-19 19:01:11 GMT 50.497696 6.482078 33,025 105 468 0
2018-10-19 19:01:08 GMT 50.498703 6.476515 33,025 105 468 0
2018-10-19 19:01:05 GMT 50.500797 6.464712 33,025 105 469 64
2018-10-19 19:00:59 GMT 50.504524 6.443778 33,000 105 468 64
2018-10-19 19:00:55 GMT 50.506153 6.434648 33,000 105 468 0
2018-10-19 19:00:52 GMT 50.509830 6.413714 33,000 105 469 64
2018-10-19 19:00:49 GMT 50.511337 6.405391 33,000 105 469 64
2018-10-19 19:00:46 GMT 50.513554 6.392781 33,000 105 469 64
2018-10-19 19:00:43 GMT 50.513554 6.392781 33,000 105 469 64
2018-10-19 19:00:40 GMT 50.515274 6.383129 33,000 105 470 -64
2018-10-19 19:00:37 GMT 50.516674 6.375411 33,000 105 469 64
2018-10-19 19:00:34 GMT 50.518661 6.364264 33,000 105 469 64
2018-10-19 19:00:31 GMT 50.520771 6.352325 32,975 105 469 0
2018-10-19 19:00:28 GMT 50.522141 6.344604 32,975 105 469 0
2018-10-19 19:00:25 GMT 50.523468 6.337015 32,975 105 469 64
2018-10-19 19:00:22 GMT 50.525848 6.323644 32,975 105 469 0
2018-10-19 19:00:19 GMT 50.527382 6.315283 32,975 105 469 64
2018-10-19 19:00:16 GMT 50.529602 6.302755 32,975 105 469 64
2018-10-19 19:00:13 GMT 50.532578 6.285987 32,975 105 469 64
2018-10-19 19:00:10 GMT 50.532578 6.285987 32,975 105 469 64
2018-10-19 19:00:07 GMT 50.534039 6.277573 32,975 105 469 64
2018-10-19 19:00:04 GMT 50.536011 6.266471 32,975 105 469 64
2018-10-19 19:00:01 GMT 50.537762 6.256640 32,975 105 469 64
2018-10-19 18:59:58 GMT 50.539345 6.247583 32,975 105 469 0
2018-10-19 18:59:52 GMT 50.543533 6.223829 32,975 105 468 -64
2018-10-19 18:59:49 GMT 50.545029 6.215443 32,975 105 470 -64
2018-10-19 18:59:46 GMT 50.546513 6.206904 32,975 105 469 0
2018-10-19 18:59:43 GMT 50.548325 6.196578 32,975 105 468 0
2018-10-19 18:59:40 GMT 50.551254 6.179737 32,975 105 468 0
2018-10-19 18:59:37 GMT 50.553497 6.167190 32,975 105 469 0
2018-10-19 18:59:34 GMT 50.553497 6.167190 32,975 105 468 0
2018-10-19 18:59:31 GMT 50.554848 6.159470 32,975 105 468 0
2018-10-19 18:59:28 GMT 50.556942 6.147519 32,975 105 468 0
2018-10-19 18:59:25 GMT 50.558853 6.136370 32,975 105 468 0
2018-10-19 18:59:22 GMT 50.560226 6.128636 32,975 105 470 -64
2018-10-19 18:59:19 GMT 50.561920 6.118939 32,975 105 469 0
2018-10-19 18:59:16 GMT 50.565491 6.098569 32,975 105 469 0
2018-10-19 18:59:10 GMT 50.567696 6.085980 32,975 105 469 0
2018-10-19 18:59:07 GMT 50.568558 6.081077 32,975 105 469 0
2018-10-19 18:59:04 GMT 50.570393 6.070466 32,975 105 469 0
2018-10-19 18:59:01 GMT 50.572117 6.060742 32,975 105 469 0
2018-10-19 18:58:58 GMT 50.574535 6.046637 32,975 105 470 0
2018-10-19 18:58:55 GMT 50.576118 6.037581 32,975 105 469 0
2018-10-19 18:58:52 GMT 50.577747 6.028376 32,975 105 470 0
2018-10-19 18:58:49 GMT 50.579041 6.020725 32,975 105 470 0
2018-10-19 18:58:46 GMT 50.582825 5.999055 32,975 105 470 -64
2018-10-19 18:58:43 GMT 50.582825 5.999055 32,975 105 470 -64
2018-10-19 18:58:39 GMT 50.584919 5.987029 33,000 105 470 -64
2018-10-19 18:58:36 GMT 50.587921 5.969551 32,975 105 470 0
2018-10-19 18:58:29 GMT 50.590366 5.955481 32,975 105 470 0
2018-10-19 18:58:26 GMT 50.592182 5.944940 32,975 105 470 0
2018-10-19 18:58:23 GMT 50.597206 5.916063 33,000 105 471 0
2018-10-19 18:58:18 GMT 50.597206 5.916063 32,975 105 471 0
2018-10-19 18:58:15 GMT 50.599136 5.904862 32,975 105 471 0
2018-10-19 18:58:12 GMT 50.600094 5.899139 33,000 105 471 0
2018-10-19 18:58:09 GMT 50.602524 5.885130 32,975 105 471 0
2018-10-19 18:58:06 GMT 50.603260 5.880803 32,975 105 478 -64
2018-10-19 18:58:03 GMT 50.605309 5.868926 33,000 105 478 -64
2018-10-19 18:58:00 GMT 50.608986 5.847696 32,975 105 472 -64
2018-10-19 18:57:57 GMT 50.608986 5.847696 32,975 105 472 -64
2018-10-19 18:57:54 GMT 50.610569 5.838491 33,000 105 473 -64
2018-10-19 18:57:51 GMT 50.612244 5.828618 33,000 105 473 -64
2018-10-19 18:57:48 GMT 50.614334 5.816610 33,000 105 473 -64
2018-10-19 18:57:45 GMT 50.615799 5.808081 33,000 105 473 0
2018-10-19 18:57:42 GMT 50.616993 5.801078 33,000 105 474 0
2018-10-19 18:57:39 GMT 50.620514 5.780543 33,000 105 474 0
2018-10-19 18:57:33 GMT 50.622345 5.769918 33,000 105 474 0
2018-10-19 18:57:30 GMT 50.624405 5.757920 33,000 105 474 0
2018-10-19 18:57:27 GMT 50.625961 5.748668 33,000 105 474 64
2018-10-19 18:57:24 GMT 50.627934 5.737313 32,975 105 474 64
2018-10-19 18:57:21 GMT 50.631565 5.716083 32,975 105 474 64
2018-10-19 18:57:17 GMT 50.631565 5.716083 32,975 105 475 0
2018-10-19 18:57:14 GMT 50.633011 5.707542 32,975 105 475 0
2018-10-19 18:57:11 GMT 50.636398 5.687665 32,975 105 475 64
2018-10-19 18:57:08 GMT 50.636398 5.687665 32,975 105 475 0
2018-10-19 18:57:05 GMT 50.638359 5.676220 32,975 104 476 0
2018-10-19 18:57:02 GMT 50.640408 5.664194 32,975 104 476 0
2018-10-19 18:56:59 GMT 50.641663 5.657019 32,975 105 476 0
2018-10-19 18:56:56 GMT 50.645065 5.637100 32,975 104 477 0
2018-10-19 18:56:50 GMT 50.646515 5.628542 32,975 104 476 0
2018-10-19 18:56:47 GMT 50.648697 5.615721 32,975 104 477 0
2018-10-19 18:56:44 GMT 50.650837 5.602879 32,975 104 477 0
2018-10-19 18:56:41 GMT 50.651962 5.596450 32,975 104 477 0
2018-10-19 18:56:38 GMT 50.655212 5.577120 32,975 104 477 0
2018-10-19 18:56:32 GMT 50.657261 5.564946 32,975 104 478 -64
2018-10-19 18:56:29 GMT 50.658463 5.557853 32,975 104 478 -128
2018-10-19 18:56:26 GMT 50.660660 5.544978 32,975 104 478 -64
2018-10-19 18:56:23 GMT 50.662354 5.534941 33,000 104 478 -64
2018-10-19 18:56:20 GMT 50.664291 5.523525 33,000 104 478 -64
2018-10-19 18:56:17 GMT 50.665642 5.515582 33,000 104 479 -64
2018-10-19 18:56:13 GMT 50.668201 5.500513 33,000 104 479 -64
2018-10-19 18:56:10 GMT 50.669502 5.492719 33,000 104 479 -64
2018-10-19 18:56:07 GMT 50.673367 5.469742 33,000 104 479 -64
2018-10-19 18:56:04 GMT 50.674484 5.463257 33,025 104 479 -64
2018-10-19 18:55:58 GMT 50.676178 5.453227 33,025 104 480 -64
2018-10-19 18:55:55 GMT 50.678467 5.439569 33,025 104 480 -64
2018-10-19 18:55:52 GMT 50.680397 5.428162 33,025 104 480 -64
2018-10-19 18:55:49 GMT 50.681747 5.420151 33,025 104 479 -64
2018-10-19 18:55:46 GMT 50.683189 5.411530 33,025 104 479 -64
2018-10-19 18:55:43 GMT 50.685104 5.400077 33,025 104 480 -64
2018-10-19 18:55:40 GMT 50.686913 5.389175 33,050 104 483 0
2018-10-19 18:55:34 GMT 50.691757 5.360336 33,050 104 480 -64
2018-10-19 18:55:31 GMT 50.691757 5.360336 33,050 104 480 -64
2018-10-19 18:55:28 GMT 50.694992 5.340840 33,050 104 481 0
2018-10-19 18:55:22 GMT 50.696922 5.329361 33,050 104 481 -64
2018-10-19 18:55:19 GMT 50.698738 5.318527 33,050 104 481 0
2018-10-19 18:55:16 GMT 50.700668 5.306990 33,050 104 481 0
2018-10-19 18:55:10 GMT 50.703552 5.289620 33,050 104 482 0
2018-10-19 18:55:06 GMT 50.706234 5.273590 33,050 104 483 0
2018-10-19 18:55:03 GMT 50.707302 5.267105 33,050 104 482 0
2018-10-19 18:55:00 GMT 50.709866 5.251923 33,050 104 483 0
2018-10-19 18:54:57 GMT 50.711517 5.241815 33,050 104 483 0
2018-10-19 18:54:54 GMT 50.712616 5.235282 33,050 104 483 0
2018-10-19 18:54:51 GMT 50.714172 5.225781 33,050 104 483 0
2018-10-19 18:54:48 GMT 50.715637 5.217095 33,050 104 483 0
2018-10-19 18:54:45 GMT 50.719254 5.195271 33,050 104 484 0
2018-10-19 18:54:38 GMT 50.721783 5.179977 33,050 104 484 0
2018-10-19 18:54:34 GMT 50.724297 5.164719 33,050 104 484 0
2018-10-19 18:54:28 GMT 50.728764 5.137863 33,050 104 484 0
2018-10-19 18:54:25 GMT 50.728764 5.137863 33,050 104 484 0
2018-10-19 18:54:22 GMT 50.730469 5.127572 33,050 104 485 0
2018-10-19 18:54:19 GMT 50.734543 5.102852 33,050 104 485 0
2018-10-19 18:54:16 GMT 50.734543 5.102852 33,050 104 485 0
2018-10-19 18:54:13 GMT 50.737797 5.083160 33,050 104 485 0
2018-10-19 18:54:10 GMT 50.737797 5.083160 33,050 104 485 0
2018-10-19 18:54:07 GMT 50.741150 5.062714 33,000 104 482 -64
2018-10-19 18:54:04 GMT 50.741150 5.062714 33,050 104 485 0
2018-10-19 18:54:01 GMT 50.742966 5.051855 33,050 104 485 0
2018-10-19 18:53:58 GMT 50.744019 5.045323 33,050 104 485 0
2018-10-19 18:53:55 GMT 50.747635 5.023424 33,050 104 485 0
2018-10-19 18:53:49 GMT 50.749649 5.010953 33,050 104 485 0
2018-10-19 18:53:46 GMT 50.751480 5.000041 33,050 104 485 0
2018-10-19 18:53:40 GMT 50.754696 4.980316 33,050 104 485 64
2018-10-19 18:53:37 GMT 50.756378 4.970052 33,050 104 485 64
2018-10-19 18:53:34 GMT 50.758163 4.959065 33,050 104 485 64
2018-10-19 18:53:30 GMT 50.759815 4.948959 33,025 104 485 64
2018-10-19 18:53:26 GMT 50.762329 4.933624 33,025 104 485 64
2018-10-19 18:53:22 GMT 50.766563 4.907303 33,025 104 485 128
2018-10-19 18:53:19 GMT 50.766563 4.907303 33,025 104 485 128
2018-10-19 18:53:16 GMT 50.768005 4.898566 33,025 104 485 64
2018-10-19 18:53:13 GMT 50.769562 4.888990 33,025 104 485 64
2018-10-19 18:53:10 GMT 50.771301 4.878078 33,025 104 485 64
2018-10-19 18:53:07 GMT 50.772476 4.870758 33,000 104 485 64
2018-10-19 18:53:04 GMT 50.774139 4.860485 33,000 104 485 64
2018-10-19 18:53:01 GMT 50.775784 4.850388 33,000 104 483 -64
2018-10-19 18:52:58 GMT 50.777206 4.841630 33,000 104 485 64
2018-10-19 18:52:55 GMT 50.779678 4.826264 33,000 104 485 128
2018-10-19 18:52:49 GMT 50.783092 4.805069 33,000 104 485 64
2018-10-19 18:52:46 GMT 50.784630 4.795609 32,975 104 485 64
2018-10-19 18:52:43 GMT 50.785698 4.788971 32,975 104 484 64
2018-10-19 18:52:40 GMT 50.787933 4.775162 32,975 104 484 0
2018-10-19 18:52:34 GMT 50.791122 4.755447 32,975 104 484 0
2018-10-19 18:52:31 GMT 50.792683 4.746017 32,975 104 483 -128
2018-10-19 18:52:28 GMT 50.794590 4.734268 33,000 104 483 0
2018-10-19 18:52:25 GMT 50.796219 4.724197 33,000 104 481 0
2018-10-19 18:52:22 GMT 50.797165 4.718331 32,975 104 483 -64
2018-10-19 18:52:19 GMT 50.799522 4.703903 33,000 104 482 0
2018-10-19 18:52:16 GMT 50.800919 4.695171 33,000 104 481 -64
2018-10-19 18:52:13 GMT 50.802551 4.684982 33,000 104 481 -64
2018-10-19 18:52:10 GMT 50.803986 4.676241 33,000 104 481 0
2018-10-19 18:52:07 GMT 50.806087 4.663239 33,000 104 481 0
2018-10-19 18:52:04 GMT 50.809250 4.643654 33,000 104 481 0
2018-10-19 18:52:01 GMT 50.811218 4.631257 33,000 104 480 0
2018-10-19 18:51:58 GMT 50.811218 4.631257 35,000 104 479 0
2018-10-19 18:51:55 GMT 50.812271 4.624725 33,000 104 480 -64
2018-10-19 18:51:52 GMT 50.813862 4.614563 33,000 104 480 -64
2018-10-19 18:51:49 GMT 50.815491 4.604492 33,000 104 480 -64
2018-10-19 18:51:45 GMT 50.818130 4.587757 33,000 104 480 0
2018-10-19 18:51:42 GMT 50.818935 4.582748 33,000 104 480 0
2018-10-19 18:51:39 GMT 50.820923 4.570387 33,000 104 480 0
2018-10-19 18:51:35 GMT 50.822754 4.558868 33,000 104 479 0
2018-10-19 18:51:32 GMT 50.825317 4.542995 33,000 104 480 0
2018-10-19 18:51:29 GMT 50.826477 4.535599 33,000 104 479 0
2018-10-19 18:51:26 GMT 50.829971 4.513931 33,000 104 479 0
2018-10-19 18:51:23 GMT 50.829971 4.513931 33,000 104 479 0
2018-10-19 18:51:20 GMT 50.831692 4.503098 33,000 104 479 0
2018-10-19 18:51:14 GMT 50.834904 4.482880 33,000 104 477 0
2018-10-19 18:51:11 GMT 50.836395 4.473514 33,000 104 479 64
2018-10-19 18:51:08 GMT 50.837791 4.464874 33,000 104 479 0
2018-10-19 18:51:05 GMT 50.839417 4.454659 33,000 104 478 64
2018-10-19 18:51:02 GMT 50.841236 4.443130 33,000 104 479 64
2018-10-19 18:50:59 GMT 50.843189 4.430847 33,000 104 478 64
2018-10-19 18:50:55 GMT 50.845139 4.418508 33,000 104 479 64
2018-10-19 18:50:52 GMT 50.846729 4.408340 33,000 104 479 64
2018-10-19 18:50:49 GMT 50.849258 4.392453 32,975 104 479 64
2018-10-19 18:50:43 GMT 50.851059 4.380951 32,975 104 479 64
2018-10-19 18:50:40 GMT 50.854038 4.362106 32,975 104 479 64
2018-10-19 18:50:34 GMT 50.856411 4.346924 32,975 104 478 64
2018-10-19 18:50:30 GMT 50.858364 4.334717 32,975 104 478 64
2018-10-19 18:50:24 GMT 50.861664 4.313767 32,950 104 478 0
2018-10-19 18:50:21 GMT 50.863255 4.303589 32,950 104 478 64
2018-10-19 18:50:18 GMT 50.864510 4.295731 32,950 104 478 64
2018-10-19 18:50:14 GMT 50.868423 4.271088 32,950 104 478 0
2018-10-19 18:50:11 GMT 50.868423 4.271088 32,950 104 478 0
2018-10-19 18:50:08 GMT 50.869865 4.261703 32,950 104 478 0
2018-10-19 18:50:05 GMT 50.871819 4.249420 32,950 103 478 0
2018-10-19 18:50:02 GMT 50.873199 4.240723 32,950 104 478 0
2018-10-19 18:49:59 GMT 50.875031 4.229279 32,950 104 477 0
2018-10-19 18:49:56 GMT 50.876404 4.220606 32,950 104 478 0
2018-10-19 18:49:53 GMT 50.878143 4.209768 32,950 104 477 0
2018-10-19 18:49:50 GMT 50.879608 4.200415 32,950 103 477 0
2018-10-19 18:49:47 GMT 50.881226 4.190292 32,950 104 478 0
2018-10-19 18:49:44 GMT 50.882812 4.180149 32,950 103 477 0
2018-10-19 18:49:41 GMT 50.884388 4.169998 32,950 103 478 0
2018-10-19 18:49:38 GMT 50.886112 4.159164 32,950 103 478 -64
2018-10-19 18:49:35 GMT 50.887463 4.150620 32,950 103 476 0
2018-10-19 18:49:32 GMT 50.889370 4.138336 32,950 103 476 0
2018-10-19 18:49:29 GMT 50.890392 4.131851 32,950 103 477 0
2018-10-19 18:49:26 GMT 50.894348 4.106586 32,950 103 476 0
2018-10-19 18:49:23 GMT 50.895355 4.100053 32,950 103 476 0
2018-10-19 18:49:20 GMT 50.895355 4.100053 32,950 103 476 0
2018-10-19 18:49:17 GMT 50.897144 4.088593 32,950 103 477 -64
2018-10-19 18:49:14 GMT 50.898743 4.078452 32,950 103 476 0
2018-10-19 18:49:11 GMT 50.900265 4.068375 32,975 103 477 -64
2018-10-19 18:49:08 GMT 50.901520 4.060440 32,950 103 476 -64
2018-10-19 18:49:05 GMT 50.903664 4.046783 32,975 103 476 -64
2018-10-19 18:49:02 GMT 50.906826 4.026489 32,975 103 477 -64
2018-10-19 18:48:59 GMT 50.906826 4.026489 32,975 103 477 -128
2018-10-19 18:48:56 GMT 50.907898 4.019241 32,975 103 477 -128
2018-10-19 18:48:53 GMT 50.911743 3.994792 32,975 103 477 -64
2018-10-19 18:48:50 GMT 50.911743 3.994792 32,975 103 477 -64
2018-10-19 18:48:47 GMT 50.912842 3.987443 32,975 103 477 -64
2018-10-19 18:48:44 GMT 50.914742 3.975143 32,975 103 477 -64
2018-10-19 18:48:41 GMT 50.915955 3.967252 32,975 103 477 -64
2018-10-19 18:48:38 GMT 50.918060 3.953593 32,975 103 477 -64
2018-10-19 18:48:35 GMT 50.919067 3.947061 33,000 103 478 -64
2018-10-19 18:48:32 GMT 50.920609 3.936920 33,000 103 478 -64
2018-10-19 18:48:28 GMT 50.923141 3.920189 33,000 103 478 -64
2018-10-19 18:48:25 GMT 50.924789 3.909351 33,000 103 478 -64
2018-10-19 18:48:22 GMT 50.926300 3.899256 33,000 103 479 -64
2018-10-19 18:48:19 GMT 50.927868 3.889008 33,000 103 479 -64
2018-10-19 18:48:16 GMT 50.928726 3.883222 33,000 103 478 -64
2018-10-19 18:48:13 GMT 50.930786 3.869414 33,000 103 479 0
2018-10-19 18:48:10 GMT 50.932205 3.859987 33,000 103 479 0
2018-10-19 18:48:07 GMT 50.933689 3.849792 33,000 103 479 0
2018-10-19 18:48:04 GMT 50.934898 3.841705 33,000 102 481 64
2018-10-19 18:48:01 GMT 50.936901 3.827896 33,000 102 480 0
2018-10-19 18:47:58 GMT 50.937927 3.820644 33,000 102 481 0
2018-10-19 18:47:55 GMT 50.939346 3.811068 33,000 102 481 0
2018-10-19 18:47:52 GMT 50.940811 3.800898 33,000 102 481 64
2018-10-19 18:47:49 GMT 50.942814 3.786926 33,000 102 481 64
2018-10-19 18:47:46 GMT 50.944115 3.777466 33,000 102 482 0
2018-10-19 18:47:43 GMT 50.945374 3.768616 33,000 102 482 0
2018-10-19 18:47:39 GMT 50.947281 3.755417 33,000 102 482 0
2018-10-19 18:47:36 GMT 50.948914 3.743740 33,000 102 482 -64
2018-10-19 18:47:33 GMT 50.950287 3.734164 33,000 107 480 320
2018-10-19 18:47:30 GMT 50.952168 3.720932 33,000 102 482 0
2018-10-19 18:47:27 GMT 50.953007 3.715210 33,000 102 481 0
2018-10-19 18:47:24 GMT 50.954823 3.702698 33,000 103 479 -64
2018-10-19 18:47:21 GMT 50.956451 3.691711 33,000 103 480 0
2018-10-19 18:47:18 GMT 50.957432 3.685226 33,000 103 479 0
2018-10-19 18:47:15 GMT 50.959442 3.672106 33,000 104 479 0
2018-10-19 18:47:11 GMT 50.961853 3.656921 33,000 104 478 0
2018-10-19 18:47:07 GMT 50.963425 3.647609 33,000 105 477 0
2018-10-19 18:47:04 GMT 50.965298 3.636703 33,000 106 476 -64
2018-10-19 18:47:01 GMT 50.967407 3.625340 33,000 106 476 -64
2018-10-19 18:46:58 GMT 50.969112 3.616104 33,000 106 476 -64
2018-10-19 18:46:55 GMT 50.971024 3.606114 33,000 106 476 0
2018-10-19 18:46:52 GMT 50.973038 3.595424 32,600 107 487 2048
2018-10-19 18:46:49 GMT 50.974934 3.585587 33,000 106 476 0
2018-10-19 18:46:46 GMT 50.976936 3.574905 33,000 106 475 0
2018-10-19 18:46:43 GMT 50.978424 3.567047 33,000 106 475 0
2018-10-19 18:46:40 GMT 50.980473 3.556366 33,000 106 475 0
2018-10-19 18:46:37 GMT 50.982800 3.544312 33,000 107 474 0
2018-10-19 18:46:34 GMT 50.984482 3.535816 33,000 107 474 0
2018-10-19 18:46:31 GMT 50.986221 3.526611 33,000 107 498 1536
2018-10-19 18:46:28 GMT 50.989922 3.507462 33,000 107 475 0
2018-10-19 18:46:25 GMT 50.992531 3.494034 33,000 107 475 0
2018-10-19 18:46:22 GMT 50.992531 3.494034 33,000 107 475 0
2018-10-19 18:46:19 GMT 50.994064 3.486252 33,000 107 475 0
2018-10-19 18:46:16 GMT 50.996017 3.476282 33,000 107 475 0
2018-10-19 18:46:13 GMT 50.997978 3.466339 33,000 107 475 64
2018-10-19 18:46:10 GMT 51.000072 3.455658 33,000 107 477 192
2018-10-19 18:46:04 GMT 51.003796 3.436584 32,600 107 480 320
2018-10-19 18:46:00 GMT 51.006355 3.423691 32,975 107 478 256
2018-10-19 18:45:56 GMT 51.009155 3.409473 32,950 107 483 832
2018-10-19 18:45:53 GMT 51.011150 3.399353 32,925 107 482 704
2018-10-19 18:45:49 GMT 51.016159 3.374213 32,825 107 485 1152
2018-10-19 18:45:46 GMT 51.016159 3.374213 32,775 107 486 1536
2018-10-19 18:45:43 GMT 51.017624 3.366928 32,650 107 486 1536
2018-10-19 18:45:40 GMT 51.020088 3.354645 32,650 107 487 1664
2018-10-19 18:45:37 GMT 51.021671 3.346634 32,550 107 489 1984
2018-10-19 18:45:34 GMT 51.023861 3.335724 32,450 107 490 1984
2018-10-19 18:45:31 GMT 51.025814 3.326187 32,350 107 490 1920
2018-10-19 18:45:28 GMT 51.028282 3.313828 32,275 107 494 1856
2018-10-19 18:45:25 GMT 51.030796 3.301315 31,975 107 495 1472
2018-10-19 18:45:21 GMT 51.032425 3.293228 32,075 107 495 1472
2018-10-19 18:45:18 GMT 51.034660 3.282166 32,025 107 496 1472
2018-10-19 18:45:15 GMT 51.039230 3.259302 31,700 107 497 1536
2018-10-19 18:45:09 GMT 51.041317 3.248825 31,775 107 499 1216
2018-10-19 18:45:05 GMT 51.044632 3.232579 31,675 107 499 1152
2018-10-19 18:45:01 GMT 51.046719 3.222275 31,500 107 499 1152
2018-10-19 18:44:58 GMT 51.049000 3.211136 31,575 107 499 1152
2018-10-19 18:44:55 GMT 51.051407 3.199174 31,500 107 499 1152
2018-10-19 18:44:52 GMT 51.053234 3.190231 31,400 107 500 1152
2018-10-19 18:44:49 GMT 51.055618 3.178389 31,325 107 499 640
2018-10-19 18:44:43 GMT 51.059704 3.158264 31,275 107 499 640
2018-10-19 18:44:40 GMT 51.061844 3.147806 31,125 107 497 384
2018-10-19 18:44:37 GMT 51.064545 3.134384 31,225 107 499 640
2018-10-19 18:44:33 GMT 51.068737 3.113632 31,125 107 498 512
2018-10-19 18:44:30 GMT 51.068737 3.113632 31,125 107 497 384
2018-10-19 18:44:27 GMT 51.070969 3.102493 30,850 107 493 1024
2018-10-19 18:44:23 GMT 51.073654 3.089162 31,075 107 496 384
2018-10-19 18:44:20 GMT 51.076447 3.075133 30,975 107 490 768
2018-10-19 18:44:17 GMT 51.077454 3.069788 31,050 107 494 448
2018-10-19 18:44:14 GMT 51.079536 3.059387 31,000 107 494 448
2018-10-19 18:44:11 GMT 51.081894 3.047667 30,975 107 494 448
2018-10-19 18:44:08 GMT 51.084366 3.035196 30,975 107 494 640
2018-10-19 18:44:04 GMT 51.087311 3.020401 30,925 107 493 768
2018-10-19 18:44:01 GMT 51.089630 3.008695 30,875 107 492 960
2018-10-19 18:43:57 GMT 51.094154 2.985840 30,675 107 493 1088
2018-10-19 18:43:54 GMT 51.094154 2.985840 30,750 107 493 1088
2018-10-19 18:43:51 GMT 51.095306 2.980042 30,750 107 493 1024
2018-10-19 18:43:47 GMT 51.098740 2.963042 30,575 107 493 960
2018-10-19 18:43:43 GMT 51.101257 2.950497 30,575 107 493 960
2018-10-19 18:43:40 GMT 51.103325 2.940292 30,575 107 492 960
2018-10-19 18:43:37 GMT 51.105278 2.930679 30,550 107 492 960
2018-10-19 18:43:34 GMT 51.107941 2.917464 30,350 107 493 960
2018-10-19 18:43:31 GMT 51.109863 2.907962 30,400 107 493 960
2018-10-19 18:43:28 GMT 51.111656 2.899170 30,375 107 493 960
2018-10-19 18:43:23 GMT 51.115242 2.881546 30,075 107 492 960
2018-10-19 18:43:20 GMT 51.117142 2.872034 30,200 107 492 960
2018-10-19 18:43:17 GMT 51.119431 2.860870 30,200 107 492 960
2018-10-19 18:43:14 GMT 51.121014 2.852859 30,150 107 491 896
2018-10-19 18:43:11 GMT 51.124008 2.838184 30,100 107 492 704
2018-10-19 18:43:08 GMT 51.125473 2.830835 29,950 107 491 1152
2018-10-19 18:43:05 GMT 51.128136 2.817688 30,025 107 492 1216
2018-10-19 18:43:02 GMT 51.130184 2.807312 29,850 107 489 768
2018-10-19 18:42:59 GMT 51.131626 2.800064 29,850 107 489 768
2018-10-19 18:42:56 GMT 51.133713 2.789711 29,775 107 492 768
2018-10-19 18:42:52 GMT 51.136780 2.774345 29,750 107 489 768
2018-10-19 18:42:49 GMT 51.138382 2.766328 29,775 107 490 768
2018-10-19 18:42:46 GMT 51.140427 2.756042 29,725 107 489 832
2018-10-19 18:42:43 GMT 51.142181 2.747250 29,050 108 486 1408
2018-10-19 18:42:40 GMT 51.145126 2.732620 29,625 107 489 640
2018-10-19 18:42:37 GMT 51.147594 2.720261 29,575 107 487 256
2018-10-19 18:42:34 GMT 51.149323 2.711470 29,550 107 488 448
2018-10-19 18:42:31 GMT 51.152847 2.694026 29,400 107 486 384
2018-10-19 18:42:28 GMT 51.152847 2.694026 29,525 107 487 320
2018-10-19 18:42:25 GMT 51.157650 2.670059 29,425 108 485 1152
2018-10-19 18:42:22 GMT 51.157650 2.670059 29,475 108 485 1216
2018-10-19 18:42:19 GMT 51.159164 2.662700 29,400 108 484 1024
2018-10-19 18:42:16 GMT 51.161514 2.651215 29,400 108 485 1216
2018-10-19 18:42:12 GMT 51.164635 2.636032 29,325 108 485 1408
2018-10-19 18:42:07 GMT 51.167908 2.620165 29,175 108 486 1536
2018-10-19 18:42:04 GMT 51.169556 2.612148 29,125 108 486 1536
2018-10-19 18:42:01 GMT 51.171524 2.602795 29,050 108 486 1472
2018-10-19 18:41:58 GMT 51.174690 2.587585 28,925 108 488 1408
2018-10-19 18:41:55 GMT 51.176376 2.579560 28,850 108 488 1280
2018-10-19 18:41:51 GMT 51.179260 2.565827 28,750 108 488 1152
2018-10-19 18:41:48 GMT 51.180954 2.557810 28,775 108 488 1152
2018-10-19 18:41:44 GMT 51.184341 2.541925 28,675 109 488 1216
2018-10-19 18:41:40 GMT 51.186996 2.529528 28,600 109 488 1088
2018-10-19 18:41:37 GMT 51.189213 2.519379 28,575 109 488 1088
2018-10-19 18:41:34 GMT 51.193771 2.498499 27,750 109 488 1152
2018-10-19 18:41:31 GMT 51.193771 2.498499 28,350 109 489 1152
2018-10-19 18:41:27 GMT 51.197266 2.482452 28,350 109 488 1152
2018-10-19 18:41:23 GMT 51.200089 2.469400 28,175 108 488 1024
2018-10-19 18:41:20 GMT 51.201462 2.462868 28,050 105 487 960
2018-10-19 18:41:17 GMT 51.203705 2.451955 28,175 107 488 1024
2018-10-19 18:41:14 GMT 51.207508 2.432175 28,100 105 487 960
2018-10-19 18:41:08 GMT 51.209461 2.421112 28,025 105 486 896
2018-10-19 18:41:05 GMT 51.212536 2.402725 27,900 103 485 768
2018-10-19 18:40:59 GMT 51.214737 2.388710 27,875 103 484 768
2018-10-19 18:40:56 GMT 51.216431 2.377649 27,825 103 483 1152
2018-10-19 18:40:53 GMT 51.218216 2.365723 27,800 103 484 768
2018-10-19 18:40:50 GMT 51.219238 2.359009 27,675 103 484 832
2018-10-19 18:40:47 GMT 51.221008 2.347260 27,625 103 484 832
2018-10-19 18:40:42 GMT 51.224918 2.321396 27,575 103 483 1024
2018-10-19 18:40:39 GMT 51.224918 2.321396 27,275 103 482 896
2018-10-19 18:40:36 GMT 51.228653 2.297108 27,475 103 482 832
2018-10-19 18:40:33 GMT 51.228653 2.297108 27,475 103 482 832
2018-10-19 18:40:30 GMT 51.229431 2.291986 27,400 103 483 832
2018-10-19 18:40:27 GMT 51.231628 2.278104 27,350 103 482 832
2018-10-19 18:40:23 GMT 51.233551 2.265559 27,375 103 482 896
2018-10-19 18:40:20 GMT 51.235931 2.250119 27,275 103 480 896
2018-10-19 18:40:17 GMT 51.236603 2.245712 27,250 103 480 960
2018-10-19 18:40:14 GMT 51.239769 2.225266 27,175 103 480 960
2018-10-19 18:40:07 GMT 51.242020 2.210553 27,000 102 478 896
2018-10-19 18:40:04 GMT 51.243393 2.201126 27,000 101 478 960
2018-10-19 18:40:01 GMT 51.245361 2.185685 26,900 98 476 1152
2018-10-19 18:39:58 GMT 51.246140 2.179005 26,850 98 476 1152
2018-10-19 18:39:53 GMT 51.248055 2.159042 26,825 97 476 1024
2018-10-19 18:39:50 GMT 51.248474 2.153766 26,800 97 475 1152
2018-10-19 18:39:47 GMT 51.249729 2.139053 26,700 97 475 1024
2018-10-19 18:39:44 GMT 51.250351 2.131570 26,700 97 475 1024
2018-10-19 18:39:41 GMT 51.251495 2.117541 26,600 96 471 384
2018-10-19 18:39:35 GMT 51.252941 2.100525 26,575 96 471 384
2018-10-19 18:39:32 GMT 51.253876 2.088739 26,500 96 473 448
2018-10-19 18:39:28 GMT 51.254791 2.076193 26,500 94 467 576
2018-10-19 18:39:25 GMT 51.255707 2.062238 26,400 93 464 832
2018-10-19 18:39:22 GMT 51.256294 2.051926 26,400 93 466 512
2018-10-19 18:39:19 GMT 51.256805 2.041750 26,425 93 466 512
2018-10-19 18:39:16 GMT 51.257126 2.035143 26,400 93 466 512
2018-10-19 18:39:13 GMT 51.257584 2.024231 26,325 92 464 1024
2018-10-19 18:39:10 GMT 51.258018 2.012482 26,275 92 464 960
2018-10-19 18:39:07 GMT 51.258297 2.001572 26,275 92 463 1024
2018-10-19 18:39:03 GMT 51.258575 1.989288 26,200 92 463 960
2018-10-19 18:39:00 GMT 51.258808 1.979752 26,150 92 462 1152
2018-10-19 18:38:56 GMT 51.259087 1.968842 26,100 92 462 768
2018-10-19 18:38:53 GMT 51.259460 1.952968 26,025 92 460 832
2018-10-19 18:38:50 GMT 51.259689 1.943615 26,025 92 460 960
2018-10-19 18:38:47 GMT 51.259872 1.935598 25,975 92 460 1088
2018-10-19 18:38:44 GMT 51.260254 1.921158 25,875 92 459 1600
2018-10-19 18:38:41 GMT 51.260345 1.916122 25,775 92 460 1344
2018-10-19 18:38:38 GMT 51.260925 1.895142 25,450 92 460 1408
2018-10-19 18:38:35 GMT 51.261292 1.881483 25,450 92 460 1408
2018-10-19 18:38:31 GMT 51.261292 1.881483 25,525 92 460 1280
2018-10-19 18:38:28 GMT 51.261658 1.869160 25,550 92 460 1152
2018-10-19 18:38:25 GMT 51.261974 1.859207 25,475 92 459 1280
2018-10-19 18:38:19 GMT 51.262665 1.836721 25,300 92 459 1216
2018-10-19 18:38:16 GMT 51.262768 1.832428 25,175 92 459 960
2018-10-19 18:38:13 GMT 51.263168 1.820910 25,250 92 459 960
2018-10-19 18:38:10 GMT 51.264160 1.791382 25,150 93 458 896
2018-10-19 18:38:06 GMT 51.264160 1.791382 25,100 93 458 1024
2018-10-19 18:38:02 GMT 51.264862 1.769791 24,975 93 457 1024
2018-10-19 18:37:58 GMT 51.265228 1.759891 24,925 93 455 1088
2018-10-19 18:37:55 GMT 51.265228 1.759891 24,825 93 456 1088
2018-10-19 18:37:52 GMT 51.265640 1.746826 24,675 93 456 1024
2018-10-19 18:37:49 GMT 51.265869 1.739700 24,825 93 456 1024
2018-10-19 18:37:46 GMT 51.266190 1.730495 24,775 93 455 1024
2018-10-19 18:37:43 GMT 51.266647 1.716911 24,675 93 454 1152
2018-10-19 18:37:40 GMT 51.267002 1.706924 24,675 93 454 1152
2018-10-19 18:37:37 GMT 51.267197 1.701174 24,125 109 454 832
2018-10-19 18:37:34 GMT 51.267979 1.679077 24,525 93 453 1088
2018-10-19 18:37:31 GMT 51.268387 1.667769 24,475 93 453 1088
2018-10-19 18:37:28 GMT 51.268387 1.667769 24,450 93 452 1088
2018-10-19 18:37:25 GMT 51.268661 1.659901 24,400 93 452 1088
2018-10-19 18:37:22 GMT 51.269142 1.647110 24,325 93 451 1024
2018-10-19 18:37:19 GMT 51.269989 1.626570 24,250 93 451 1024
2018-10-19 18:37:13 GMT 51.270260 1.620178 24,200 94 451 832
2018-10-19 18:37:10 GMT 51.271454 1.598362 24,075 153 453 1280
2018-10-19 18:37:07 GMT 51.271454 1.598362 24,075 99 452 896
2018-10-19 18:37:04 GMT 51.272354 1.587143 24,050 99 452 896
2018-10-19 18:37:00 GMT 51.273472 1.576614 24,025 101 452 896
2018-10-19 18:36:57 GMT 51.276314 1.557159 23,925 105 453 960
2018-10-19 18:36:54 GMT 51.276314 1.557159 23,750 113 454 704
2018-10-19 18:36:51 GMT 51.278641 1.544800 23,825 109 454 832
2018-10-19 18:36:48 GMT 51.279804 1.539536 23,625 110 455 832
2018-10-19 18:36:45 GMT 51.285206 1.518326 23,775 115 455 896
2018-10-19 18:36:42 GMT 51.285206 1.518326 23,775 113 455 704
2018-10-19 18:36:39 GMT 51.286926 1.512451 23,700 120 456 1280
2018-10-19 18:36:36 GMT 51.289581 1.504211 23,675 118 456 1216
2018-10-19 18:36:33 GMT 51.296936 1.484451 23,000 122 457 1344
2018-10-19 18:36:30 GMT 51.302628 1.471574 23,475 124 457 1408
2018-10-19 18:36:27 GMT 51.302628 1.471574 23,450 127 458 1408
2018-10-19 18:36:24 GMT 51.304001 1.468679 23,350 129 458 1472
2018-10-19 18:36:21 GMT 51.307709 1.461256 23,175 139 461 1216
2018-10-19 18:36:18 GMT 51.313339 1.451012 23,250 132 460 1408
2018-10-19 18:36:15 GMT 51.318398 1.442719 23,125 136 460 1344
2018-10-19 18:36:12 GMT 51.327438 1.429559 23,000 139 461 1216
2018-10-19 18:36:09 GMT 51.327438 1.429559 22,975 143 459 960
2018-10-19 18:36:05 GMT 51.332748 1.422804 22,975 142 460 960
2018-10-19 18:36:02 GMT 51.338600 1.416016 22,900 145 460 1024
2018-10-19 18:35:59 GMT 51.343185 1.411149 22,875 149 458 1024
2018-10-19 18:35:56 GMT 51.348888 1.405487 22,775 153 456 1024
2018-10-19 18:35:53 GMT 51.355637 1.399569 22,750 153 456 1088
2018-10-19 18:35:50 GMT 51.360901 1.395264 22,725 153 456 1024
2018-10-19 18:35:47 GMT 51.366856 1.390533 22,675 153 455 1024
2018-10-19 18:35:44 GMT 51.370056 1.387989 22,575 153 453 1280
2018-10-19 18:35:41 GMT 51.377285 1.382217 22,575 153 453 1216
2018-10-19 18:35:37 GMT 51.384476 1.376409 22,350 153 452 1408
2018-10-19 18:35:34 GMT 51.390427 1.371658 22,425 153 452 1408
2018-10-19 18:35:31 GMT 51.396423 1.366833 22,325 153 451 1536
2018-10-19 18:35:28 GMT 51.402832 1.361637 22,250 153 451 1664
2018-10-19 18:35:25 GMT 51.409870 1.355896 22,050 153 451 1728
2018-10-19 18:35:22 GMT 51.414276 1.352358 22,100 153 451 1664
2018-10-19 18:35:18 GMT 51.419403 1.348201 22,000 153 452 1728
2018-10-19 18:35:15 GMT 51.425400 1.343301 21,925 153 452 1600
2018-10-19 18:35:12 GMT 51.432541 1.337509 21,875 153 452 1600
2018-10-19 18:35:09 GMT 51.437302 1.333651 21,700 152 451 1536
2018-10-19 18:35:06 GMT 51.447250 1.325455 21,450 152 450 1344
2018-10-19 18:35:03 GMT 51.447250 1.325455 21,575 152 451 1536
2018-10-19 18:35:00 GMT 51.453552 1.320364 21,550 152 450 1408
2018-10-19 18:34:57 GMT 51.458286 1.316452 21,475 152 450 1344
2018-10-19 18:34:54 GMT 51.464245 1.311569 21,425 152 449 1472
2018-10-19 18:34:51 GMT 51.470535 1.306408 21,350 152 448 1664
2018-10-19 18:34:48 GMT 51.477219 1.300915 21,175 152 449 1664
2018-10-19 18:34:45 GMT 51.480789 1.297946 20,900 152 448 1728
2018-10-19 18:34:42 GMT 51.485916 1.293714 20,975 152 448 1664
2018-10-19 18:34:36 GMT 51.496445 1.284881 20,925 152 449 1664
2018-10-19 18:34:33 GMT 51.503586 1.278942 20,825 152 448 1536
2018-10-19 18:34:30 GMT 51.508656 1.274719 20,800 152 448 1536
2018-10-19 18:34:27 GMT 51.515350 1.269144 20,600 152 421 1152
2018-10-19 18:34:24 GMT 51.521210 1.264244 20,575 152 447 1536
2018-10-19 18:34:18 GMT 51.529789 1.257019 20,450 152 447 1280
2018-10-19 18:34:15 GMT 51.536819 1.251179 20,375 152 446 1280
2018-10-19 18:34:12 GMT 51.543411 1.245612 20,300 152 445 1216
2018-10-19 18:34:09 GMT 51.546936 1.242717 20,225 152 443 1024
2018-10-19 18:34:05 GMT 51.555862 1.235145 20,150 152 443 1024
2018-10-19 18:34:02 GMT 51.565979 1.226683 20,100 152 442 832
2018-10-19 18:33:59 GMT 51.565979 1.226683 20,075 152 441 704
2018-10-19 18:33:56 GMT 51.571747 1.221858 20,050 152 441 768
2018-10-19 18:33:53 GMT 51.575912 1.218295 20,025 152 434 384
2018-10-19 18:33:49 GMT 51.582813 1.212540 19,975 152 434 384
2018-10-19 18:33:46 GMT 51.589329 1.207123 19,975 152 434 384
2018-10-19 18:33:43 GMT 51.595367 1.202038 19,925 152 431 768
2018-10-19 18:33:40 GMT 51.598755 1.199143 19,850 152 429 1088
2018-10-19 18:33:37 GMT 51.606274 1.192856 19,850 152 429 1088
2018-10-19 18:33:34 GMT 51.613037 1.187192 19,800 152 428 1088
2018-10-19 18:33:31 GMT 51.615257 1.185303 19,750 152 426 1088
2018-10-19 18:33:28 GMT 51.620052 1.181259 19,625 152 424 1152
2018-10-19 18:33:25 GMT 51.626431 1.175919 19,625 152 424 1088
2018-10-19 18:33:22 GMT 51.631969 1.171188 19,600 152 423 1152
2018-10-19 18:33:18 GMT 51.638954 1.165314 19,475 152 421 1024
2018-10-19 18:33:14 GMT 51.645584 1.159726 19,475 152 421 1024
2018-10-19 18:33:11 GMT 51.656273 1.150665 19,375 152 421 960
2018-10-19 18:33:08 GMT 51.656273 1.150665 19,325 152 421 1024
2018-10-19 18:33:05 GMT 51.661018 1.146698 19,300 152 421 1024
2018-10-19 18:33:02 GMT 51.665070 1.143265 19,075 152 421 1280
2018-10-19 18:32:59 GMT 51.669479 1.139535 19,175 152 421 1280
2018-10-19 18:32:56 GMT 51.676102 1.133957 19,125 152 421 1600
2018-10-19 18:32:53 GMT 51.681976 1.128994 19,050 152 421 1600
2018-10-19 18:32:50 GMT 51.687469 1.124317 19,000 152 421 1728
2018-10-19 18:32:46 GMT 51.696350 1.116820 18,825 152 420 1792
2018-10-19 18:32:43 GMT 51.698914 1.114655 18,750 152 419 1728
2018-10-19 18:32:40 GMT 51.705803 1.108780 18,675 152 419 1536
2018-10-19 18:32:37 GMT 51.709110 1.106033 18,625 152 419 1472
2018-10-19 18:32:34 GMT 51.716446 1.099821 18,575 152 418 1536
2018-10-19 18:32:31 GMT 51.718231 1.098328 18,500 152 417 1664
2018-10-19 18:32:28 GMT 51.723312 1.093956 18,350 152 416 1728
2018-10-19 18:32:24 GMT 51.729172 1.088983 18,200 151 416 1472
2018-10-19 18:32:21 GMT 51.735306 1.083786 18,175 151 415 1536
2018-10-19 18:32:18 GMT 51.741787 1.078110 18,125 150 415 1344
2018-10-19 18:32:15 GMT 51.745010 1.075250 18,000 150 413 1280
2018-10-19 18:32:12 GMT 51.750633 1.070023 18,000 148 414 1024
2018-10-19 18:32:09 GMT 51.755241 1.065598 17,925 141 411 576
2018-10-19 18:32:06 GMT 51.760941 1.059216 17,900 141 411 576
2018-10-19 18:32:01 GMT 51.766846 1.051421 17,850 135 408 832
2018-10-19 18:31:58 GMT 51.771488 1.044159 17,825 128 405 1600
2018-10-19 18:31:55 GMT 51.775269 1.037466 17,675 126 405 1536
2018-10-19 18:31:51 GMT 51.780659 1.026306 17,750 126 405 1536
2018-10-19 18:31:48 GMT 51.783920 1.018982 17,575 124 403 1856
2018-10-19 18:31:45 GMT 51.790062 1.004791 15,775 91 393 1664
2018-10-19 18:31:42 GMT 51.790062 1.004791 17,325 124 402 2176
2018-10-19 18:31:39 GMT 51.793167 0.997455 17,325 124 403 2688
2018-10-19 18:31:36 GMT 51.795685 0.991665 17,275 124 403 2624
2018-10-19 18:31:33 GMT 51.798862 0.984268 17,000 124 403 2432
2018-10-19 18:31:30 GMT 51.802460 0.975853 17,000 124 403 2560
2018-10-19 18:31:27 GMT 51.810471 0.956627 16,775 123 404 2240
2018-10-19 18:31:24 GMT 51.811989 0.952911 16,400 119 403 1792
2018-10-19 18:31:21 GMT 51.811989 0.952911 16,625 118 403 1920
2018-10-19 18:31:18 GMT 51.815201 0.944748 16,550 121 404 1728
2018-10-19 18:31:14 GMT 51.818665 0.935323 16,425 119 403 1792
2018-10-19 18:31:11 GMT 51.820908 0.928567 16,375 108 401 1792
2018-10-19 18:31:08 GMT 51.823532 0.919266 16,200 108 401 1792
2018-10-19 18:31:05 GMT 51.825165 0.912088 16,150 108 401 1792
2018-10-19 18:31:02 GMT 51.827351 0.900421 16,075 103 398 1728
2018-10-19 18:30:59 GMT 51.828327 0.893021 15,900 100 398 1728
2018-10-19 18:30:56 GMT 51.829494 0.879364 20,950 97 396 1728
2018-10-19 18:30:53 GMT 51.829559 0.877422 20,950 84 342 1728
2018-10-19 18:30:50 GMT 51.829834 0.866806 15,650 87 390 1600
2018-10-19 18:30:47 GMT 51.829742 0.860051 15,650 85 388 1728
2018-10-19 18:30:44 GMT 51.829262 0.850067 15,500 82 386 1920
2018-10-19 18:30:41 GMT 51.828094 0.835419 15,400 82 385 2048
2018-10-19 18:30:37 GMT 51.827351 0.826340 15,300 82 385 2048
2018-10-19 18:30:34 GMT 51.826839 0.820312 15,175 82 385 2176
2018-10-19 18:30:31 GMT 51.826233 0.812454 15,100 82 385 2112
2018-10-19 18:30:28 GMT 51.825397 0.802078 14,475 82 385 2176
2018-10-19 18:30:25 GMT 51.824524 0.791164 14,650 82 385 2112
2018-10-19 18:30:22 GMT 51.824158 0.786933 14,750 82 384 1920
2018-10-19 18:30:19 GMT 51.823517 0.778990 14,750 82 383 1728
2018-10-19 18:30:16 GMT 51.822739 0.768746 14,625 82 383 1728
2018-10-19 18:30:13 GMT 51.822186 0.761490 14,525 82 381 1664
2018-10-19 18:30:10 GMT 51.821411 0.751821 14,425 82 380 1600
2018-10-19 18:30:07 GMT 51.820835 0.744553 14,375 83 379 1216
2018-10-19 18:30:04 GMT 51.820320 0.737381 14,325 83 379 1280
2018-10-19 18:30:01 GMT 51.819435 0.725479 14,225 83 377 1600
2018-10-19 18:29:58 GMT 51.818253 0.709286 14,125 83 375 1344
2018-10-19 18:29:55 GMT 51.818253 0.709286 14,025 83 374 1280
2018-10-19 18:29:52 GMT 51.817158 0.693970 14,000 83 374 1280
2018-10-19 18:29:49 GMT 51.816460 0.683899 13,950 83 371 1152
2018-10-19 18:29:46 GMT 51.816460 0.683899 13,925 83 370 1088
2018-10-19 18:29:43 GMT 51.815918 0.675808 13,900 83 370 1088
2018-10-19 18:29:40 GMT 51.815620 0.671082 13,675 83 367 1280
2018-10-19 18:29:37 GMT 51.815002 0.661852 13,775 83 366 1152
2018-10-19 18:29:34 GMT 51.814407 0.653167 13,650 83 362 1024
2018-10-19 18:29:31 GMT 51.813629 0.641067 13,650 83 362 1024
2018-10-19 18:29:28 GMT 51.813217 0.634757 13,600 83 360 896
2018-10-19 18:29:24 GMT 51.812550 0.624542 13,550 84 355 768
2018-10-19 18:29:21 GMT 51.811981 0.615606 13,525 84 354 704
2018-10-19 18:29:18 GMT 51.811337 0.605545 13,500 84 353 704
2018-10-19 18:29:15 GMT 51.811066 0.601056 13,425 84 348 896
2018-10-19 18:29:12 GMT 51.810734 0.595551 13,400 84 347 1152
2018-10-19 18:29:09 GMT 51.810196 0.586729 13,300 84 343 1792
2018-10-19 18:29:06 GMT 51.809799 0.580139 13,250 84 343 1792
2018-10-19 18:29:03 GMT 51.809242 0.570984 13,200 84 343 1792
2018-10-19 18:29:00 GMT 51.808823 0.563812 12,975 84 341 1728
2018-10-19 18:28:57 GMT 51.808357 0.555725 12,725 84 340 1792
2018-10-19 18:28:54 GMT 51.808033 0.550385 12,925 84 339 1984
2018-10-19 18:28:51 GMT 51.807037 0.534767 12,700 84 338 2304
2018-10-19 18:28:48 GMT 51.806587 0.527267 12,575 84 338 2688
2018-10-19 18:28:45 GMT 51.806587 0.527267 12,525 83 338 2752
2018-10-19 18:28:41 GMT 51.805847 0.516506 12,475 83 338 2816
2018-10-19 18:28:38 GMT 51.804726 0.499878 12,200 83 341 2496
2018-10-19 18:28:35 GMT 51.804726 0.499878 12,100 83 341 2240
2018-10-19 18:28:32 GMT 51.804260 0.493927 12,025 83 341 2240
2018-10-19 18:28:29 GMT 51.803558 0.484215 11,875 83 340 2368
2018-10-19 18:28:26 GMT 51.803101 0.478276 11,725 82 339 2240
2018-10-19 18:28:23 GMT 51.801819 0.462168 11,575 82 340 2048
2018-10-19 18:28:20 GMT 51.801819 0.462168 11,525 82 339 2240
2018-10-19 18:28:17 GMT 51.801361 0.456304 11,450 82 341 2304
2018-10-19 18:28:14 GMT 51.800583 0.446701 10,925 81 331 896
2018-10-19 18:28:11 GMT 51.800163 0.441895 11,150 82 340 1984
2018-10-19 18:28:08 GMT 51.799187 0.430603 11,150 81 340 1856
2018-10-19 18:28:05 GMT 51.798862 0.426788 11,100 81 334 960
2018-10-19 18:28:02 GMT 51.798164 0.418777 10,950 81 335 1024
2018-10-19 18:27:59 GMT 51.797325 0.409851 10,925 81 334 960
2018-10-19 18:27:56 GMT 51.796860 0.404510 10,900 81 331 896
2018-10-19 18:27:52 GMT 51.795883 0.394211 10,850 81 323 960
2018-10-19 18:27:49 GMT 51.795227 0.386971 10,800 81 326 960
2018-10-19 18:27:46 GMT 51.794586 0.380216 10,750 81 321 896
2018-10-19 18:27:43 GMT 51.793880 0.372696 10,700 81 320 960
2018-10-19 18:27:40 GMT 51.793030 0.364108 10,600 81 315 960
2018-10-19 18:27:37 GMT 51.792572 0.359134 10,575 81 313 896
2018-10-19 18:27:34 GMT 51.791794 0.350746 10,525 81 312 960
2018-10-19 18:27:31 GMT 51.791088 0.342941 10,500 81 308 960
2018-10-19 18:27:28 GMT 51.789963 0.330778 10,400 81 304 1088
2018-10-19 18:27:25 GMT 51.789963 0.330778 10,400 81 304 1088
2018-10-19 18:27:22 GMT 51.789410 0.325012 10,375 81 303 1088
2018-10-19 18:27:19 GMT 51.788727 0.317416 10,300 81 300 1280
2018-10-19 18:27:16 GMT 51.788177 0.311329 10,250 81 298 1600
2018-10-19 18:27:13 GMT 51.787537 0.304277 10,125 81 297 2176
2018-10-19 18:27:10 GMT 51.786804 0.295944 10,050 81 296 2112
2018-10-19 18:27:07 GMT 51.786015 0.287018 9,875 81 295 1920
2018-10-19 18:27:04 GMT 51.785477 0.281413 9,800 81 295 1920
2018-10-19 18:27:01 GMT 51.785019 0.276366 9,725 81 294 1792
2018-10-19 18:26:58 GMT 51.784561 0.271244 9,600 81 292 1856
2018-10-19 18:26:55 GMT 51.784012 0.265231 9,600 81 292 1856
2018-10-19 18:26:52 GMT 51.782848 0.252380 9,400 81 290 1984
2018-10-19 18:26:46 GMT 51.781590 0.237885 9,225 81 287 2112
2018-10-19 18:26:43 GMT 51.781590 0.237885 9,175 81 287 2112
2018-10-19 18:26:40 GMT 51.781033 0.231934 8,725 81 287 2624
2018-10-19 18:26:37 GMT 51.780521 0.226059 8,850 81 287 2624
2018-10-19 18:26:34 GMT 51.779961 0.220261 8,850 81 287 2624
2018-10-19 18:26:31 GMT 51.779449 0.214310 8,275 81 288 2688
2018-10-19 18:26:28 GMT 51.778889 0.208511 8,575 81 288 2752
2018-10-19 18:26:25 GMT 51.778061 0.199387 8,425 81 288 2752
2018-10-19 18:26:22 GMT 51.777695 0.195304 8,300 81 289 2560
2018-10-19 18:26:19 GMT 51.777027 0.188065 8,175 81 288 2240
2018-10-19 18:26:16 GMT 51.776550 0.182611 8,100 81 288 2304
2018-10-19 18:26:13 GMT 51.775398 0.169449 7,925 81 288 2368
2018-10-19 18:26:10 GMT 51.774654 0.160828 7,800 82 287 2176
2018-10-19 18:26:07 GMT 51.774654 0.160828 7,725 82 287 2048
2018-10-19 18:26:04 GMT 51.774307 0.156778 7,525 81 286 2048
2018-10-19 18:26:01 GMT 51.773724 0.150452 7,600 81 285 2048
2018-10-19 18:25:58 GMT 51.773209 0.144233 7,475 81 284 2048
2018-10-19 18:25:55 GMT 51.772560 0.137024 6,600 81 282 1792
2018-10-19 18:25:52 GMT 51.772141 0.132141 7,275 81 282 1792
2018-10-19 18:25:48 GMT 51.771286 0.122780 7,125 81 279 1792
2018-10-19 18:25:45 GMT 51.770554 0.114391 7,000 81 276 1728
2018-10-19 18:25:42 GMT 51.770233 0.110977 6,975 81 277 2048
2018-10-19 18:25:39 GMT 51.769672 0.104828 6,800 81 276 1536
2018-10-19 18:25:36 GMT 51.768539 0.093087 6,100 81 276 1408
2018-10-19 18:25:33 GMT 51.768322 0.090942 6,700 81 276 1024
2018-10-19 18:25:30 GMT 51.767952 0.087051 6,625 80 276 960
2018-10-19 18:25:27 GMT 51.767349 0.080987 6,625 80 275 1024
2018-10-19 18:25:24 GMT 51.766479 0.072747 6,525 80 275 1024
2018-10-19 18:25:21 GMT 51.766022 0.067996 6,500 80 275 1024
2018-10-19 18:25:18 GMT 51.765335 0.061538 6,475 80 275 1024
2018-10-19 18:25:15 GMT 51.764786 0.056381 6,425 80 275 1024
2018-10-19 18:25:12 GMT 51.764099 0.049364 6,300 80 275 1024
2018-10-19 18:25:09 GMT 51.763527 0.044174 6,275 80 275 1024
2018-10-19 18:25:06 GMT 51.762863 0.037339 6,200 80 274 1088
2018-10-19 18:25:03 GMT 51.762131 0.030441 6,150 80 274 1088
2018-10-19 18:25:00 GMT 51.761478 0.023956 6,150 80 274 1024
2018-10-19 18:24:57 GMT 51.761124 0.020117 6,075 80 274 1088
2018-10-19 18:24:54 GMT 51.760529 0.014475 6,050 80 274 1088
2018-10-19 18:24:51 GMT 51.759197 0.001144 5,950 80 274 1024
2018-10-19 18:24:48 GMT 51.759197 0.001144 5,925 80 274 1088
2018-10-19 18:24:45 GMT 51.758408 -0.006256 5,875 80 274 1024
2018-10-19 18:24:42 GMT 51.757755 -0.012665 5,825 80 275 896
2018-10-19 18:24:39 GMT 51.756405 -0.025635 5,775 80 274 960
2018-10-19 18:24:36 GMT 51.756405 -0.025635 5,750 80 274 960
2018-10-19 18:24:33 GMT 51.755241 -0.036697 5,600 103 268 0
2018-10-19 18:24:29 GMT 51.754303 -0.045281 5,600 80 273 896
2018-10-19 18:24:25 GMT 51.754303 -0.045281 5,525 80 272 960
2018-10-19 18:24:22 GMT 51.753708 -0.051346 5,525 80 269 1984
2018-10-19 18:24:19 GMT 51.752960 -0.058517 5,450 80 269 1856
2018-10-19 18:24:16 GMT 51.752335 -0.064508 5,350 80 269 1984
2018-10-19 18:24:12 GMT 51.751842 -0.069504 5,225 82 266 2368
2018-10-19 18:24:09 GMT 51.751144 -0.077053 5,075 82 266 2432
2018-10-19 18:24:03 GMT 51.750229 -0.088781 4,800 88 266 1408
2018-10-19 18:24:00 GMT 51.749935 -0.095596 4,725 103 269 64
2018-10-19 18:23:57 GMT 51.749935 -0.100250 4,725 92 267 960
2018-10-19 18:23:54 GMT 51.750122 -0.106583 4,675 95 267 704
2018-10-19 18:23:50 GMT 51.750824 -0.114985 4,625 100 268 256
2018-10-19 18:23:47 GMT 51.752472 -0.126640 4,625 103 269 0
2018-10-19 18:23:44 GMT 51.752472 -0.126640 4,625 103 269 0
2018-10-19 18:23:40 GMT 51.754265 -0.138779 4,625 103 269 64
2018-10-19 18:23:37 GMT 51.754265 -0.138779 4,625 103 269 0
2018-10-19 18:23:33 GMT 51.755474 -0.147095 4,625 103 268 0
2018-10-19 18:23:30 GMT 51.756683 -0.154953 4,625 103 268 0
2018-10-19 18:23:27 GMT 51.757290 -0.159073 4,625 103 268 0
2018-10-19 18:23:22 GMT 51.758743 -0.168655 4,625 103 268 0
2018-10-19 18:23:19 GMT 51.759659 -0.174890 4,625 103 268 0
2018-10-19 18:23:16 GMT 51.760757 -0.181943 4,625 103 269 64
2018-10-19 18:23:12 GMT 51.761761 -0.188599 4,625 103 269 0
2018-10-19 18:23:09 GMT 51.762955 -0.196566 4,625 103 269 0
2018-10-19 18:23:06 GMT 51.763733 -0.201466 4,625 104 262 -128
2018-10-19 18:23:03 GMT 51.764458 -0.206451 4,625 103 270 64
2018-10-19 18:23:00 GMT 51.766205 -0.217722 4,625 104 266 -64
2018-10-19 18:22:57 GMT 51.766937 -0.222325 4,625 104 268 0
2018-10-19 18:22:51 GMT 51.767952 -0.228958 4,625 104 268 -64
2018-10-19 18:22:48 GMT 51.768997 -0.235612 4,625 104 264 0
2018-10-19 18:22:45 GMT 51.770000 -0.242157 4,625 104 266 -64
2018-10-19 18:22:42 GMT 51.770744 -0.246658 4,625 104 266 -64
2018-10-19 18:22:39 GMT 51.771606 -0.251943 4,625 104 264 -64
2018-10-19 18:22:36 GMT 51.772751 -0.259292 4,625 104 260 0
2018-10-19 18:22:33 GMT 51.773621 -0.264563 4,625 104 260 0
2018-10-19 18:22:30 GMT 51.775257 -0.274811 4,650 104 254 64
2018-10-19 18:22:27 GMT 51.776276 -0.281042 4,625 94 246 0
2018-10-19 18:22:21 GMT 51.777168 -0.286484 4,625 104 251 0
2018-10-19 18:22:18 GMT 51.778061 -0.291880 4,625 104 251 0
2018-10-19 18:22:14 GMT 51.780121 -0.304945 4,625 104 249 0
2018-10-19 18:22:10 GMT 51.780121 -0.304945 4,625 102 248 64
2018-10-19 18:22:07 GMT 51.781219 -0.312271 4,625 103 248 64
2018-10-19 18:22:04 GMT 51.781822 -0.316849 4,625 102 248 64
2018-10-19 18:22:01 GMT 51.782501 -0.322761 4,625 96 246 0
2018-10-19 18:21:58 GMT 51.782913 -0.328105 4,625 95 246 0
2018-10-19 18:21:54 GMT 51.783264 -0.334778 4,625 93 246 0
2018-10-19 18:21:51 GMT 51.783371 -0.341022 4,625 90 245 128
2018-10-19 18:21:48 GMT 51.783405 -0.346069 4,600 90 245 64
2018-10-19 18:21:45 GMT 51.783463 -0.352676 4,600 90 245 128
2018-10-19 18:21:42 GMT 51.783463 -0.356536 4,600 90 241 576
2018-10-19 18:21:39 GMT 51.783501 -0.362778 4,575 90 239 704
2018-10-19 18:21:36 GMT 51.783501 -0.367661 4,550 87 236 1920
2018-10-19 18:21:33 GMT 51.783371 -0.380513 4,450 88 237 1280
2018-10-19 18:21:29 GMT 51.783371 -0.380513 4,425 88 237 1408
2018-10-19 18:21:26 GMT 51.783264 -0.386124 4,375 88 237 1472
2018-10-19 18:21:23 GMT 51.783173 -0.390244 4,225 87 235 2240
2018-10-19 18:21:20 GMT 51.783081 -0.394440 4,225 87 235 2240
2018-10-19 18:21:17 GMT 51.782867 -0.401149 4,050 87 234 2304
2018-10-19 18:21:14 GMT 51.782593 -0.413027 3,950 88 235 1792
2018-10-19 18:21:11 GMT 51.782593 -0.413027 3,825 88 235 1792
2018-10-19 18:21:08 GMT 51.782707 -0.421600 3,725 99 234 1344
2018-10-19 18:21:05 GMT 51.782707 -0.421600 3,600 106 233 1152
2018-10-19 18:21:02 GMT 51.783051 -0.426017 3,625 104 234 1280
2018-10-19 18:20:59 GMT 51.784149 -0.432772 3,575 122 231 512
2018-10-19 18:20:55 GMT 51.786255 -0.439824 3,500 122 231 512
2018-10-19 18:20:51 GMT 51.787781 -0.443420 3,500 129 229 576
2018-10-19 18:20:47 GMT 51.790993 -0.448990 3,425 142 224 640
2018-10-19 18:20:44 GMT 51.793552 -0.452423 3,425 142 224 640
2018-10-19 18:20:41 GMT 51.795605 -0.454483 3,375 151 220 640
2018-10-19 18:20:37 GMT 51.798706 -0.456898 3,350 158 217 704
2018-10-19 18:20:34 GMT 51.803513 -0.459273 3,275 171 209 704
2018-10-19 18:20:31 GMT 51.805389 -0.459793 3,275 179 206 704
2018-10-19 18:20:26 GMT 51.810219 -0.460052 3,200 186 202 704
2018-10-19 18:20:23 GMT 51.812408 -0.459671 3,150 191 200 512
2018-10-19 18:20:20 GMT 51.814877 -0.458832 3,075 194 196 640
2018-10-19 18:20:16 GMT 51.819580 -0.456230 3,050 207 188 576
2018-10-19 18:20:12 GMT 51.823395 -0.453110 3,025 211 185 640
2018-10-19 18:20:09 GMT 51.824661 -0.451850 3,000 211 179 640
2018-10-19 18:20:03 GMT 51.828735 -0.447916 2,950 211 177 640
2018-10-19 18:19:59 GMT 51.831711 -0.445021 2,900 212 172 576
2018-10-19 18:19:55 GMT 51.835777 -0.441132 2,850 211 166 768
2018-10-19 18:19:49 GMT 51.838211 -0.438785 2,800 211 162 1344
2018-10-19 18:19:45 GMT 51.842880 -0.434331 2,675 211 163 1216
2018-10-19 18:19:39 GMT 51.846497 -0.430916 2,525 211 162 1280
2018-10-19 18:19:33 GMT 51.848721 -0.428848 2,450 211 161 1024
2018-10-19 18:19:30 GMT 51.850388 -0.427279 2,375 210 160 960
2018-10-19 18:19:27 GMT 51.852444 -0.425415 2,350 207 158 1152
2018-10-19 18:19:23 GMT 51.854553 -0.423567 2,300 207 158 1280
2018-10-19 18:19:20 GMT 51.857162 -0.421415 2,175 209 162 2816
2018-10-19 18:19:17 GMT 51.859055 -0.419769 2,100 209 162 2816
2018-10-19 18:19:14 GMT 51.860683 -0.418243 2,000 217 162 3008
2018-10-19 18:19:11 GMT 51.862453 -0.416412 1,850 217 162 3008
2018-10-19 18:19:08 GMT 51.863987 -0.414200 1,675 233 162 3136
2018-10-19 18:19:05 GMT 51.865860 -0.410725 1,500 251 163 3392
2018-10-19 18:19:02 GMT 51.866959 -0.407905 1,350 245 162 3200
2018-10-19 18:18:59 GMT 51.868084 -0.404129 1,150 253 162 3392
2018-10-19 18:18:56 GMT 51.868790 -0.400704 1,025 254 163 3456
2018-10-19 18:18:53 GMT 51.870026 -0.394097 825 253 165 2816

Making use of Plane Finder data

You are free to use the raw flight data, aircraft information and images provided in this report for your own purposes provided the data is correctly attributed to Plane Finder. We ask that you please credit Plane Finder and link to planefinder.net in close proximity to the content.

Optionally one of the following logos (no smaller then 150x24px) can be used and must link to planefinder.net

Embedding the Plane Finder map

You are welcome to embed the Plane Finder playback map on your website to offer visitors a more interactive experience. We suggest using the following HTML code:

<iframe src="//planefinder.net/data/report/TCX178-LY-VED-7700-squawk-2018-10-19/map" width="800" height="600" seamless="seamless"></iframe>

Where our data comes from

Plane Finder has a global network of data feeds and antenna radars that receive data broadcast directly from aircraft. The primary technologies used are ADS-B and MLAT. We also show feeds from the FAA and a FLARM glider feed.

Click here to find out more about the Plane Finder network.

How we collect our data